[[{"header":{"parameterUnit":"m.s-1","parameterCategory":1,"la1":30.6,"la2":28.766,"lo1":-90.7593,"lo2":-88.6598,"dy":0.0162,"dx":0.0183,"nx":116,"ny":114,"refTime":"2023-08-30T18:00:00:Z","depth":0,"parameterNumber":2,"parameterNumberName":"U-component_of_WINDS"},"data":[0.0,0.0,0.0,0.0,0.0,0.0,0.0,0.0,0.0,0.0,0.0,0.0,0.0,0.0,0.0,0.0,0.0,0.0,0.0,0.0,0.0,0.0,0.0,0.0,0.0,0.0,0.0,0.0,0.0,0.0,0.0,0.0,0.0,0.0,0.0,0.0,0.0,0.0,0.0,0.0,0.0,0.0,0.0,0.0,0.0,0.0,0.0,0.0,0.0,0.0,0.0,0.0,0.0,0.0,0.0,0.0,0.0,0.0,0.0,0.0,0.0,0.0,0.0,0.0,0.0,0.0,0.0,0.0,0.0,0.0,0.0,0.0,0.0,0.0,0.0,0.0,0.0,0.0,0.0,0.0,0.0,0.0,0.0,0.0,0.0,0.0,0.0,0.0,0.0,0.0,0.0,0.0,0.0,0.0,0.0,0.0,0.0,0.0,0.0,0.0,0.0,0.0,0.0,0.0,0.0,0.0,0.0,0.0,0.0,0.0,0.0,0.0,0.0,0.0,0.0,0.0,0.0,0.0,0.0,0.0,0.0,0.0,0.0,0.0,0.0,0.0,0.0,0.0,0.0,0.0,0.0,0.0,0.0,0.0,0.0,0.0,0.0,0.0,0.0,0.0,0.0,0.0,0.0,0.0,0.0,0.0,0.0,0.0,0.0,0.0,0.0,0.0,0.0,0.0,0.0,0.0,0.0,0.0,0.0,0.0,0.0,0.0,0.0,0.0,0.0,0.0,0.0,0.0,0.0,0.0,0.0,0.0,0.0,0.0,0.0,0.0,0.0,0.0,0.0,0.0,0.0,0.0,0.0,0.0,0.0,0.0,0.0,0.0,0.0,0.0,0.0,0.0,0.0,0.0,0.0,0.0,0.0,0.0,0.0,0.0,0.0,0.0,0.0,0.0,0.0,0.0,0.0,0.0,0.0,0.0,0.0,0.0,0.0,0.0,0.0,0.0,0.0,0.0,0.0,0.0,0.0,0.0,0.0,0.0,0.0,0.0,0.0,0.0,0.0,0.0,0.0,0.0,0.0,0.0,0.0,0.0,0.0,0.0,0.0,0.0,0.0,0.0,0.0,0.0,0.0,0.0,0.0,0.0,0.0,0.0,0.0,0.0,0.0,0.0,0.0,0.0,0.0,0.0,0.0,0.0,0.0,0.0,0.0,0.0,0.0,0.0,0.0,0.0,0.0,0.0,0.0,0.0,0.0,0.0,0.0,0.0,0.0,0.0,0.0,0.0,0.0,0.0,0.0,0.0,0.0,0.0,0.0,0.0,0.0,0.0,0.0,0.0,0.0,0.0,0.0,0.0,0.0,0.0,0.0,0.0,0.0,0.0,0.0,0.0,0.0,0.0,0.0,0.0,0.0,0.0,0.0,0.0,0.0,0.0,0.0,0.0,0.0,0.0,0.0,0.0,0.0,0.0,0.0,0.0,0.0,0.0,0.0,0.0,0.0,0.0,0.0,0.0,0.0,0.0,0.0,0.0,0.0,0.0,0.0,0.0,0.0,0.0,0.0,0.0,0.0,0.0,0.0,0.0,0.0,0.0,0.0,0.0,0.0,0.0,0.0,0.0,0.0,0.0,0.0,0.0,0.0,0.0,0.0,0.0,0.0,0.0,0.0,0.0,0.0,0.0,0.0,0.0,0.0,0.0,0.0,0.0,0.0,0.0,0.0,0.0,0.0,0.0,0.0,0.0,0.0,0.0,0.0,0.0,0.0,0.0,0.0,0.0,0.0,0.0,0.0,0.0,0.0,0.0,0.0,0.0,0.0,0.0,0.0,0.0,0.0,0.0,0.0,0.0,0.0,0.0,0.0,0.0,0.0,0.0,0.0,0.0,0.0,0.0,0.0,0.0,0.0,0.0,0.0,0.0,0.0,0.0,0.0,0.0,0.0,0.0,0.0,0.0,0.0,0.0,0.0,0.0,0.0,0.0,0.0,0.0,0.0,0.0,0.0,0.0,0.0,0.0,0.0,0.0,0.0,0.0,0.0,0.0,0.0,0.0,0.0,0.0,0.0,0.0,0.0,0.0,0.0,0.0,0.0,0.0,0.0,0.0,0.0,0.0,0.0,0.0,0.0,0.0,0.0,0.0,0.0,0.0,0.0,0.0,0.0,0.0,0.0,0.0,0.0,0.0,0.0,0.0,0.0,0.0,0.0,0.0,0.0,0.0,0.0,0.0,0.0,0.0,0.0,0.0,0.0,0.0,0.0,0.0,0.0,0.0,0.0,0.0,0.0,0.0,0.0,0.0,0.0,0.0,0.0,0.0,0.0,0.0,0.0,0.0,0.0,0.0,0.0,0.0,0.0,0.0,0.0,0.0,0.0,0.0,0.0,0.0,0.0,0.0,0.0,0.0,0.0,0.0,0.0,0.0,0.0,0.0,0.0,0.0,0.0,0.0,0.0,0.0,0.0,0.0,0.0,0.0,0.0,0.0,0.0,0.0,0.0,0.0,0.0,0.0,0.0,0.0,0.0,0.0,0.0,0.0,0.0,0.0,0.0,0.0,0.0,0.0,0.0,0.0,0.0,0.0,0.0,0.0,0.0,0.0,0.0,0.0,0.0,0.0,0.0,0.0,0.0,0.0,0.0,0.0,0.0,0.0,0.0,0.0,0.0,0.0,0.0,0.0,0.0,0.0,0.0,0.0,0.0,0.0,0.0,0.0,0.0,0.0,0.0,0.0,0.0,0.0,0.0,0.0,0.0,0.0,0.0,0.0,0.0,0.0,0.0,0.0,0.0,0.0,0.0,0.0,0.0,0.0,0.0,0.0,0.0,0.0,0.0,0.0,0.0,0.0,0.0,0.0,0.0,0.0,0.0,0.0,0.0,0.0,0.0,0.0,0.0,0.0,0.0,0.0,0.0,0.0,0.0,0.0,0.0,0.0,0.0,0.0,0.0,0.0,0.0,0.0,0.0,0.0,0.0,0.0,0.0,0.0,0.0,0.0,0.0,0.0,0.0,0.0,0.0,0.0,0.0,0.0,0.0,0.0,0.0,0.0,0.0,0.0,0.0,0.0,0.0,0.0,0.0,0.0,0.0,0.0,0.0,0.0,0.0,0.0,0.0,0.0,0.0,0.0,0.0,0.0,0.0,0.0,0.0,0.0,0.0,0.0,0.0,0.0,0.0,0.0,0.0,0.0,0.0,0.0,0.0,0.0,0.0,0.0,0.0,0.0,0.0,0.0,0.0,0.0,0.0,0.0,0.0,0.0,0.0,0.0,0.0,0.0,0.0,0.0,0.0,0.0,0.0,0.0,0.0,0.0,0.0,0.0,0.0,0.0,0.0,0.0,0.0,0.0,0.0,0.0,0.0,0.0,0.0,0.0,0.0,0.0,0.0,0.0,0.0,0.0,0.0,0.0,0.0,0.0,0.0,0.0,0.0,0.0,0.0,0.0,0.0,0.0,0.0,0.0,0.0,0.0,0.0,0.0,0.0,0.0,0.0,0.0,0.0,0.0,0.0,0.0,0.0,0.0,0.0,0.0,0.0,0.0,0.0,0.0,0.0,0.0,0.0,0.0,0.0,0.0,0.0,0.0,0.0,0.0,0.0,0.0,0.0,0.0,0.0,0.0,0.0,0.0,0.0,0.0,0.0,0.0,0.0,0.0,0.0,0.0,0.0,0.0,0.0,0.0,0.0,0.0,0.0,0.0,0.0,0.0,0.0,0.0,0.0,0.0,0.0,0.0,0.0,0.0,0.0,0.0,0.0,0.0,0.0,0.0,0.0,0.0,0.0,0.0,0.0,0.0,0.0,0.0,0.0,0.0,0.0,0.0,0.0,0.0,0.0,0.0,0.0,0.0,0.0,0.0,0.0,0.0,0.0,0.0,0.0,0.0,0.0,0.0,0.0,0.0,0.0,0.0,0.0,0.0,0.0,0.0,0.0,0.0,0.0,0.0,0.0,0.0,0.0,0.0,0.0,0.0,0.0,0.0,0.0,0.0,0.0,0.0,0.0,0.0,0.0,0.0,0.0,0.0,0.0,0.0,0.0,0.0,0.0,0.0,0.0,0.0,0.0,0.0,0.0,0.0,0.0,0.0,0.0,0.0,0.0,0.0,0.0,0.0,0.0,0.0,0.0,0.0,0.0,0.0,0.0,0.0,0.0,0.0,0.0,0.0,0.0,0.0,0.0,0.0,0.0,0.0,0.0,0.0,0.0,0.0,0.0,0.0,0.0,0.0,0.0,0.0,0.0,0.0,0.0,0.0,0.0,0.0,0.0,0.0,0.0,0.0,0.0,0.0,0.0,0.0,0.0,0.0,0.0,0.0,0.0,0.0,0.0,0.0,0.0,0.0,0.0,0.0,0.0,0.0,0.0,0.0,0.0,0.0,0.0,0.0,0.0,0.0,0.0,0.0,0.0,0.0,0.0,0.0,0.0,0.0,0.0,0.0,0.0,0.0,0.0,0.0,0.0,0.0,0.0,0.0,0.0,0.0,0.0,0.0,0.0,0.0,0.0,0.0,0.0,0.0,0.0,0.0,0.0,0.0,0.0,0.0,0.0,0.0,0.0,0.0,0.0,0.0,0.0,0.0,0.0,0.0,0.0,0.0,0.0,0.0,0.0,0.0,0.0,0.0,0.0,0.0,0.0,0.0,0.0,0.0,0.0,0.0,0.0,0.0,0.0,0.0,0.0,0.0,0.0,0.0,0.0,0.0,0.0,0.0,0.0,0.0,0.0,0.0,0.0,0.0,0.0,0.0,0.0,0.0,0.0,0.0,0.0,0.0,0.0,0.0,0.0,0.0,0.0,0.0,0.0,0.0,0.0,0.0,0.0,0.0,0.0,0.0,0.0,0.0,0.0,0.0,0.0,0.0,0.0,0.0,0.0,0.0,0.0,0.0,0.0,0.0,0.0,0.0,0.0,0.0,0.0,0.0,0.0,0.0,0.0,0.0,0.0,0.0,0.0,0.0,0.0,0.0,0.0,0.0,0.0,0.0,0.0,0.0,0.0,0.0,0.0,0.0,0.0,0.0,0.0,0.0,0.0,0.0,0.0,0.0,0.0,0.0,0.0,0.0,0.0,0.0,0.0,0.0,0.0,0.0,0.0,0.0,0.0,0.0,0.0,0.0,0.0,0.0,0.0,0.0,0.0,0.0,0.0,0.0,0.0,0.0,0.0,0.0,0.0,0.0,0.0,0.0,0.0,0.0,0.0,0.0,0.0,0.0,0.0,0.0,0.0,0.0,0.0,0.0,0.0,0.0,0.0,0.0,0.0,0.0,0.0,0.0,0.0,0.0,0.0,0.0,0.0,0.0,0.0,0.0,0.0,0.0,0.0,0.0,0.0,0.0,0.0,0.0,0.0,0.0,0.0,0.0,0.0,0.0,0.0,0.0,0.0,0.0,0.0,0.0,0.0,0.0,0.0,0.0,0.0,0.0,0.0,0.0,0.0,0.0,0.0,0.0,0.0,0.0,0.0,0.0,0.0,0.0,0.0,0.0,0.0,0.0,0.0,0.0,0.0,0.0,0.0,0.0,0.0,0.0,0.0,0.0,0.0,0.0,0.0,0.0,0.0,0.0,0.0,0.0,0.0,0.0,0.0,0.0,0.0,0.0,0.0,0.0,0.0,0.0,0.0,0.0,0.0,0.0,0.0,0.0,0.0,0.0,0.0,0.0,0.0,0.0,0.0,0.0,0.0,0.0,0.0,0.0,0.0,0.0,0.0,0.0,0.0,0.0,0.0,0.0,0.0,0.0,0.0,0.0,0.0,0.0,0.0,0.0,0.0,0.0,0.0,0.0,0.0,0.0,0.0,0.0,0.0,0.0,0.0,0.0,0.0,0.0,0.0,0.0,0.0,0.0,0.0,0.0,0.0,0.0,0.0,0.0,0.0,0.0,0.0,0.0,0.0,0.0,0.0,0.0,0.0,0.0,0.0,0.0,0.0,0.0,0.0,0.0,0.0,0.0,0.0,0.0,0.0,0.0,0.0,0.0,0.0,0.0,0.0,0.0,0.0,0.0,0.0,0.0,0.0,0.0,0.0,0.0,0.0,0.0,0.0,0.0,0.0,0.0,0.0,0.0,0.0,0.0,0.0,0.0,0.0,0.0,0.0,0.0,0.0,0.0,0.0,0.0,0.0,0.0,2.5345,2.4971,0.0,0.0,0.0,0.0,0.0,0.0,0.0,0.0,0.0,0.0,0.0,0.0,0.0,0.0,0.0,0.0,0.0,0.0,0.0,0.0,0.0,0.0,0.0,0.0,0.0,0.0,0.0,0.0,0.0,0.0,0.0,0.0,0.0,0.0,0.0,0.0,0.0,2.6078,2.5764,2.527,2.4597,2.527,2.557,2.5615,0.0,0.0,0.0,0.0,0.0,0.0,0.0,0.0,0.0,0.0,0.0,0.0,0.0,0.0,0.0,0.0,0.0,0.0,0.0,0.0,0.0,0.0,0.0,0.0,0.0,0.0,0.0,0.0,0.0,0.0,0.0,0.0,0.0,0.0,0.0,0.0,0.0,0.0,0.0,0.0,0.0,0.0,0.0,0.0,0.0,0.0,0.0,0.0,0.0,0.0,0.0,0.0,0.0,0.0,0.0,0.0,0.0,0.0,0.0,0.0,0.0,0.0,0.0,0.0,0.0,0.0,0.0,0.0,0.0,0.0,2.7111,2.6363,0.0,0.0,0.0,0.0,0.0,0.0,0.0,0.0,0.0,0.0,0.0,0.0,0.0,0.0,0.0,0.0,0.0,0.0,0.0,0.0,0.0,0.0,0.0,2.7083,2.8517,2.8742,2.916,2.9415,0.0,0.0,0.0,0.0,0.0,0.0,0.0,2.7649,2.7604,2.6946,2.6273,2.5674,2.5166,2.6258,2.6752,2.6752,2.6752,0.0,0.0,0.0,0.0,0.0,0.0,0.0,0.0,0.0,0.0,0.0,0.0,0.0,0.0,0.0,0.0,0.0,0.0,0.0,0.0,0.0,0.0,0.0,0.0,0.0,0.0,0.0,0.0,0.0,0.0,0.0,0.0,0.0,0.0,0.0,0.0,0.0,0.0,0.0,0.0,0.0,0.0,0.0,0.0,0.0,0.0,0.0,0.0,0.0,0.0,0.0,0.0,0.0,0.0,0.0,0.0,0.0,0.0,0.0,0.0,0.0,0.0,0.0,3.13,3.1884,3.1884,3.1884,3.1569,3.0926,2.931,2.8389,2.8015,2.8532,0.0,0.0,0.0,0.0,0.0,0.0,0.0,0.0,0.0,0.0,0.0,0.0,0.0,0.0,0.0,0.0,0.0,0.0,0.0,0.0,0.0,2.7151,2.8173,2.9355,2.9011,2.8727,2.8727,0.0,0.0,0.0,0.0,0.0,2.919,2.9265,2.8996,2.8338,2.7649,2.726,2.7186,2.7415,2.749,2.749,2.749,2.7535,2.756,0.0,0.0,0.0,0.0,0.0,0.0,0.0,0.0,0.0,0.0,0.0,0.0,0.0,0.0,0.0,0.0,0.0,0.0,0.0,0.0,0.0,0.0,0.0,0.0,0.0,0.0,0.0,0.0,0.0,0.0,0.0,0.0,0.0,0.0,0.0,0.0,0.0,0.0,0.0,0.0,0.0,2.9325,2.9325,0.0,0.0,0.0,0.0,0.0,0.0,0.0,0.0,0.0,0.0,0.0,0.0,0.0,2.9529,3.0824,3.0966,3.1375,3.2138,3.2886,3.3245,3.3245,3.3245,3.3185,3.308,3.2826,0.0,2.9325,2.9415,0.0,0.0,0.0,0.0,0.0,0.0,0.0,0.0,0.0,0.0,0.0,0.0,0.0,0.0,0.0,0.0,0.0,0.0,0.0,0.0,0.0,2.7634,2.8936,2.9535,2.9998,3.0253,3.0253,3.0148,0.0,0.0,0.0,2.9579,2.9579,2.9579,2.9265,2.8607,2.9011,2.8846,2.8158,2.8532,2.8697,2.8712,2.9071,2.8816,2.8173,2.8547,0.0,0.0,0.0,0.0,0.0,0.0,0.0,0.0,0.0,0.0,0.0,0.0,0.0,0.0,0.0,0.0,0.0,0.0,0.0,0.0,0.0,0.0,0.0,0.0,0.0,0.0,0.0,0.0,0.0,0.0,0.0,0.0,0.0,0.0,0.0,0.0,0.0,0.0,0.0,2.9505,2.9968,2.9624,2.9894,2.9773,0.0,0.0,0.0,0.0,0.0,0.0,0.0,0.0,0.0,3.0192,3.0526,3.0934,3.1389,3.2649,3.3229,3.3273,3.4575,3.4981,3.4622,3.4622,3.4622,3.4622,3.405,3.2928,3.1553,3.1172,3.0276,2.9078,0.0,0.0,0.0,0.0,2.8047,2.7294,0.0,0.0,0.0,0.0,0.0,0.0,0.0,0.0,0.0,0.0,0.0,0.0,2.5745,2.7771,2.9265,2.9774,3.0567,3.1031,3.1031,3.0702,3.0432,3.0283,2.9967,2.9907,3.0073,3.0088,2.9998,2.9849,3.0462,3.0283,2.9355,2.9669,2.9909,3.0103,3.0567,3.0133,2.9116,2.9609,2.9146,2.818,0.0,0.0,0.0,0.0,0.0,0.0,0.0,0.0,0.0,0.0,0.0,0.0,0.0,0.0,0.0,0.0,0.0,0.0,0.0,0.0,0.0,0.0,0.0,0.0,0.0,0.0,0.0,0.0,0.0,0.0,0.0,0.0,0.0,0.0,0.0,0.0,0.0,3.0881,3.1031,3.0402,3.0696,3.0397,0.0,0.0,0.0,0.0,0.0,0.0,3.005,3.0368,3.0744,3.1195,3.175,3.2125,3.2277,3.367,3.4185,3.3774,3.5356,3.5621,3.4773,3.5001,3.5001,3.4706,3.3959,3.3277,3.2537,3.1933,3.0732,2.9227,2.9594,2.9329,2.8915,2.9265,2.8971,2.8502,0.0,0.0,0.0,0.0,0.0,0.0,0.0,0.0,0.0,0.0,0.0,2.4428,2.626,2.7218,2.8427,3.0298,2.9983,2.9684,2.9684,3.0193,3.0238,2.9654,3.0046,3.0616,3.1377,3.1377,3.2033,3.3245,3.2063,3.1392,3.1317,3.0746,3.0806,3.1377,3.1407,3.1091,3.0417,3.0447,3.0088,2.949,2.952,0.0,0.0,0.0,0.0,0.0,0.0,0.0,0.0,0.0,0.0,0.0,0.0,0.0,0.0,0.0,0.0,0.0,0.0,0.0,0.0,0.0,0.0,0.0,0.0,0.0,0.0,0.0,0.0,0.0,0.0,0.0,0.0,0.0,0.0,0.0,0.0,0.0,0.0,3.2437,3.2152,0.0,0.0,0.0,0.0,3.1227,3.0592,3.0619,3.1701,3.106,3.1493,3.3475,3.2175,3.2551,3.4854,3.3577,3.3091,3.3449,3.447,3.4228,3.2749,3.3671,3.3602,3.2749,3.2678,3.2164,3.1256,3.0869,3.0636,3.0458,2.991,2.9565,2.9306,2.8752,2.8032,2.7437,0.0,0.0,0.0,0.0,0.0,0.0,0.0,0.0,2.0939,2.1537,2.2708,2.4263,2.6275,2.7486,2.8748,3.0347,2.9876,2.9446,2.9446,2.8828,2.8639,2.9192,2.9964,3.1097,3.2781,3.2796,3.3021,3.3499,3.344,3.3215,3.2781,3.2542,3.2557,3.2811,3.3245,3.3051,3.2422,3.2422,3.1554,3.0178,3.0178,2.9639,0.0,0.0,0.0,0.0,0.0,0.0,0.0,0.0,0.0,0.0,0.0,0.0,0.0,0.0,0.0,0.0,0.0,0.0,0.0,0.0,0.0,0.0,0.0,0.0,0.0,0.0,0.0,0.0,0.0,0.0,0.0,0.0,0.0,0.0,0.0,0.0,0.0,3.2902,3.3417,0.0,3.1208,3.1368,3.1563,3.1435,3.187,3.2396,3.3161,3.2887,3.3227,3.4308,3.3467,3.3424,3.4354,3.4088,3.3701,3.3041,3.4098,3.3865,3.2593,3.2961,3.289,3.2593,3.196,3.1536,3.114,3.0403,3.0112,3.0086,2.9878,2.9709,2.9653,2.9448,2.9174,2.8962,0.0,0.0,0.0,0.0,0.0,0.0,0.0,0.0,2.0889,2.1469,2.2638,2.4255,2.6495,2.7442,2.8641,3.0335,2.9578,2.903,2.903,2.8166,2.8019,2.887,3.0211,3.1616,3.3007,3.357,3.3948,3.4173,3.4382,3.4247,3.3829,3.3604,3.3619,3.3844,3.4277,3.4367,3.4173,3.4173,3.3021,3.1195,3.142,3.1001,3.0043,0.0,0.0,0.0,0.0,0.0,0.0,0.0,0.0,0.0,0.0,0.0,0.0,0.0,0.0,0.0,0.0,0.0,0.0,0.0,0.0,0.0,0.0,0.0,0.0,0.0,0.0,0.0,0.0,0.0,0.0,0.0,0.0,0.0,0.0,3.5067,3.5444,3.4347,3.4508,3.3984,3.204,3.2421,3.2675,3.2311,3.293,3.3596,3.4148,3.4173,3.4424,3.4989,3.4882,3.4679,3.4449,3.4769,3.4314,3.2872,3.3751,3.3441,3.2198,3.2556,3.2388,3.1917,3.1271,3.0864,3.0696,3.0075,2.9792,2.9792,2.9792,2.9792,2.9792,2.9792,2.9792,2.9883,0.0,0.0,0.0,0.0,0.0,0.0,0.0,2.0326,2.0891,2.1468,2.2605,2.4309,2.6986,2.712,2.7902,3.0238,2.9128,2.824,2.824,2.8226,2.8403,2.8793,3.0928,3.2155,3.2277,3.375,3.4816,3.5504,3.4831,3.4502,3.4502,3.3858,3.3903,3.4502,3.4502,3.4876,3.5504,3.5504,3.4382,3.2587,3.3184,3.2661,3.1526,0.0,0.0,0.0,0.0,0.0,0.0,0.0,0.0,0.0,0.0,0.0,0.0,0.0,0.0,0.0,0.0,0.0,0.0,0.0,0.0,0.0,0.0,0.0,0.0,0.0,0.0,0.0,0.0,0.0,0.0,0.0,0.0,0.0,3.481,3.5985,3.6713,3.6639,3.5382,3.4271,3.3666,3.3314,3.3382,3.3935,3.3985,3.4223,3.4751,3.4801,3.5052,3.5554,3.6145,3.6207,3.5542,3.5548,3.4777,3.3093,3.3506,3.2924,3.1493,3.2395,3.1952,3.0633,3.062,3.0319,2.9842,2.9829,2.9817,2.9817,2.9804,2.9792,2.9792,2.9792,2.9792,2.9934,0.0,0.0,0.0,0.0,0.0,0.0,2.0363,2.0903,2.1606,2.256,2.3343,2.4645,2.6783,2.6992,2.7596,2.9256,2.814,2.7304,2.7304,2.6307,2.696,2.9633,3.1247,3.2861,3.4584,3.4494,3.4816,3.5504,3.531,3.522,3.522,3.504,3.5055,3.522,3.522,3.5325,3.5504,3.5504,3.4756,3.3536,3.278,3.2271,3.1724,0.0,0.0,0.0,0.0,0.0,0.0,0.0,0.0,0.0,0.0,0.0,0.0,0.0,0.0,0.0,0.0,0.0,0.0,0.0,0.0,0.0,0.0,0.0,0.0,0.0,0.0,0.0,0.0,0.0,0.0,0.0,3.2397,3.3985,3.492,3.6128,3.6573,3.5777,3.573,3.5605,3.5035,3.4853,3.509,3.5642,3.6056,3.6169,3.5918,3.6671,3.681,3.6157,3.6341,3.6138,3.5554,3.5097,3.4553,3.3671,3.3756,3.3174,3.1989,3.2212,3.1921,3.116,3.0783,3.0746,3.0922,3.0545,3.0394,3.0357,2.9942,2.9792,2.9792,2.9792,2.9792,2.9869,0.0,0.0,0.0,0.0,0.0,0.0,2.0668,2.133,2.2071,2.2711,2.369,2.4874,2.638,2.6413,2.6892,2.8119,2.7185,2.6403,2.6166,2.5946,2.7102,2.991,3.1499,3.3163,3.5055,3.4966,3.51,3.5504,3.5504,3.5504,3.5504,3.5504,3.5504,3.5519,3.5789,3.5532,3.4883,3.5427,3.4911,3.3663,3.2779,3.236,3.2139,3.056,3.0488,3.1194,3.0094,3.0358,3.1069,3.0778,0.0,0.0,0.0,0.0,0.0,0.0,0.0,0.0,0.0,0.0,0.0,0.0,0.0,0.0,0.0,0.0,0.0,0.0,0.0,0.0,0.0,0.0,0.0,0.0,3.2951,3.4556,3.5548,3.6383,3.6922,3.6832,3.6753,3.666,3.6521,3.6571,3.6709,3.7023,3.7349,3.7387,3.7073,3.7663,3.7713,3.7073,3.7597,3.733,3.6232,3.6116,3.5647,3.4587,3.4349,3.3897,3.3257,3.3031,3.2616,3.2064,3.1524,3.1323,3.1348,3.0834,3.062,3.0583,0.0,0.0,0.0,0.0,2.9792,2.9792,0.0,0.0,0.0,0.0,0.0,0.0,2.0882,2.1732,2.2447,2.2585,2.3941,2.5205,2.5988,2.5807,2.5936,2.6829,2.6281,2.573,2.5389,2.6637,2.8192,2.9976,3.1709,3.3206,3.4386,3.5126,3.5504,3.5504,3.5504,3.5504,3.5504,3.5434,3.5398,3.5428,3.6015,3.5453,3.4094,3.5239,3.479,3.3287,3.2917,3.268,3.2434,3.1758,3.1512,3.1445,3.0774,3.0678,3.0923,3.165,0.0,0.0,0.0,0.0,0.0,0.0,0.0,0.0,0.0,0.0,0.0,0.0,0.0,0.0,0.0,0.0,0.0,0.0,0.0,0.0,0.0,0.0,0.0,0.0,3.3947,3.5366,3.6408,3.6906,3.7573,3.8686,3.791,3.75,3.8052,3.804,3.804,3.8103,3.8103,3.8078,3.8002,3.8128,0.0,0.0,0.0,3.8929,3.7186,3.7764,3.7221,3.5629,3.514,3.4876,3.4801,3.4311,3.3746,3.3144,3.2554,3.2039,3.1537,3.1009,3.0796,3.0771,3.0595,3.0269,2.988,2.9817,2.9792,2.9792,0.0,0.0,0.0,0.0,0.0,0.0,2.1857,2.2548,2.3301,2.4217,2.4983,2.5501,2.5686,2.5656,2.5504,2.5282,2.5497,2.6029,2.6853,2.7743,2.8851,3.025,3.2067,3.3331,3.4057,3.4993,3.5504,3.5504,3.5504,3.5504,3.5519,3.518,3.5056,3.5016,3.4822,3.458,3.4261,3.4497,3.3984,3.2893,3.2856,3.2564,3.2004,3.1126,3.1005,3.1223,3.0493,3.1074,3.211,3.1197,3.1678,3.2645,3.2124,3.1884,0.0,0.0,0.0,0.0,0.0,0.0,0.0,0.0,0.0,0.0,0.0,0.0,0.0,0.0,0.0,0.0,0.0,0.0,0.0,3.465,3.5918,3.6935,3.76,3.7783,3.788,3.8193,3.7937,3.8078,3.8642,3.8278,3.8203,3.8668,3.8705,3.8492,3.804,3.8868,3.8956,3.804,3.8753,3.85,3.7199,3.7349,3.702,3.6194,3.6094,0.0,3.5378,3.5278,3.4675,3.3709,3.3156,3.2855,3.2704,3.2139,3.1901,3.1775,3.047,3.0156,3.0407,2.9955,2.9792,2.9792,0.0,0.0,0.0,0.0,0.0,0.0,2.2598,2.3201,2.3866,2.4707,2.5272,2.5598,2.5598,2.536,2.5109,2.4845,2.5059,2.5674,2.6804,2.8035,2.9243,3.0336,3.2033,3.3068,3.331,3.4578,3.4811,3.4056,3.4811,3.4971,3.4462,3.4525,3.459,3.4618,3.4699,3.4339,3.3557,3.4254,3.3701,3.2513,3.2821,3.259,3.2037,3.1246,3.0785,3.0482,3.0419,3.0771,3.1175,3.1012,3.1777,3.276,3.2058,3.2222,3.245,0.0,0.0,0.0,0.0,0.0,0.0,0.0,0.0,0.0,0.0,0.0,0.0,0.0,0.0,3.1775,3.288,0.0,3.5102,3.6194,3.7061,3.7789,3.8366,3.8442,3.8442,3.8442,3.8442,3.8655,3.9233,3.9019,3.8969,3.927,3.9283,3.9157,3.8868,3.9383,3.9433,3.8868,3.9132,3.8881,3.804,3.8027,3.7739,3.7186,3.691,3.6621,3.6345,3.5793,3.524,3.4675,3.3847,3.3483,3.342,3.2566,3.2215,3.2077,3.0733,3.0369,3.0557,2.9993,2.9792,2.9792,0.0,0.0,0.0,0.0,0.0,0.0,0.0,2.3791,2.4356,2.4908,2.5435,2.5724,2.5598,2.5134,2.482,2.482,2.4921,2.5536,2.6854,2.8298,2.9554,3.0568,3.2016,3.2754,3.2604,3.4042,3.4199,3.2966,3.4199,3.4367,3.3564,3.408,3.4344,3.4372,3.4936,3.442,3.3258,3.428,3.392,3.2729,3.3093,3.2893,3.234,3.1888,3.1047,3.0131,3.0369,3.0231,3.0085,3.0735,3.1616,3.2403,3.1853,3.2291,3.2748,3.1378,3.1087,0.0,0.0,0.0,0.0,0.0,0.0,0.0,0.0,3.0746,3.1122,3.2428,3.3244,3.4123,3.5466,3.6257,3.6897,3.7425,3.8065,3.8655,3.912,3.9283,3.9346,3.9346,3.9258,3.9371,3.981,3.9848,3.981,3.9697,3.9697,3.9697,3.9697,3.9697,3.9697,3.9697,3.9697,3.9433,3.8881,3.8868,3.858,3.8002,3.745,3.7186,3.7149,3.6157,3.5642,3.5399,3.4374,3.3897,3.3822,3.2805,3.2378,3.229,3.1311,3.0922,3.0834,3.0068,2.9792,2.9792,0.0,0.0,0.0,0.0,0.0,0.0,0.0,0.0,2.4921,2.5435,2.6013,2.6163,2.5649,2.5134,2.482,2.482,2.5247,2.6402,2.8511,2.9302,3.0196,3.1221,3.2278,3.2764,3.2788,3.384,3.4319,3.4101,3.4319,3.4272,3.4211,3.4353,3.4479,3.4532,3.4722,3.4654,3.4527,3.4653,3.4577,3.4399,3.3985,3.347,3.2968,3.2905,3.219,3.1097,3.0206,3.0168,3.0444,3.0098,3.0893,3.2071,3.2018,3.2349,3.2778,3.2413,3.1209,3.0012,3.0189,3.0108,3.0375,3.1675,3.1662,3.18,0.0,3.4173,3.4223,3.4399,3.5265,3.6056,3.6232,3.7123,3.8015,3.8592,3.9559,4.0262,4.0325,4.0752,4.1065,4.1065,4.0626,4.0362,4.0413,4.0425,4.0224,3.9735,3.9697,3.9697,3.9697,3.9697,3.9697,3.9697,3.9697,3.9433,3.8881,3.8868,3.858,3.8002,3.745,3.7186,3.7161,3.6546,3.6006,3.5399,3.4374,3.3897,3.3847,3.3232,3.298,3.2918,3.229,3.2039,3.1851,3.0344,2.9792,2.9792,0.0,0.0,0.0,0.0,0.0,0.0,0.0,0.0,0.0,2.5523,2.5548,2.541,2.5172,2.4946,2.482,2.482,2.59,2.7105,2.836,2.988,3.1072,3.1838,3.2581,3.2841,3.2495,3.3436,3.3502,3.262,3.3502,3.3847,3.3571,3.3997,3.4293,3.4625,3.4679,3.4726,3.4726,3.4726,3.4726,3.47,3.4474,3.4048,3.352,3.3206,3.2579,3.1763,3.0997,3.067,0.0,3.0611,3.0989,3.1536,3.1536,3.1483,3.1329,3.1048,3.0368,2.9945,3.07,3.1318,3.1863,3.2554,3.3269,3.4048,3.4989,3.5441,3.5855,3.6496,3.7525,3.8404,3.8718,3.9421,4.0023,4.0275,4.0701,4.099,4.099,4.1191,4.1342,4.1342,4.1128,4.099,4.099,4.099,4.0902,4.0676,4.035,4.0174,4.0174,3.9873,3.9697,3.9697,3.9697,3.9584,3.9346,3.9346,3.9233,3.8981,3.8429,3.799,3.7651,3.7098,3.637,3.5504,3.4713,3.4198,3.3859,3.3307,3.3081,3.3018,3.2441,3.2215,3.2051,3.0758,3.0269,3.0231,0.0,0.0,0.0,0.0,0.0,0.0,0.0,0.0,0.0,0.0,2.5059,2.482,2.482,2.482,2.4883,2.5021,2.6414,2.7645,2.8511,3.0344,3.1775,3.2641,3.3081,3.3181,3.2905,3.3643,3.3437,3.2303,3.3437,3.3861,3.3545,3.4098,3.465,3.5177,3.5328,3.5403,3.5403,3.5403,3.5316,3.5165,3.5014,3.4613,3.4048,3.3345,3.2717,3.2127,3.1424,3.0934,3.0653,3.0833,3.1154,3.1391,3.122,3.1127,3.0904,3.024,2.9917,3.003,3.1097,3.2102,3.2955,3.342,3.4663,3.5818,3.5968,3.6546,3.7324,3.8278,3.9245,4.0086,4.0639,4.1065,4.1342,4.1342,4.1467,4.1568,4.1568,4.1568,4.1568,4.1568,4.143,4.1342,4.1342,4.1342,4.1342,4.1342,4.0827,4.0513,4.0513,3.9986,3.9697,3.9697,3.9697,3.9697,3.9697,3.9697,3.9697,3.9685,3.9132,3.8567,3.799,3.7274,3.6521,3.5742,3.519,3.4638,3.4085,3.3533,3.3219,3.3031,3.2616,3.2453,3.234,3.1399,3.0959,3.0758,0.0,0.0,0.0,0.0,0.0,0.0,0.0,0.0,0.0,0.0,0.0,0.0,0.0,2.482,2.5021,2.5523,2.6628,2.7984,2.9628,3.0783,3.2127,3.3771,3.3872,3.411,3.4638,3.4638,3.4638,3.4625,3.4638,3.465,3.4675,3.524,3.578,3.6332,3.6872,3.7111,3.7111,3.7111,3.6797,3.627,3.573,3.519,3.4575,3.3483,3.2717,3.2077,3.1022,3.0633,3.059,3.0316,3.1014,3.1843,3.1215,3.178,3.2424,3.1026,3.0218,3.003,3.1097,3.18,3.2629,3.4261,3.5504,3.6471,3.701,3.799,3.8956,3.9521,4.0099,4.0664,4.1216,4.1329,4.1342,4.1342,4.1781,4.2133,4.2133,4.2133,4.2133,4.2133,4.1668,4.1342,4.1342,4.1342,4.1342,4.1342,4.0827,4.0513,4.0513,3.9986,3.9697,3.9697,3.9697,3.9697,3.9697,3.9697,3.9697,3.9685,3.9132,3.8567,3.7965,3.6885,3.637,3.6307,3.5755,3.5203,3.465,3.411,3.3558,3.3081,3.3056,3.3056,3.298,3.239,3.1825,3.1298,0.0,0.0,0.0,0.0,0.0,0.0,0.0,0.0,0.0,0.0,0.0,0.0,0.0,0.0,0.0,0.0,2.6854,2.7833,2.9139,3.0256,3.1625,3.3282,3.3709,3.4161,3.4713,3.4726,3.4726,3.4726,3.4726,3.4914,3.5278,3.583,3.6383,3.6923,3.7475,3.7726,3.7701,3.7337,3.7287,3.7349,3.6056,3.5429,3.5102,3.3633,3.2491,3.1524,0.0,3.0306,3.0719,3.1509,3.1228,3.0739,3.175,3.118,3.0075,2.9617,3.0143,3.0934,3.1286,3.288,3.465,3.5579,3.6923,3.8266,3.9182,3.9685,4.0011,4.0199,4.0388,4.0463,4.0275,4.0551,4.0915,4.1279,4.1806,4.2158,4.2158,4.2472,4.2296,4.1191,4.1229,4.1204,4.0827,4.1128,4.1492,4.1856,4.1379,4.1065,4.1065,4.0538,4.0074,3.9697,3.9697,3.9697,3.9697,3.9697,3.9697,3.9685,3.8743,3.8203,3.7965,3.686,3.6358,3.6332,3.578,3.5441,3.5228,3.4675,3.4123,3.3621,3.3621,3.3395,3.3056,3.2855,3.2667,3.2378,0.0,0.0,0.0,0.0,0.0,0.0,0.0,0.0,0.0,0.0,0.0,0.0,0.0,0.0,0.0,0.0,0.0,2.767,2.8574,2.9691,3.0972,3.2416,3.3006,3.3558,3.4123,3.4135,3.4135,3.4135,3.4336,3.4613,3.4977,3.5717,3.6358,3.691,3.7462,3.7713,3.7688,3.7337,3.7048,3.6747,3.568,3.4889,3.4211,3.2955,3.1913,0.0,3.0118,3.0018,3.039,3.0935,3.0606,3.0173,3.1119,3.0453,2.9315,2.9691,3.0696,3.1863,3.2654,3.4462,3.632,3.7073,3.8366,3.9647,4.035,4.0676,4.0814,4.0814,4.0651,4.0413,4.0061,4.0111,4.0337,4.0701,4.104,4.1417,4.1806,4.1831,4.1555,4.089,4.0953,4.0827,4.0275,4.0727,4.1266,4.1819,4.1718,4.1455,4.1065,4.0714,4.0262,3.971,3.9697,3.9697,3.9697,3.9697,3.9697,3.9685,3.8755,3.8203,3.7977,3.7073,3.6546,3.6345,3.5994,3.573,3.5424,3.5165,3.4575,3.3897,3.3897,3.3558,3.3081,3.3081,3.3081,3.2943,0.0,0.0,0.0,0.0,0.0,0.0,0.0,0.0,0.0,0.0,0.0,0.0,0.0,0.0,0.0,0.0,0.0,0.0,2.8021,2.9101,3.0181,3.126,3.1863,3.2441,3.3018,3.3056,3.3081,3.3081,3.3608,3.3859,3.3884,3.4964,3.573,3.6257,3.681,3.7061,3.7061,3.7023,3.6132,3.4713,3.4625,3.3658,3.219,3.1587,3.1047,3.0545,2.9955,2.9741,2.9643,2.8917,2.9465,3.0349,2.9737,2.9735,3.0131,3.1198,3.1926,3.2855,3.5002,3.6408,3.7525,3.8605,3.9697,4.0526,4.0551,4.0965,4.1329,4.1304,4.0814,4.0375,4.0312,3.9898,3.9584,3.9647,3.9722,4.0162,4.1229,4.0501,4.0224,4.1229,4.0902,4.0388,3.9835,4.0249,4.0777,4.1304,4.1819,4.1656,4.0614,4.0563,4.0287,3.971,3.9697,3.9697,3.9697,3.9697,3.9697,3.9685,3.9132,3.858,3.804,3.745,3.6897,3.6408,3.637,3.6069,3.5592,3.5592,3.4951,3.3985,3.3947,3.3608,3.3119,3.3081,3.3081,3.3006,0.0,0.0,0.0,0.0,0.0,0.0,0.0,0.0,0.0,0.0,0.0,0.0,0.0,0.0,0.0,0.0,0.0,0.0,2.7457,2.8147,2.9026,3.0156,3.1097,3.1863,3.2416,3.2855,3.3081,3.3081,3.3219,3.3282,3.3307,3.3997,3.4387,3.455,3.5102,3.5353,3.5328,3.4914,3.4738,3.4613,3.3357,3.2855,3.2704,3.1336,3.0733,3.0482,2.9503,2.9151,2.9277,3.0168,3.0995,3.1517,3.106,3.1183,3.1813,3.293,3.3947,3.4914,3.5893,3.7274,3.8504,3.8793,3.9697,4.0626,4.1028,4.1241,4.1229,4.0814,3.9622,3.8404,3.76,3.7663,3.8103,3.8944,4.0111,4.1166,4.1856,4.2057,4.1944,4.1404,4.158,4.1517,4.0978,4.104,4.1191,4.1329,4.1467,4.143,4.1141,4.1128,4.0689,3.9722,3.9697,3.9697,3.9697,3.9697,3.9697,3.9685,3.9132,3.8793,3.8617,3.7626,3.7111,3.6948,3.6533,3.6282,3.6157,3.6157,3.5742,3.509,3.4675,3.4173,3.3633,3.3232,3.3081,3.3056,0.0,0.0,0.0,0.0,0.0,0.0,0.0,0.0,0.0,0.0,0.0,0.0,0.0,0.0,0.0,0.0,0.0,0.0,0.0,2.7795,2.8398,2.9026,3.0105,3.0708,3.0771,3.1336,3.1399,3.0896,3.1399,3.1512,3.1286,3.2315,3.2792,3.2842,3.3646,3.3997,3.3985,3.3671,3.3432,0.0,0.0,3.1763,3.1537,3.0608,3.0256,3.0168,2.9541,2.9465,2.9819,3.0945,3.1332,3.1512,3.1953,3.2503,3.3219,3.46,3.5604,3.6496,3.7538,3.8693,3.9597,3.9597,4.0237,4.0764,4.035,4.0438,4.0325,3.927,3.8115,3.7023,3.6182,3.6458,3.7111,3.799,3.932,4.0614,4.1656,4.1856,4.1844,4.1706,4.1969,4.1932,4.1392,4.1555,4.1605,4.1354,4.1342,4.1229,4.099,4.1204,4.084,3.9722,3.9936,3.9936,3.9697,3.9697,3.9697,3.9697,3.9383,3.8969,3.8467,3.7826,3.7274,3.681,3.6496,3.6358,3.6358,3.6358,3.6031,3.5516,3.5203,3.4751,3.4198,3.3646,3.3432,3.3407,0.0,0.0,0.0,0.0,0.0,0.0,0.0,0.0,0.0,0.0,0.0,0.0,0.0,0.0,0.0,0.0,0.0,0.0,0.0,0.0,2.8134,2.821,2.9151,2.9453,2.8938,2.9415,2.9164,2.8109,2.9089,2.9315,2.885,3.0281,3.0947,3.0997,3.1976,3.2416,3.2416,3.2416,3.1901,3.1072,3.1072,3.0557,2.9792,0.0,2.9792,2.9792,2.9792,3.0093,3.0608,3.1273,3.1298,3.1323,3.2905,3.3834,3.4663,3.6358,3.7161,3.7864,3.9471,4.0262,4.0614,4.0538,4.0877,4.0814,3.9233,3.9182,3.9019,3.74,3.6571,3.5968,3.5429,3.5768,3.637,3.7073,3.814,3.9471,4.1204,4.104,4.1116,4.2145,4.2258,4.2045,4.1505,4.1806,4.1844,4.1379,4.1204,4.094,4.0538,4.0965,4.0752,3.9722,4.0162,4.0174,3.9697,3.9697,3.9697,3.9697,3.9622,3.9069,3.8115,3.7965,3.7374,3.6471,3.6395,3.6358,3.6358,3.6358,3.6081,3.5642,3.5567,3.5253,3.4751,3.4123,3.3897,3.3822,0.0,0.0,0.0,0.0,0.0,0.0,0.0,0.0,0.0,0.0,2.5398,2.5674,0.0,0.0,0.0,0.0,0.0,0.0,0.0,0.0,0.0,2.8762,2.8976,2.9038,2.8925,2.9026,2.8762,2.8109,2.8298,2.8348,2.826,2.8549,2.8674,2.8687,2.8875,2.8963,2.8963,2.8963,2.9114,2.9352,2.9352,2.9528,2.9792,2.9792,0.0,0.0,2.9792,2.9854,3.0156,3.1587,3.2629,3.3545,3.4738,3.5805,3.6948,3.863,3.9182,3.9521,4.0727,4.1128,4.1078,4.0626,4.0588,4.0337,3.9145,3.858,3.7952,3.6747,3.5705,3.4839,3.4286,3.4638,3.5479,3.6948,3.814,3.9609,4.1718,4.1932,4.2108,4.276,4.2836,4.2622,4.207,4.1693,4.1442,4.1354,4.0488,4.0136,4.0501,4.0614,4.0362,3.971,3.9785,3.9785,3.9697,3.9697,3.9697,3.9685,3.9233,3.8906,3.8693,3.7751,3.7224,3.7023,3.6558,3.6358,3.6358,3.6358,3.6307,3.6169,3.5717,3.5399,3.5278,3.4274,3.3897,3.3822,0.0,0.0,0.0,0.0,0.0,0.0,0.0,2.4243,2.482,2.59,2.6289,2.6578,2.6854,2.7381,2.7934,0.0,0.0,0.0,0.0,0.0,0.0,0.0,2.8775,2.8662,2.8084,2.8348,2.8084,2.7256,0.0,2.7532,2.7256,2.7544,2.767,2.7695,2.8451,2.8782,2.8782,2.8782,2.9104,2.9558,2.9063,2.9277,2.9792,0.0,0.0,0.0,2.9792,2.998,3.0382,3.1436,3.2918,3.4575,3.5968,3.7161,3.8278,3.9371,3.9898,4.03,4.1116,4.1543,4.163,4.1078,4.0727,3.9998,3.8015,3.7136,3.6332,3.4939,3.4236,3.3784,3.352,3.4161,3.5077,3.6157,3.7262,3.8768,4.099,4.1304,4.1718,4.2848,4.2974,4.276,4.2208,4.1919,4.153,4.0953,4.0425,4.0237,4.0501,4.0249,4.0099,4.0124,3.9848,3.9697,3.9697,3.9697,3.9697,3.9685,3.9132,3.8718,3.8391,3.7563,3.7023,3.6734,3.6471,3.6358,3.6358,3.6358,3.6358,3.6332,3.6069,3.5805,3.5441,3.4625,3.4148,3.3822,0.0,0.0,0.0,0.0,0.0,0.0,0.0,2.4544,2.5259,2.6477,2.7118,2.7507,2.762,2.8021,2.8499,0.0,0.0,0.0,0.0,0.0,0.0,0.0,0.0,0.0,2.7306,0.0,0.0,2.6697,2.7067,0.0,0.0,0.0,0.0,0.0,2.849,2.9035,2.8828,2.8828,2.9236,0.0,0.0,2.9164,2.9792,0.0,0.0,0.0,0.0,3.0068,3.0532,3.1173,3.2641,3.4449,3.5994,3.7575,3.8931,3.9245,3.9973,4.0814,4.1367,4.1831,4.2032,4.148,4.0752,3.9496,3.6948,3.5768,3.4788,3.337,3.298,3.293,3.3056,3.3784,3.4587,3.5253,3.6194,3.7613,3.9848,4.0375,4.1091,4.2622,4.2798,4.2585,4.2032,4.1869,4.1404,4.0413,4.0337,4.0337,4.0337,3.9936,3.9885,4.0325,3.9923,3.9697,3.9697,3.9697,3.9697,3.9685,3.9007,3.8442,3.799,3.7312,3.6772,3.6358,3.6358,3.6358,3.6358,3.6358,3.6358,3.6358,3.6232,3.5931,3.5466,3.4801,3.4274,3.3822,0.0,0.0,0.0,0.0,0.0,0.0,0.0,2.4795,2.5398,2.6992,2.7682,2.8222,2.8725,2.8825,2.9089,0.0,0.0,0.0,0.0,0.0,0.0,0.0,0.0,0.0,0.0,0.0,0.0,2.7205,2.7256,0.0,0.0,0.0,0.0,0.0,0.0,2.7714,2.6947,2.6947,0.0,0.0,0.0,0.0,0.0,0.0,0.0,0.0,0.0,2.9829,3.003,3.1047,3.1863,3.2654,3.3834,3.6345,3.8781,3.8304,3.9634,4.1379,4.1932,4.212,4.2032,4.148,4.0174,3.8567,3.6797,3.5177,3.3872,3.3206,3.2654,3.2453,3.298,3.3156,3.3571,3.4625,3.5303,3.6471,3.8718,3.9885,4.094,4.2095,4.2233,4.202,4.1467,4.0965,4.0413,3.9823,3.9772,3.9772,3.9772,3.9722,3.9722,3.9772,3.9722,3.9697,3.9697,3.9697,3.9697,3.9685,3.8605,3.8052,3.7977,3.6923,3.6408,3.6358,3.6358,3.6358,3.6358,3.6358,3.6358,3.632,3.5818,3.5592,3.5416,3.4361,3.3935,3.3822,0.0,0.0,0.0,0.0,0.0,0.0,2.4657,2.482,2.5536,2.7519,2.7971,2.8448,2.9352,2.9453,2.9541,2.9779,0.0,0.0,0.0,0.0,0.0,0.0,0.0,0.0,0.0,0.0,2.7507,2.7281,2.7607,0.0,0.0,0.0,0.0,0.0,0.0,2.7422,2.7596,2.7043,0.0,0.0,0.0,0.0,0.0,0.0,0.0,0.0,0.0,0.0,2.9867,3.0281,3.0997,3.1687,3.1486,3.347,3.6094,3.7186,3.8856,4.0475,4.1015,4.1656,4.1944,4.1065,3.9584,3.8002,3.6709,3.4851,3.3345,3.3119,3.2616,3.239,3.2968,3.3081,3.3219,3.3658,3.3922,3.4713,3.6609,3.7525,3.8793,4.0915,4.1166,4.1216,4.1329,4.084,4.0287,3.9735,3.9697,3.9697,3.9697,3.9697,3.9697,3.9697,3.9697,3.9697,3.9697,3.9697,3.9697,3.9685,3.8542,3.8002,3.7965,3.686,3.6358,3.6358,3.6358,3.6358,3.6332,3.6006,3.5868,3.5818,3.5265,3.4851,3.45,3.406,3.3684,3.337,0.0,0.0,0.0,0.0,0.0,2.3453,2.4657,2.482,2.5611,2.7821,2.8109,2.8536,2.9666,2.9792,2.9792,2.9792,2.9415,0.0,0.0,0.0,0.0,0.0,0.0,0.0,0.0,0.0,2.7607,2.777,2.816,2.8348,0.0,0.0,2.8029,2.8131,0.0,0.0,0.0,0.0,0.0,0.0,0.0,0.0,0.0,0.0,0.0,0.0,0.0,0.0,0.0,0.0,0.0,3.0783,3.003,3.1235,3.3332,3.5366,3.75,3.932,3.9885,4.0827,4.1455,4.0501,3.9007,3.7487,3.6395,3.4562,3.3081,3.3081,3.2616,3.234,3.2754,3.2968,3.3018,3.2855,3.3232,3.3972,3.514,3.6194,3.7575,3.9534,3.9923,4.0249,4.0802,4.0501,4.0111,3.9722,3.9697,3.9697,3.9697,3.9697,3.9697,3.9697,3.9697,3.9697,3.9697,3.9697,3.9697,3.9685,3.8542,3.8002,3.7965,3.686,3.6358,3.6358,3.6358,3.6358,3.632,3.5768,3.5542,3.5466,3.4751,3.4248,3.3884,3.3721,3.3407,3.3081,0.0,0.0,0.0,0.0,0.0,0.0,2.4657,2.482,2.5611,2.7821,2.8109,2.8536,2.9666,2.9792,2.9792,2.9792,2.9779,0.0,0.0,0.0,0.0,0.0,0.0,0.0,0.0,0.0,2.836,2.8913,2.8925,2.8925,2.8913,2.9243,2.8672,2.7397,0.0,0.0,0.0,0.0,0.0,0.0,0.0,0.0,0.0,0.0,0.0,0.0,0.0,0.0,0.0,0.0,0.0,0.0,0.0,3.0181,3.0972,3.2629,3.5454,3.8153,3.873,3.9697,4.04,3.9835,3.8442,3.691,3.5805,3.4274,3.3081,3.3081,3.2616,3.2215,3.2227,3.2692,3.288,3.2315,3.3621,3.4713,3.4726,3.6609,3.8002,3.8027,3.8542,3.9107,3.9659,3.9697,3.9697,3.9697,3.9697,3.9697,3.9697,3.9697,3.9697,3.9697,3.9697,3.9697,3.9697,3.9697,3.9697,3.9685,3.8542,3.8002,3.7965,3.686,3.6358,3.6358,3.6358,3.6358,3.632,3.5768,3.5542,3.5349,3.4336,3.3909,3.3834,3.3282,3.3081,3.3081,0.0,0.0,0.0,0.0,0.0,0.0,0.0,2.4582,2.5347,2.6791,2.7306,2.7971,2.9089,2.9202,2.9365,2.9754,2.9428,0.0,0.0,0.0,0.0,0.0,0.0,0.0,0.0,0.0,2.7821,2.836,2.836,2.8762,2.9503,2.8832,2.8754,2.923,2.7812,2.73,0.0,0.0,0.0,0.0,0.0,0.0,2.9792,0.0,0.0,0.0,0.0,0.0,0.0,0.0,0.0,0.0,0.0,0.0,0.0,3.1135,3.347,3.5881,3.6445,3.7136,3.755,3.6998,3.5604,3.4286,3.3935,3.2579,3.1499,3.1851,3.1499,3.1235,3.1587,3.2102,3.2554,3.2767,3.3571,3.4299,3.4675,3.5968,3.7161,3.7914,3.9182,3.9923,3.971,3.9697,3.9697,3.9697,3.9697,3.9697,3.9697,3.9697,3.9697,3.9697,3.9697,3.9697,3.9697,3.9697,3.9697,3.9685,3.8542,3.8002,3.7965,3.686,3.6358,3.6358,3.6358,3.6157,3.5755,3.5203,3.4763,3.4349,3.3621,3.3332,3.3319,3.3144,3.283,3.2491,0.0,0.0,0.0,0.0,0.0,0.0,0.0,2.4293,2.4983,2.6289,2.6753,2.7469,2.8787,2.8925,2.9164,2.9741,2.9465,0.0,0.0,0.0,0.0,0.0,0.0,0.0,0.0,2.7218,2.7657,2.8411,2.8411,2.8775,2.9453,2.8976,2.9086,2.9641,2.8122,2.7538,0.0,0.0,0.0,0.0,0.0,0.0,2.9792,0.0,0.0,0.0,0.0,0.0,0.0,0.0,0.0,0.0,0.0,0.0,0.0,0.0,3.1662,3.3382,3.4349,3.5165,3.5604,3.5064,3.3985,3.3018,3.2805,3.18,3.0997,3.1323,3.1135,3.0997,3.1336,3.1838,3.2328,3.2692,3.3395,3.4022,3.4361,3.5542,3.6772,3.7877,3.912,3.976,3.9421,3.9572,3.9697,3.9697,3.9697,3.9697,3.9697,3.9697,3.9697,3.9697,3.9697,3.9697,3.9697,3.9697,3.9697,3.9685,3.8542,3.8002,3.7965,3.686,3.6358,3.6358,3.6358,3.6056,0.0,3.4951,3.4399,3.3847,3.3294,3.3081,3.3081,3.3081,3.2717,3.2215,0.0,0.0,0.0,0.0,0.0,0.0,0.0,2.4029,2.4607,2.6219,2.6483,2.7055,2.8637,2.885,2.9101,2.9679,0.0,0.0,0.0,0.0,0.0,0.0,0.0,0.0,2.7959,2.7519,2.7808,2.8875,2.8825,2.885,2.8938,2.9402,2.9365,2.8925,2.8888,2.8612,0.0,0.0,0.0,0.0,0.0,0.0,0.0,0.0,0.0,0.0,0.0,0.0,0.0,0.0,0.0,0.0,0.0,0.0,0.0,0.0,0.0,0.0,0.0,3.3621,3.4311,3.3796,3.3257,3.2704,3.2164,3.1637,0.0,3.1273,3.1273,3.1286,3.1336,3.1788,3.2177,3.2265,3.3194,3.3922,3.401,3.5441,3.6872,3.7939,3.858,3.8906,3.8868,3.9371,3.9697,3.9697,3.9697,3.9697,3.9697,3.9697,3.9697,3.9697,3.9697,3.9697,3.9697,3.9647,3.9634,3.9622,3.8492,3.7952,3.7914,3.6847,3.6345,3.6307,3.6345,3.6006,3.5391,3.4914,3.4374,3.3796,3.3269,3.3081,3.3068,3.3031,3.2654,3.2152,0.0,0.0,0.0,0.0,0.0,0.0,0.0,0.0,0.0,0.0,2.5937,2.6766,2.7582,2.8047,2.8524,0.0,0.0,0.0,0.0,0.0,0.0,0.0,0.0,0.0,2.6841,2.713,2.762,2.8298,2.7871,2.8097,2.8913,2.821,2.8247,2.8913,2.8486,2.8461,0.0,0.0,0.0,0.0,0.0,0.0,0.0,0.0,0.0,0.0,2.9792,2.9792,0.0,0.0,0.0,0.0,0.0,0.0,0.0,0.0,2.988,3.0068,3.0457,0.0,3.1549,3.1424,3.0972,3.0532,0.0,3.0269,3.0168,3.0168,3.0168,3.0294,3.0721,3.1235,3.1863,3.2729,3.3458,3.4198,3.5039,3.6584,3.7877,3.858,3.917,3.9333,3.8906,3.9371,3.9697,3.9697,3.9697,3.9697,3.9697,3.9697,3.9697,3.9697,3.9697,3.9697,3.9697,3.927,3.9069,3.9044,3.7914,3.7374,3.7362,3.6671,3.6132,3.5768,3.6182,3.5567,3.4311,3.46,3.4148,3.3257,3.3131,3.3081,3.3018,3.2579,3.2064,3.1524,0.0,0.0,0.0,0.0,0.0,0.0,0.0,0.0,0.0,0.0,0.0,0.0,0.0,0.0,0.0,0.0,0.0,0.0,0.0,0.0,0.0,0.0,0.0,2.6954,2.7205,2.7017,2.7306,2.8109,2.7557,2.7595,2.816,2.7821,2.8109,2.8925,2.89,2.9051,0.0,0.0,0.0,0.0,2.9792,0.0,0.0,0.0,0.0,0.0,2.9792,2.9792,0.0,2.9792,2.9792,2.9792,0.0,0.0,0.0,0.0,2.9792,2.9792,2.9792,3.0005,3.0231,3.0231,3.0018,2.9792,2.9792,2.9792,2.9792,2.9792,2.9792,2.9955,3.052,3.1035,3.1675,3.2541,3.337,3.4374,3.573,3.691,3.7939,3.8768,3.9132,3.9295,3.9245,3.9521,3.9697,3.9697,3.9697,3.9697,3.9697,3.9697,3.9697,3.9697,3.9697,3.9697,3.9697,3.9145,3.8868,3.8856,3.7726,3.7186,3.7161,3.6609,3.6056,3.5567,3.6119,3.5429,3.3935,3.45,3.4073,3.3081,3.3081,3.3081,3.3043,3.2717,3.2252,3.1687,0.0,0.0,0.0,0.0,0.0,0.0,0.0,0.0,0.0,0.0,0.0,0.0,0.0,0.0,0.0,0.0,0.0,0.0,0.0,0.0,0.0,0.0,0.0,2.7457,2.7846,2.7017,2.708,2.8109,2.7557,2.7318,2.7419,2.7795,2.8323,2.895,2.944,2.9704,0.0,0.0,0.0,0.0,2.9792,0.0,0.0,0.0,0.0,0.0,0.0,0.0,0.0,2.9628,2.9666,2.9666,2.9666,0.0,0.0,0.0,0.0,0.0,2.9792,2.9792,2.9792,2.9792,2.9792,2.9792,2.9792,2.9792,2.9792,2.9792,2.9792,2.998,3.062,3.116,3.1725,3.2365,3.3495,3.4826,3.6395,3.7086,3.7801,3.8755,3.8944,3.9145,3.9534,3.9647,3.9697,3.9697,3.9622,3.9572,3.9572,3.9484,3.9433,3.9433,3.9433,3.9433,3.9433,3.8969,3.8693,3.8605,3.7563,3.701,3.6923,3.6445,3.5893,3.5328,3.5868,3.5228,3.3822,3.4374,3.3947,3.2943,3.2943,3.2893,3.2817,3.2817,3.2466,3.1888,0.0,0.0,0.0,0.0,0.0,0.0,0.0,0.0,0.0,0.0,0.0,0.0,0.0,0.0,0.0,0.0,0.0,0.0,0.0,0.0,0.0,2.8034,2.7532,2.7105,2.6716,2.7005,2.7469,2.8109,2.7557,2.7519,2.7971,2.7595,2.7946,2.8925,2.9026,2.934,2.9792,0.0,0.0,0.0,2.9792,0.0,0.0,0.0,0.0,0.0,0.0,0.0,0.0,2.89,2.9063,2.9063,2.9063,0.0,0.0,0.0,0.0,0.0,2.9792,2.9792,2.9792,2.9792,2.9792,2.9792,2.9792,2.9792,2.9792,2.9792,2.9792,3.0093,3.1085,3.1725,3.2428,3.347,3.4977,3.6433,3.7588,3.8253,3.868,3.8856,3.9283,3.9421,3.9032,3.9421,3.9697,3.9697,3.9258,3.8994,3.8994,3.853,3.8266,3.8266,3.8266,3.8266,3.8266,3.8178,3.7902,3.7437,3.6784,3.6245,3.5793,3.5717,3.5115,3.4186,3.4738,3.4299,3.3244,3.3796,3.3357,3.234,3.234,3.2064,3.165,3.165,3.1311,3.0783,0.0,0.0,0.0,0.0,0.0,0.0,0.0,0.0,0.0,0.0,0.0,0.0,0.0,0.0,0.0,0.0,0.0,0.0,0.0,0.0,2.8963,2.8147,2.7858,2.7469,2.6917,2.6866,2.7105,2.7657,2.7181,2.6888,2.6753,2.7118,2.7871,2.8938,2.9252,2.9541,2.9792,2.9792,2.9792,0.0,0.0,0.0,0.0,0.0,0.0,0.0,0.0,0.0,0.0,0.0,2.8486,2.8486,2.8486,0.0,0.0,0.0,0.0,0.0,2.9704,2.9792,2.9792,2.9792,2.9792,2.9792,2.9792,2.9792,2.988,3.0181,3.0231,3.057,3.1637,3.2541,3.3684,3.5391,3.632,3.7111,3.7902,3.8241,3.8517,3.8831,3.9094,3.927,3.932,3.9546,3.9572,3.927,3.9007,3.873,3.8417,3.8153,3.8002,3.8002,3.8002,3.7864,3.7563,3.7563,3.7425,3.7174,3.6621,3.6069,3.5542,3.5542,3.4939,3.3935,3.4487,3.3922,3.2654,3.3219,3.2792,3.1763,3.1763,3.1612,3.1386,3.1386,3.106,3.0583,0.0,0.0,0.0,0.0,0.0,0.0,0.0,0.0,0.0,0.0,0.0,0.0,0.0,0.0,0.0,0.0,0.0,0.0,0.0,0.0,2.8624,2.7946,2.8034,2.7855,2.743,2.6871,2.6914,2.767,2.7078,2.6517,2.6067,2.7138,2.8062,2.895,2.939,2.9666,2.9792,2.9792,2.9792,0.0,0.0,0.0,0.0,0.0,0.0,0.0,0.0,0.0,0.0,0.0,0.0,0.0,0.0,0.0,0.0,2.8612,2.8825,2.9026,2.9465,2.9691,2.9792,2.9792,2.9792,2.9829,2.9955,2.998,3.0181,3.0859,3.0884,3.1122,3.2215,3.3445,3.4964,3.7036,3.75,3.7776,3.8316,3.8404,3.8567,3.9007,3.9057,3.9233,3.9647,3.9697,3.9471,3.8906,3.8743,3.8417,3.7839,3.7688,3.7626,3.7626,3.7626,3.7425,3.6998,3.6998,3.6998,3.6985,3.6433,3.5881,3.5353,3.5215,3.4625,3.3734,3.4161,3.3608,3.2441,3.2754,3.229,3.1386,3.1248,3.121,3.1198,3.106,3.0846,3.062,0.0,0.0,0.0,0.0,0.0,0.0,0.0,0.0,0.0,0.0,0.0,0.0,0.0,0.0,0.0,0.0,0.0,0.0,0.0,0.0,2.8448,2.7394,2.7833,2.7939,2.7696,2.7013,2.7362,2.8698,2.7557,2.7139,2.7498,2.8075,2.8582,2.8925,2.8976,2.9289,2.9792,2.9792,2.9792,2.9792,0.0,0.0,0.0,0.0,0.0,0.0,0.0,0.0,0.0,0.0,0.0,0.0,0.0,0.0,2.8109,2.816,2.8524,2.8938,2.8976,2.939,2.9792,2.9792,2.9792,2.993,3.0444,3.0557,3.0859,3.1888,3.1687,3.1675,3.2805,3.4336,3.5981,3.7663,3.8391,3.8944,3.9496,3.9572,3.9584,3.9634,3.9634,3.9647,3.9697,3.9697,3.9471,3.8906,3.8366,3.7826,3.7274,3.6759,3.6483,3.6483,3.6483,3.6458,3.642,3.642,3.642,3.6408,3.5868,3.5316,3.4763,3.4248,3.3696,3.3131,3.3181,3.3131,3.298,3.2478,3.1926,3.1336,3.0859,3.067,3.0608,3.0093,3.0206,3.062,0.0,0.0,0.0,0.0,0.0,0.0,0.0,0.0,0.0,0.0,0.0,0.0,0.0,0.0,0.0,0.0,0.0,0.0,0.0,2.7595,2.772,2.7306,2.7998,2.8392,2.8519,2.7322,2.7,2.7707,2.734,2.7496,2.8325,2.8411,2.864,2.895,2.9302,2.9202,2.8787,2.9503,2.9578,2.9289,2.9641,0.0,0.0,0.0,0.0,0.0,0.0,0.0,0.0,0.0,2.6766,2.6766,2.6766,2.6917,2.7155,2.7494,2.7745,2.7984,2.8323,2.8825,2.9252,2.9252,2.9528,2.9942,3.0495,3.0871,3.1311,3.2051,3.2604,3.3294,3.4412,3.5403,3.6483,3.7789,3.8492,3.9057,3.9622,3.9697,3.9697,3.9697,3.9697,3.9559,3.922,3.9182,3.8806,3.7889,3.7613,3.7262,3.6697,3.6471,3.6358,3.6358,3.6358,3.6358,3.6358,3.6358,3.6194,3.5855,3.5642,3.5253,3.47,3.4148,3.3596,3.3081,3.3081,3.2679,3.2014,3.1788,3.1185,3.0382,3.0181,3.0105,3.008,2.9867,3.0143,3.062,0.0,0.0,0.0,0.0,0.0,0.0,0.0,0.0,0.0,0.0,0.0,0.0,0.0,0.0,0.0,0.0,0.0,0.0,2.6163,2.6879,2.7281,2.7281,2.8045,2.8612,2.8925,2.783,2.7399,2.7824,2.7896,2.8138,2.8488,2.8919,2.8908,2.8448,2.9189,2.9001,2.816,2.8925,2.9026,2.8712,2.9289,2.9515,0.0,0.0,0.0,0.0,0.0,0.0,0.0,0.0,2.6533,2.6533,2.6533,2.6533,2.6596,2.6917,2.7143,2.7369,2.7745,2.8373,2.8925,2.8925,2.949,3.0193,3.0733,3.1273,3.1913,3.2817,3.3621,3.4399,3.5152,3.573,3.6408,3.7337,3.8115,3.873,3.9107,3.9157,3.9157,3.9157,3.9157,3.9019,3.863,3.8592,3.8203,3.7249,3.7186,3.6948,3.6395,3.6358,3.6358,3.6358,3.6358,3.6282,3.6107,3.6107,3.583,3.529,3.5115,3.4826,3.4449,3.3884,3.3432,3.3081,3.3081,3.2528,3.1637,3.1461,3.0758,2.9792,2.9792,2.9792,2.9792,2.9792,3.003,3.0382,0.0,0.0,0.0,0.0,0.0,0.0,0.0,0.0,0.0,0.0,0.0,0.0,0.0,0.0,0.0,0.0,0.0,0.0,2.5598,2.664,2.7268,2.7268,2.8101,2.8599,2.8784,2.8488,2.8764,2.9564,2.9579,2.907,2.8023,2.9759,2.9411,2.7318,2.8423,2.8612,2.8084,2.8097,2.8097,2.8147,2.8699,2.8925,2.8875,0.0,0.0,0.0,0.0,0.0,0.0,0.0,2.6533,2.6533,2.6533,2.6533,2.6533,2.6533,2.6854,2.7281,2.7268,2.8072,2.8913,2.8925,2.9767,3.0746,3.1273,3.1813,3.2692,3.4374,3.4726,3.4726,3.4726,3.5177,3.573,3.627,3.7287,3.8002,3.8002,3.8002,3.8002,3.8002,3.8002,3.8002,3.8002,3.8002,3.7764,3.7211,3.7174,3.6935,3.6383,3.6358,3.6358,3.6345,3.6345,3.6081,3.5542,3.5449,3.5253,3.4713,3.4161,3.3884,3.3872,3.3319,3.3068,3.3056,3.3068,3.2742,3.2152,3.1599,3.0746,2.9792,2.9792,2.9792,2.9792,2.9792,2.9792,2.988,0.0,0.0,0.0,0.0,0.0,0.0,0.0,0.0,0.0,0.0,0.0,0.0,0.0,0.0,0.0,0.0,0.0,0.0,2.5573,2.5912,2.6276,2.6691,2.8558,2.9608,2.9624,3.0678,3.0175,2.7981,2.904,2.8929,2.7746,2.9329,2.8866,2.6753,2.7858,2.7952,2.7271,2.7881,2.8206,2.8438,2.8746,2.8925,2.8913,0.0,0.0,0.0,0.0,0.0,0.0,0.0,0.0,0.0,2.6533,2.6798,2.6967,2.6647,2.6854,2.7205,2.6804,2.7218,2.7871,2.8247,2.9202,3.0281,3.1185,3.1813,3.2692,3.4374,3.4726,3.4839,3.5228,3.5349,3.573,3.627,3.696,3.7563,3.7952,3.8002,3.8002,3.8002,3.8002,3.7852,3.7462,3.7425,3.7199,3.6646,3.6609,3.6358,3.5818,3.5793,3.5604,3.5228,3.5203,3.5127,3.4964,3.4964,3.4688,3.4135,3.3583,3.3319,3.3319,3.3156,3.2641,3.1913,3.2303,3.1951,3.1047,3.0495,3.008,2.9792,2.9792,2.9792,2.9792,2.9792,3.0043,3.0394,0.0,0.0,0.0,0.0,0.0,0.0,0.0,0.0,0.0,0.0,0.0,0.0,0.0,0.0,0.0,0.0,0.0,0.0,0.0,2.5485,2.5984,2.6947,2.893,3.0289,3.1002,3.1987,3.1279,2.8828,2.9549,2.9397,2.8596,2.8835,2.7934,2.6219,2.7138,2.713,2.6427,2.7203,2.7631,2.7717,2.8113,2.8273,2.8273,0.0,0.0,0.0,0.0,0.0,0.0,0.0,0.0,0.0,2.6596,2.6691,2.6892,2.6553,2.6703,2.6879,2.6622,2.7017,2.7695,2.8021,2.9277,3.0658,3.1524,3.2491,3.3558,3.4801,3.4876,3.4826,3.5152,3.5039,3.5064,3.5617,3.6169,3.6722,3.7274,3.7349,3.7274,3.7061,3.7036,3.6897,3.6558,3.6533,3.6483,3.637,3.6358,3.6219,3.5893,3.5667,3.5391,3.5064,3.4839,3.4613,3.4399,3.4399,3.4123,3.3571,3.3006,3.2616,3.2403,3.2403,3.2026,3.1399,3.1524,3.121,3.057,3.0018,2.9792,2.9869,3.0216,3.0139,2.9869,3.0203,3.0355,3.0281,0.0,0.0,0.0,0.0,0.0,0.0,0.0,0.0,0.0,0.0,0.0,0.0,0.0,0.0,0.0,0.0,0.0,0.0,0.0,0.0,2.6306,2.7644,2.9302,3.092,3.2511,3.2691,3.2315,3.1435,3.0646,3.014,2.9821,2.8331,2.6894,2.5589,2.6207,2.6168,2.5633,2.6233,2.6517,2.6488,2.6974,2.713,2.713,2.7193,0.0,0.0,0.0,0.0,0.0,0.0,0.0,0.0,2.6747,2.6596,2.6596,2.6546,2.6559,2.6596,2.6596,2.7268,2.8059,2.816,2.9767,3.1461,3.2014,3.3407,3.4713,3.5215,3.5002,3.4726,3.4726,3.4311,3.4135,3.4638,3.514,3.5642,3.6144,3.6219,3.6019,3.5529,3.5466,3.5466,3.5466,3.5466,3.568,3.6169,3.6219,3.6182,3.6132,3.5667,3.5366,3.5316,3.4839,3.4336,3.3822,3.3771,3.3495,3.2993,3.2365,3.18,3.1323,3.1361,3.1361,3.1286,3.0771,3.0545,3.0507,2.9993,2.9869,2.9998,3.0833,3.0696,2.9998,3.0908,3.0633,2.9792,0.0,0.0,0.0,0.0,0.0,0.0,0.0,0.0,0.0,0.0,0.0,0.0,0.0,0.0,0.0,0.0,0.0,0.0,0.0,0.0,2.7068,2.763,3.0092,3.1878,3.2927,3.4179,3.4274,3.3015,3.1197,2.9827,2.896,2.7669,2.6311,2.4996,2.5178,2.5268,2.5275,2.5205,2.5602,2.619,2.5991,2.5963,2.6013,2.6465,2.664,0.0,0.0,0.0,0.0,0.0,0.0,0.0,2.7005,2.7105,2.7017,2.6647,2.6766,2.7105,2.7105,2.7281,2.767,2.8536,2.9779,3.0922,3.1449,3.2528,3.347,3.3583,3.4198,3.4726,3.4726,3.4625,3.4587,3.47,3.4826,3.4939,3.5064,3.5077,3.5027,3.4914,3.4901,3.4901,3.4901,3.4901,3.4951,3.5064,3.5077,3.4889,3.4449,3.4311,3.406,3.3621,3.3495,3.337,3.3257,3.2805,3.2516,3.239,3.1424,3.0896,3.0796,3.1198,3.1173,3.0758,3.0206,2.9967,2.9955,2.9842,3.0203,3.0895,3.1106,3.1106,3.0895,3.1106,3.0633,2.9792,0.0,0.0,0.0,0.0,0.0,0.0,0.0,0.0,0.0,0.0,0.0,0.0,0.0,0.0,0.0,0.0,0.0,0.0,0.0,0.0,2.7363,2.9133,3.1263,3.2839,3.3739,3.456,3.4517,3.3499,3.1623,3.0472,2.9845,2.7846,2.6707,2.6403,2.5726,2.5754,2.6121,2.5646,2.5695,2.5959,2.5408,2.5372,2.5598,2.5649,2.5837,2.605,2.605,0.0,0.0,0.0,0.0,0.0,0.0,0.0,2.6829,2.6609,2.6854,2.7281,2.7281,2.767,2.8335,2.9453,3.0181,3.0758,3.1273,3.1851,3.2265,3.2265,3.337,3.4324,3.4324,3.411,3.4022,3.4286,3.4324,3.4424,3.4675,3.4726,3.4625,3.4361,3.4324,3.4324,3.4324,3.4324,3.4437,3.47,3.4474,3.4324,3.4299,3.3796,3.337,3.3081,3.2805,3.2541,3.2277,3.1964,3.1813,3.1813,3.1009,3.0482,3.0231,3.0507,3.0482,3.0206,2.9917,2.9792,2.9792,2.9792,3.0075,3.0558,3.1044,3.0895,3.0558,3.1044,3.0633,2.9792,0.0,0.0,0.0,0.0,0.0,0.0,0.0,0.0,0.0,0.0,0.0,0.0,0.0,0.0,0.0,0.0,0.0,0.0,0.0,0.0,0.0,3.0567,3.2097,3.3252,3.3982,3.433,3.4038,3.3155,3.1863,3.1145,3.0816,2.8121,2.7306,2.7958,2.6499,2.6226,2.6862,2.6004,2.566,2.5555,2.4823,2.4845,2.5259,2.4732,2.4921,2.5448,2.5347,2.5686,2.6214,2.6402,0.0,0.0,0.0,0.0,2.6672,2.6672,2.6992,2.7444,2.7544,2.831,2.9302,3.0244,3.047,3.0583,3.1022,3.1185,3.1248,3.1248,3.2503,3.3608,3.3608,3.3232,3.3106,3.3671,3.3596,3.3658,3.4211,3.4211,3.401,3.3658,3.3608,3.3646,3.3746,3.3759,3.3947,3.4399,3.3922,3.3897,3.4515,3.3419,3.2865,3.3022,3.2399,3.1851,3.1399,3.1298,3.1248,3.1248,3.0721,3.0231,2.9792,2.9792,2.9792,2.9792,2.9792,2.9792,2.9792,2.9792,2.9856,3.0139,3.0895,3.0696,3.0139,3.0895,3.0633,2.9792,0.0,0.0,0.0,0.0,0.0,0.0,0.0,0.0,0.0,0.0,0.0,0.0,0.0,0.0,0.0,0.0,0.0,0.0,2.7353,0.0,0.0,2.9595,3.1116,3.1985,3.1971,3.3644,3.3589,3.1794,3.1573,3.0808,2.9504,2.774,2.7042,2.723,2.521,2.4807,2.552,2.4132,2.3922,2.4458,2.3653,2.3703,2.4155,2.3577,2.4017,2.4858,2.4381,2.4569,2.5184,2.6138,2.6176,0.0,0.0,0.0,2.7168,2.7168,2.7557,2.8097,2.8586,2.9189,2.9716,2.9867,2.9905,2.9917,2.9993,3.0369,3.0721,3.0721,3.1637,3.2441,3.2441,3.2378,3.2516,3.3093,3.2365,3.1913,3.2478,3.2139,3.1989,3.239,3.2441,3.2641,3.3144,3.3181,3.3219,3.3294,3.2767,3.2873,3.3753,3.2434,3.1996,3.2829,3.2,3.1461,3.1386,3.0947,3.0721,3.0708,3.0168,2.9867,2.9792,2.9792,2.9792,2.9792,2.9792,2.9792,2.9792,2.9792,3.0279,3.1044,3.118,3.1106,3.1044,3.118,3.0633,2.9792,0.0,0.0,0.0,0.0,0.0,0.0,0.0,0.0,0.0,0.0,0.0,0.0,0.0,0.0,0.0,2.596,2.5618,2.5604,2.6139,2.7844,2.876,2.8597,3.061,3.165,3.1349,3.2687,3.2587,3.0956,3.0612,3.0279,2.9927,2.8608,2.8189,2.8546,2.6433,2.6249,2.734,2.515,2.4524,2.4781,2.359,2.3477,2.3991,2.3821,2.3994,2.4381,2.4551,2.4504,2.4481,2.5272,2.5561,2.5686,2.6176,0.0,0.0,0.0,2.7205,2.7833,2.8699,2.9352,2.9792,2.9792,2.9792,2.9792,2.9792,2.998,3.0156,3.0156,3.0771,3.1411,3.17,3.175,3.1838,3.2089,3.1712,3.1474,3.1725,3.1549,3.1486,3.1725,3.175,3.1851,3.2102,3.2127,3.2364,3.2903,3.2442,3.2646,3.3998,3.2594,3.1902,3.2343,3.1468,3.0809,3.0495,3.0269,3.0156,3.0156,2.9905,2.9792,2.9792,2.9792,2.9792,2.9792,2.9792,2.9792,2.9792,2.9792,3.0075,3.0419,3.0419,3.0419,3.0419,3.0419,3.0139,2.9792,0.0,0.0,0.0,0.0,0.0,0.0,0.0,0.0,0.0,0.0,0.0,0.0,0.0,0.0,0.0,0.0,2.5946,2.5379,2.5394,2.7264,2.8216,2.7841,3.0154,3.1256,3.0862,3.1749,3.1614,3.0268,2.9804,2.9694,2.9918,2.9003,2.9109,2.9948,2.7643,2.7337,2.8401,2.6102,2.5298,2.5507,2.4216,2.4056,2.4567,2.4562,2.4472,2.4325,2.4753,2.4412,2.3866,2.4418,2.487,2.5222,2.536,2.5887,0.0,0.0,0.0,2.7883,2.8699,2.9352,2.9792,2.9792,2.9792,2.9792,2.9792,2.9792,2.9792,2.9792,3.0118,3.052,3.0909,3.1097,3.1235,3.1373,3.116,3.1103,3.1538,3.1221,3.1103,3.1538,3.1334,3.1248,3.1386,3.1618,3.2076,3.2752,3.2508,3.2968,3.4344,3.2737,3.1889,3.2102,3.0971,3.0206,2.9792,2.9792,2.9792,2.9792,2.9792,2.9792,2.9792,2.9792,2.9716,2.9578,2.9729,2.9792,2.9792,2.9792,2.9704,2.9578,2.9578,2.949,2.9365,2.9365,2.9365,2.939,0.0,0.0,0.0,0.0,0.0,0.0,0.0,0.0,0.0,0.0,0.0,0.0,2.634,2.5811,2.6,2.7408,2.6215,2.5604,2.6082,2.6872,2.7373,2.7617,2.9401,0.0,2.9886,3.1008,3.0941,2.9624,2.9594,2.9182,2.8397,2.8158,2.9022,3.0634,2.7751,2.6752,2.7047,2.5688,2.5539,2.6084,2.552,2.5588,2.601,2.552,2.5216,2.4964,2.453,2.3819,2.3263,2.3853,2.4054,2.4167,2.4695,2.5598,2.6533,0.0,0.0,0.0,2.8913,2.9352,2.9792,2.9792,2.9792,2.9792,2.9792,2.9792,2.9792,2.9792,2.9817,2.9842,2.9867,3.0306,3.0821,3.1311,3.0545,3.0341,3.1795,3.0766,3.0419,3.1795,3.1148,3.0846,3.1336,3.2223,3.2752,3.283,3.3103,3.3751,3.4838,3.2559,3.1649,3.2577,3.0823,2.9829,2.9792,2.9792,2.9792,2.9792,2.9792,2.9792,2.9792,2.9792,2.949,2.9001,2.9553,2.9792,2.9792,2.9792,2.9465,2.8976,2.8976,2.8649,2.8197,2.8197,2.8197,2.826,0.0,0.0,0.0,0.0,0.0,0.0,0.0,0.0,0.0,0.0,0.0,0.0,0.0,2.6707,2.6811,2.6878,2.639,2.5771,2.5033,2.6439,2.7017,2.6498,2.8757,2.9756,2.9334,3.0587,3.069,2.9579,2.916,2.8777,2.8508,2.8655,2.9124,2.9761,2.7497,2.7644,2.9473,2.6641,2.6254,2.7499,2.5867,2.5656,2.624,2.5633,2.503,2.4569,2.4371,2.3767,2.3103,2.3376,2.369,2.4029,2.423,2.4808,2.5473,2.5799,2.6841,2.7871,2.7871,2.8536,2.9239,2.9239,2.9515,2.9792,2.9792,2.9792,2.9792,2.9792,2.9792,2.9792,2.9792,2.9955,3.0143,3.0331,3.0043,2.9997,3.0471,3.0687,3.0911,3.1382,3.1209,3.1287,3.2062,3.1938,3.23,3.3459,3.3691,3.4235,3.5207,3.3241,3.2249,3.2593,3.0784,2.9616,2.9239,2.9239,2.9063,2.8712,2.8712,2.8712,2.8712,2.8712,2.8599,2.8411,2.8624,2.8913,2.9214,2.885,2.88,2.89,2.8536,2.8285,2.8109,2.8109,2.8109,2.8134,0.0,0.0,0.0,0.0,0.0,0.0,0.0,0.0,0.0,2.6406,0.0,0.0,0.0,0.0,2.6654,2.6176,2.6122,2.5837,2.5063,2.6313,2.6778,2.6283,2.8202,2.9275,2.937,2.9865,3.006,2.9894,2.9026,2.8607,2.8622,2.8768,2.9117,2.9624,2.7548,2.8085,3.0241,2.7877,2.7537,2.8541,2.6902,2.6777,2.7342,2.6427,2.5713,2.5244,2.4766,2.4064,2.3389,2.314,2.3389,2.3703,2.3703,2.4092,2.4657,2.5172,2.5988,2.6823,2.7278,2.8074,2.8886,2.9357,2.9779,3.0077,3.0077,3.0077,3.0077,3.0077,3.0077,3.0128,3.0384,3.0149,2.9923,2.9831,3.0075,3.0355,3.0709,3.097,3.1462,3.2033,3.1609,3.1609,3.2536,3.2321,3.2664,3.3876,3.4027,3.4359,3.5096,3.3028,3.1653,3.1092,2.9854,2.9038,2.8662,2.8649,2.8461,2.8109,2.8109,2.8109,2.8109,2.8109,2.8009,2.7821,2.7821,2.8147,2.8624,2.826,2.821,2.8335,2.7971,2.772,2.7557,2.7557,2.7557,2.7582,0.0,0.0,0.0,0.0,0.0,0.0,0.0,0.0,2.7035,2.8412,0.0,0.0,0.0,0.0,0.0,2.537,2.5425,2.5742,2.6404,2.6525,2.6676,2.6978,2.7852,2.8802,2.9924,2.8916,2.9042,3.0481,2.925,2.8622,2.8622,2.8429,2.9083,3.0362,2.8064,2.7815,2.9032,2.9146,2.926,2.9276,2.8754,2.8958,2.9381,2.7882,2.7201,2.6951,2.5575,2.4632,2.3916,2.3364,2.3128,2.3128,2.3103,2.354,2.4104,2.4644,2.5224,2.594,0.0,0.0,0.0,3.0188,3.0568,3.0596,3.0596,3.0596,3.0596,3.0596,3.0596,3.0774,3.1433,3.077,3.0069,2.9884,3.062,3.1536,3.2464,3.1815,3.196,3.3808,3.2393,3.1609,3.2593,3.3449,3.4013,3.3998,3.3998,3.4141,3.4409,3.1847,2.9652,2.8122,2.8109,2.8097,2.8084,2.8084,2.8072,2.8059,2.8059,2.8059,2.8059,2.8059,2.777,2.7256,2.7256,2.7557,2.8059,2.8059,2.7758,2.7281,2.7268,2.6929,2.6533,2.6533,2.6533,2.6596,0.0,0.0,0.0,0.0,0.0,0.0,2.8478,2.8216,2.8159,0.0,0.0,0.0,2.7817,2.5869,2.474,2.5167,2.5761,2.598,2.5701,2.7157,2.7712,2.7006,2.758,2.8263,2.8919,2.9196,2.9656,3.0234,2.9578,2.9071,2.8607,2.8545,2.8723,2.9131,2.895,2.9107,2.9345,2.7967,2.8138,2.9172,2.7765,2.7785,2.8494,2.7032,2.6244,2.5823,2.5282,2.4632,2.4042,2.428,2.4356,2.428,2.3891,2.4211,2.484,2.4997,2.577,2.6727,2.7074,0.0,0.0,0.0,0.0,0.0,3.0596,3.0596,3.0596,3.0596,3.0132,2.9979,3.0747,2.9689,2.9207,3.0815,3.1123,3.1315,3.1536,3.196,3.2664,3.3876,3.2961,3.289,3.4558,3.4245,3.384,3.3446,3.4038,3.3695,3.2037,3.0582,2.9223,2.8109,2.8109,2.7908,2.7519,2.7507,2.7306,2.6917,2.6917,2.6917,2.6917,2.6917,2.6829,2.6691,2.6691,2.6848,2.6917,2.6917,2.7055,2.7243,2.6841,2.6659,2.6533,2.6533,2.6533,2.6546,0.0,0.0,0.0,0.0,0.0,2.9237,2.9391,2.8877,2.8586,0.0,0.0,0.0,2.7329,2.567,2.4827,2.538,2.5687,2.5966,2.6157,2.7633,2.8347,2.7942,2.7884,2.8266,2.9134,2.908,2.9415,3.0208,2.9522,2.8981,2.8592,2.8308,2.8173,2.8188,2.8577,2.8742,2.8666,2.7465,2.7847,2.9172,2.7557,2.7557,2.8499,2.7395,2.6927,2.6799,2.6068,2.5735,2.5486,2.4987,2.482,2.4822,2.4847,2.5166,2.5514,2.5633,2.6194,2.6793,2.7155,2.7914,2.8774,2.9391,0.0,0.0,3.0614,3.0557,3.0486,3.0244,2.9813,2.9778,3.0807,2.9855,2.9686,3.1886,3.2083,3.2047,3.2352,3.2536,3.3101,3.4461,3.3463,3.3394,3.5294,3.4376,3.3547,3.3252,3.27,3.1531,2.959,2.8995,2.8235,2.7067,2.7055,2.6804,2.6264,2.6251,2.6088,2.5774,2.5774,2.5774,2.5787,2.6,2.5988,2.5799,2.6264,2.6395,2.6168,2.648,2.6756,2.6904,2.6647,2.6533,2.6496,2.6189,2.6101,2.6101,0.0,0.0,3.0251,3.0577,3.0558,3.0413,3.0395,2.9188,2.8526,0.0,2.7907,2.6977,2.6938,2.5794,2.5297,2.5834,2.5625,2.5942,2.7106,2.8024,2.8742,2.9127,2.841,2.8504,2.958,2.8502,2.8711,3.0147,2.9101,2.8591,2.8682,2.7934,2.7625,2.7625,2.7625,2.7625,2.7554,2.7306,2.7897,2.884,2.7635,2.7817,2.8711,2.8188,2.8333,2.8677,2.7534,2.7389,2.7499,2.5742,2.5023,2.5025,2.5926,2.6131,2.6176,2.6461,2.6539,2.6652,2.7345,2.7958,2.8749,3.0056,3.0911,0.0,3.0746,3.0612,3.0462,2.9909,2.9734,3.0037,3.1258,3.0644,3.0659,3.2695,3.2976,3.3249,3.3926,3.331,3.3463,3.5279,3.3905,3.3435,3.5255,3.4141,3.3231,3.2889,3.0528,2.8612,2.7328,2.7411,2.6854,2.5523,2.5511,2.5259,2.4732,2.4795,2.4795,2.4732,2.4795,2.482,2.4845,2.5297,2.5285,2.4958,2.5937,2.6131,2.5785,2.6336,2.6567,2.6521,2.6451,2.6438,2.6302,2.5724,2.5548,2.5586,2.9833,2.973,3.0015,3.2461,3.1348,3.0028,2.958,2.9068,2.8615,2.8269,2.7439,2.6814,2.6655,2.5561,2.5038,2.5635,2.6827,2.7473,2.7221,2.9015,2.9536,2.8335,2.8105,2.7759,2.7182,2.7551,2.8255,2.9254,2.864,2.8741,2.937,2.8195,2.7625,2.7625,2.7625,2.7625,2.7554,2.6761,2.6549,2.6782,2.6835,2.6927,2.724,2.7762,2.7809,2.7654,2.851,2.854,2.8001,2.7379,2.6398,2.5567,2.6452,2.6478,2.6345,2.7087,2.7302,2.738,2.755,2.804,2.8762,2.9594,3.0238,0.0,3.124,3.133,3.13,3.118,3.0587,3.0411,3.1364,3.0269,2.9973,3.2237,3.2484,3.2731,3.3869,3.3808,3.4177,3.5359,3.4476,3.396,3.4648,3.4405,3.322,3.0788,2.8396,2.705,2.6987,2.6332,2.5709,2.4996,2.4971,2.4707,2.4167,2.4594,2.4594,2.4167,2.4607,2.482,2.482,2.4921,2.5146,2.546,2.5674,2.6072,2.6453,2.6023,2.6072,2.6501,2.6129,2.5923,2.5699,2.5172,2.5234,2.5536,3.0361,3.094,3.1492,3.2152,3.1608,3.074,2.9727,2.9031,2.8435,2.7934,2.7184,2.6665,2.6496,2.5711,2.5608,2.6539,2.683,2.7409,2.8651,2.9354,2.9585,2.9163,2.8441,2.7769,2.7082,2.7641,2.832,2.9002,2.8943,2.9167,2.9549,2.8255,2.7395,2.7096,2.7475,2.7214,2.6528,2.6415,2.6242,2.6049,2.6115,2.6154,2.631,2.7922,2.8353,2.8269,2.9366,2.9298,2.8643,2.8736,2.8078,2.7468,2.8296,2.8437,2.8308,2.8513,2.8551,2.8427,2.7805,2.8068,2.8682,2.9011,2.9804,0.0,0.0,3.0806,3.0941,3.0627,2.9989,2.9687,3.0436,2.9884,2.9987,3.2169,3.2404,3.2908,3.4538,3.4312,3.4263,3.4882,3.442,3.4132,3.4468,3.3416,3.1695,2.9021,2.7419,2.666,2.6892,2.6142,2.5167,2.4004,2.3979,2.359,2.2749,2.3025,2.3025,2.2749,2.3301,2.3565,2.359,2.4155,2.4393,2.4393,2.4958,2.5228,2.5332,2.5332,2.5498,2.5652,2.5448,2.5268,2.5146,2.4607,2.4569,2.4822,3.0221,3.1787,3.2635,3.126,3.1575,3.1471,2.98,2.8918,2.8268,2.7719,2.7071,2.6615,2.6615,2.6,2.6117,2.7522,2.6462,2.6947,2.9924,2.9331,2.9129,2.9752,2.8608,2.7718,2.7235,2.7669,2.8284,2.8892,2.9188,2.9456,2.9549,2.8255,2.729,2.6797,2.722,2.6799,2.5868,2.6247,2.6169,2.5752,2.5819,2.5782,2.6,2.8366,2.9129,2.9129,3.0147,2.995,2.9324,2.9748,2.9467,2.9129,3.0011,3.0096,2.9914,2.9792,2.9579,2.919,2.8218,2.8278,2.8622,2.8757,2.9475,3.0043,0.0,0.0,0.0,2.9684,2.925,2.9131,2.9654,2.9759,3.0283,3.1869,3.2243,3.2886,3.4517,3.4229,3.4127,3.4633,3.4215,3.4025,3.4274,3.2328,3.0187,2.8153,2.7466,2.7043,2.68,2.603,2.4814,2.3225,2.2934,2.2334,2.1343,2.1443,2.1443,2.1343,2.1895,2.2209,2.2347,2.3251,2.354,2.3351,2.4268,2.4469,2.4227,2.4693,2.4839,2.4672,2.4672,2.4684,2.4594,2.4042,2.3904,2.4103,3.0191,3.0799,3.1295,3.0884,3.1266,3.1007,2.8985,2.8344,2.794,2.7397,2.7264,2.7193,2.7193,2.6239,2.6093,2.722,2.6531,2.6997,2.9316,2.8702,2.8187,2.8025,2.7375,2.6542,2.5406,2.6502,2.7489,2.8498,2.844,2.8861,2.9549,2.8255,2.758,2.7455,2.6901,2.6808,2.7052,2.6285,2.5694,2.5274,2.6214,2.6528,2.6693,2.9164,2.969,2.9192,3.0777,3.0837,3.0147,3.0219,2.9685,2.9129,3.0011,2.9491,2.8799,3.003,2.9594,2.8801,2.9235,2.8981,2.8742,2.9325,2.9146,2.8951,2.946,0.0,2.9669,2.9594,0.0,3.0313,3.0387,0.0,0.0,3.0687,3.124,3.1661,3.19,3.2855,3.3988,3.525,3.4319,3.3555,3.3619,3.2119,3.0621,2.9223,2.8878,2.8016,2.6352,2.5132,2.4116,2.3388,2.2247,2.138,2.0819,2.1242,2.1242,2.0819,2.1317,2.1832,2.2322,2.2447,2.3012,2.3904,2.4042,2.4402,2.4922,2.4338,2.4205,2.4373,2.4373,2.4223,2.4017,2.3439,2.3552,2.404,3.0211,3.1346,3.1801,3.0283,3.1169,3.1457,2.9323,2.8656,2.8376,2.855,2.7812,2.7406,2.772,2.7055,2.7088,2.8427,2.7481,2.7743,2.9969,2.9026,2.8491,2.8713,2.7855,2.7301,2.7064,2.7055,2.7681,2.8915,2.8615,2.866,2.8996,2.8023,2.7625,2.7575,2.6826,2.6372,2.6134,2.5647,2.5266,2.5075,2.6836,2.7389,2.7378,2.9049,3.0012,3.0524,3.1219,3.1025,3.0439,3.0439,3.0178,2.9871,2.9897,2.9984,3.0115,2.9993,2.9504,2.8993,2.889,2.8378,2.7886,2.8217,2.8438,2.8667,2.8951,2.931,2.9684,3.0043,0.0,0.0,0.0,0.0,0.0,0.0,3.1615,3.1895,3.3084,3.2747,3.2991,3.4696,3.4412,3.3553,3.2306,3.1584,3.0499,2.8843,2.8993,2.8502,2.7004,2.6064,2.4956,2.3567,2.2991,2.2102,2.0784,2.0966,2.0809,2.0175,2.074,2.1129,2.1368,2.1681,2.2096,2.2548,2.2917,2.3488,2.4121,2.4178,2.4259,2.4366,2.4366,2.4006,2.3477,2.3165,2.3288,2.3573,3.0329,3.1724,3.2239,3.0173,3.139,3.2068,2.9963,2.9052,2.8781,2.9295,2.838,2.7883,2.8285,2.7708,2.783,2.9152,2.7946,2.7947,2.9974,2.8921,2.8222,2.8339,2.7702,2.7445,2.7552,2.7346,2.7771,2.9015,2.8739,2.8697,2.8846,2.7979,2.7652,2.7772,2.6827,2.6078,2.551,2.5369,2.5179,2.5039,2.7127,2.8088,2.8304,2.9263,3.0368,3.1452,3.1315,3.0926,3.0477,3.0313,3.0253,3.0178,2.9729,3.0118,3.0526,2.9555,2.9066,2.8685,2.8154,2.7725,2.7348,2.7348,2.7856,2.8323,2.8323,2.8682,2.916,2.9609,2.9639,0.0,0.0,0.0,3.0873,3.2145,0.0,3.2069,3.3728,3.2715,3.2417,3.4055,3.4203,3.3538,3.1725,3.1707,3.0964,2.8839,2.926,2.8984,2.7598,2.6582,2.534,2.3974,2.3358,2.2365,2.0809,2.0795,2.0446,1.9811,2.0225,2.0567,2.0731,2.1079,2.1343,2.1536,2.2159,2.2653,2.3199,2.3838,2.4157,2.4157,2.4157,2.3727,2.3174,2.3174,2.3174,2.3289,3.045,3.1514,3.2176,3.0968,3.2027,3.2464,3.061,2.9532,2.8875,2.89,2.8888,2.8888,2.89,2.7934,2.772,2.88,2.7419,2.7238,2.8862,2.7956,2.6861,2.5791,2.6244,2.6098,2.5235,2.6516,2.7561,2.8354,2.8518,2.8921,2.952,2.8203,2.7868,2.8239,2.6818,2.6117,2.5853,2.5867,2.559,2.5236,2.6708,2.821,2.9595,3.0089,3.0763,3.145,3.0776,3.0522,3.0417,2.9819,2.9609,2.9609,2.9594,2.9175,2.8643,2.8475,2.8006,2.7508,2.7365,2.7428,2.7501,2.7501,2.7586,2.7655,2.7655,2.767,2.7685,2.7715,2.8682,2.9594,2.9609,3.0099,3.0753,3.1502,3.1568,0.0,0.0,3.2617,3.2778,3.3487,3.3529,3.326,3.2512,3.3035,3.2377,2.9774,3.0093,2.96,2.7709,2.5795,2.4722,2.4679,2.2774,2.1465,2.0795,2.0795,2.0446,1.9798,1.9823,2.0125,2.0718,2.0743,2.0991,2.1536,2.2159,2.243,2.2497,2.3173,2.342,2.342,2.342,2.3434,2.3409,2.3409,2.3409,2.3513,3.1043,3.2102,3.25,3.0494,3.1811,3.3064,3.282,3.1052,3.0167,3.137,3.0622,3.0319,3.1022,3.0444,3.0018,3.0043,2.9202,2.89,2.9465,2.8787,2.8373,2.8373,2.8197,2.8499,2.936,2.8625,2.8993,3.0437,2.9665,2.937,2.9564,2.8667,2.8311,2.831,2.6999,2.6315,2.6235,2.6131,2.6009,2.5972,2.7867,2.9534,3.081,3.0552,3.0891,3.1377,3.0746,3.0238,2.9804,2.9146,2.8936,2.8846,2.8397,2.8335,2.8411,2.7917,2.72,2.6576,2.6539,2.5937,2.5572,2.6426,2.6465,2.6491,2.7419,2.7245,2.7171,2.8068,2.8248,2.8658,2.9953,3.0351,3.1013,3.2578,3.2449,3.2426,0.0,3.206,3.1754,3.3307,3.311,3.2587,3.1928,3.1644,3.0791,2.9071,2.8712,2.8278,2.7655,2.6124,2.5301,2.5301,2.4197,2.3112,2.2081,2.1629,2.1051,2.0446,1.9648,1.9572,2.0075,1.9736,1.9877,2.0448,2.1479,2.2199,2.2678,2.3741,2.42,2.42,2.42,2.3938,2.3508,2.3445,2.3393,2.3441,3.1991,3.2611,3.282,3.1661,3.2269,3.2942,3.2975,3.1636,3.106,3.216,3.183,3.1675,3.2164,3.1888,3.1474,3.0934,3.057,3.0193,2.9817,2.9628,2.934,2.8925,2.9009,2.9301,2.9822,2.9186,2.919,2.9886,2.929,2.9126,2.9478,2.8537,2.8225,2.8281,2.7508,2.6708,2.5976,2.6646,2.6721,2.647,2.8295,2.9628,3.0462,3.0253,3.0746,3.1317,3.0238,2.9564,2.9131,2.8457,2.8233,2.8158,2.776,2.7869,2.789,2.6766,2.6131,2.5694,2.497,2.4688,2.4889,2.5711,2.5923,2.6226,2.736,2.7066,2.6841,2.7709,2.7919,2.8243,2.9246,2.9993,3.094,3.2452,3.258,3.2528,0.0,3.1297,3.0739,3.2276,3.2497,3.2273,3.1607,3.1349,3.0286,2.8038,2.7694,2.7415,2.6901,2.5839,2.5255,2.5255,2.4612,2.3733,2.2709,2.2041,2.1313,2.0479,1.9507,1.909,1.9221,1.9065,1.9339,1.9964,2.1148,2.2087,2.2783,2.3999,2.443,2.4253,2.4458,2.4158,2.3598,2.3478,2.349,2.3481,3.3211,3.299,3.2929,3.4103,3.3325,3.2208,3.1315,3.1265,3.1411,3.1461,3.2453,3.2955,3.2403,3.234,3.2089,3.1486,3.1436,3.0984,2.9942,3.0331,2.9666,2.7544,2.8731,2.867,2.6972,2.8288,2.8443,2.7272,2.7748,2.8405,2.9272,2.7953,2.7641,2.8199,2.8281,2.7183,2.5356,2.744,2.7633,2.6674,2.8047,2.8622,2.8712,2.931,3.0328,3.118,2.928,2.8607,2.8502,2.785,2.7625,2.7625,2.7625,2.7545,2.7113,2.5103,2.4859,2.4789,2.2802,2.3695,2.5218,2.5301,2.5868,2.6662,2.732,2.6961,2.6497,2.6576,2.758,2.8278,2.7628,2.9044,3.0551,3.1232,3.1859,3.2067,3.1517,3.0356,2.9788,3.049,3.1641,3.2168,3.1579,3.2013,3.0744,2.692,2.7126,2.6901,2.5674,2.4986,2.4582,2.4582,2.3954,2.3334,2.274,2.2031,2.117,2.0066,1.9318,1.876,1.8324,1.8832,1.943,2.0174,2.1243,2.2118,2.2831,2.3918,2.4074,2.3724,2.4184,2.4074,2.3638,2.3595,2.3595,2.3595,3.3287,3.3434,3.326,3.2246,3.1357,3.0884,3.1188,3.1265,3.1687,3.2528,3.3608,3.4248,3.4098,3.4085,3.352,3.2127,3.2001,3.1712,3.1022,3.0746,3.0357,2.9779,3.041,3.0597,3.0378,3.1419,3.1582,3.0771,3.0506,3.0114,2.9658,2.8521,2.808,2.8232,2.8419,2.7893,2.6947,2.8086,2.8077,2.7416,2.8271,2.8891,2.9295,2.8966,2.937,2.9953,2.8966,2.8607,2.8502,2.785,2.7625,2.7625,2.7625,2.6899,2.5835,2.4819,2.3878,2.2946,2.1944,2.213,2.2803,2.3829,2.4248,2.474,2.5863,2.56,2.5348,2.6275,2.6351,2.6743,2.8436,2.9153,3.007,3.1783,3.1852,3.1499,3.0917,2.9663,2.9453,3.1033,3.0268,2.9925,3.0727,2.958,2.8394,2.7435,2.6123,2.545,2.56,2.4986,2.4582,2.4582,2.3954,2.3508,2.3377,2.2251,2.1539,2.1245,1.9663,1.9344,2.0105,1.9826,2.026,2.1332,2.2114,2.2731,2.3259,2.3625,2.4184,2.4736,2.4511,2.4307,2.4158,2.3767,2.3595,2.3595,3.3518,3.3296,3.2695,3.1442,3.1096,3.1113,3.1255,3.1373,3.18,3.293,3.3822,3.4274,3.4035,3.4223,3.3884,3.2692,3.2353,3.1976,3.1424,3.0909,3.064,3.083,3.1188,3.1387,3.1405,3.1946,3.1774,3.0855,3.0415,2.9981,2.9526,2.871,2.8125,2.7951,2.8704,2.8459,2.7556,2.8314,2.8368,2.8023,2.8113,2.8368,0.0,2.8293,2.8382,2.8652,2.8278,2.8143,2.8135,2.8031,2.781,2.7615,2.7546,2.6826,2.5733,2.4489,2.377,2.313,2.2207,2.2389,2.3032,2.3797,2.4023,2.4349,2.5357,2.5106,2.4852,2.578,2.5911,2.624,2.7545,2.8563,2.9707,3.1199,3.0952,3.0386,2.979,2.9051,2.9042,3.0433,2.961,2.9139,2.9532,2.8092,2.6995,2.6726,2.542,2.4657,2.4717,2.4672,2.4313,2.3789,2.4185,2.4046,2.3191,2.2745,2.2005,2.0881,1.9525,1.9321,2.0025,1.9936,2.0571,2.1816,2.2669,2.3307,2.3887,2.442,2.4871,2.5182,2.4871,2.4563,2.4233,2.3915,2.372,2.3595,3.335,3.2727,3.1777,3.1136,3.157,3.1989,3.1662,3.1738,3.2177,3.3169,3.3771,3.3909,3.3357,3.3658,3.3671,3.3131,3.2554,3.2001,3.1537,3.0947,3.0828,3.1312,3.1585,3.1593,3.1223,3.132,3.082,2.9518,2.919,2.9072,2.9242,2.8598,2.8081,2.7775,2.907,2.8912,2.7795,2.8358,2.8547,2.8412,2.7814,2.7625,2.7625,2.7625,2.766,2.771,2.7625,2.7625,2.766,2.8286,2.8091,2.7605,2.7596,2.7084,2.6132,2.433,2.4033,2.4012,2.2825,2.3357,2.4273,2.4273,2.4373,2.4642,2.5211,2.4911,2.4656,2.5234,2.5827,2.623,2.625,2.7772,2.927,3.0013,2.9637,2.9,2.842,2.8404,2.8654,2.9195,2.9099,0.0,2.8313,2.7245,2.6271,2.5526,2.5031,2.4418,2.364,2.4343,2.4118,2.2727,2.4284,2.4403,2.2843,2.3093,2.2254,2.0251,1.9411,1.9151,1.9459,1.9821,2.0826,2.2263,2.3056,2.3873,2.4672,2.554,2.5652,2.5281,2.5277,2.4885,2.4324,2.4227,2.3975,2.3709,3.1802,3.1854,3.1575,3.0228,3.0905,3.1813,3.2654,3.3558,3.4211,3.4412,3.4914,3.5052,3.45,3.411,3.3671,3.3131,3.2554,3.2177,3.2077,3.116,3.1006,3.1817,3.2196,3.2303,3.1947,3.2643,3.2353,3.0812,3.0273,2.9619,2.8907,2.8479,2.8541,2.8973,2.9415,2.9451,2.9193,2.8778,2.8263,2.7739,2.767,2.7625,2.7625,2.7625,2.791,2.8286,2.776,2.7625,2.766,2.8286,2.8091,2.7695,2.8181,2.7161,2.5625,2.4786,2.3807,2.2858,2.2047,2.2433,2.304,2.304,2.3407,2.3804,2.3924,2.3864,2.4061,2.5005,2.5314,2.5857,2.7219,2.7784,2.8343,2.9254,2.8772,2.8111,2.7508,2.7957,2.8318,2.8339,2.7372,2.6949,2.7438,2.6891,2.6041,2.4882,2.5196,2.4896,2.367,2.4762,2.4582,2.2783,2.3017,2.3272,2.343,2.1964,2.1549,2.217,2.0414,2.0154,2.1232,2.0754,2.1783,2.3928,2.3575,2.43,2.5689,2.5449,2.554,2.5822,2.563,2.5577,2.5589,2.4931,2.4483,2.4148,3.1487,3.1472,3.1532,3.1115,3.1964,3.2867,3.342,3.4449,3.5052,3.4763,3.4462,3.4161,3.3897,3.3633,3.3244,3.2679,3.2114,3.1675,3.1399,3.0633,3.083,3.2246,3.2171,3.234,3.2834,3.2273,3.1708,3.1306,3.0382,2.971,2.9188,2.9026,2.872,2.8254,2.8356,2.9005,2.9968,2.8637,2.8083,2.8068,2.7724,2.7625,2.761,2.7959,2.8042,2.8091,2.84,2.7896,2.7244,2.8513,2.8342,2.7576,2.7854,2.661,2.4985,2.4323,2.3687,2.3098,2.2756,2.2935,2.3157,2.3157,2.3377,2.3595,2.3595,2.3595,2.3906,2.4973,2.5221,2.5735,2.7496,2.8146,2.8454,2.8626,2.8639,2.8306,2.7332,2.7782,2.8005,2.7525,2.6742,2.6238,2.6206,2.545,2.4908,2.4627,2.4597,2.4148,2.3176,2.4388,2.4358,2.2768,2.3633,2.3648,2.2622,2.2352,2.185,2.115,2.0154,2.0213,2.1186,2.1478,2.2432,2.3902,2.4519,2.5216,2.6013,2.598,2.6123,2.63,2.5798,2.5681,2.5681,2.4929,2.4792,2.492,3.1726,3.1662,3.1958,3.2637,3.3738,3.4525,3.4571,3.5494,3.5851,3.4788,3.3872,3.3257,3.3257,3.3031,3.2704,3.2252,3.1612,3.1047,3.0645,3.0093,3.057,3.2249,3.1887,3.2041,3.2968,3.1334,3.0642,3.0854,3.0013,2.9376,2.8931,2.9347,2.8642,2.7128,2.7381,2.8301,2.9595,2.8166,2.7874,2.8338,2.7784,2.7675,2.781,2.8189,2.8082,2.7862,2.8683,2.8106,2.7165,2.85,2.8147,2.7147,2.7328,2.61,2.4477,2.3984,2.3714,2.3595,2.3595,2.3595,2.3595,2.3595,2.3595,2.3595,2.3595,2.3681,2.4032,2.5012,2.5373,2.5975,2.7532,2.8061,2.8241,2.8063,2.8406,2.8316,2.7227,2.765,2.7689,2.6759,2.6401,2.5873,2.4965,2.4219,2.3872,2.41,2.3788,2.3325,2.2753,2.3924,2.4029,2.2727,2.4135,2.3983,2.2113,2.2562,2.1888,2.0109,1.9824,2.0182,2.1107,2.184,2.2836,2.4027,2.5245,2.5936,2.6191,2.6556,2.6691,2.6623,2.5896,2.5609,2.5541,2.4949,2.492,2.5113,3.2139,3.2566,3.3246,3.4337,3.5534,3.6372,3.6825,3.7838,3.7638,3.5046,3.4198,3.3822,3.3822,3.2905,3.2277,3.2215,3.1286,3.067,3.062,3.0093,3.0279,3.1328,3.1534,3.1495,3.132,3.0777,2.9968,2.8876,2.934,2.8616,2.6833,2.8553,2.8296,2.6538,2.7684,2.7761,2.6992,2.7416,2.7655,2.7715,2.7655,2.7944,2.8367,2.786,2.7951,2.824,2.7779,2.7767,2.798,2.7637,2.6723,2.5939,2.6972,2.6072,2.4567,2.4507,2.4088,2.3595,2.3595,2.3595,2.3595,2.3595,2.3595,2.3595,2.3595,2.3991,2.4511,2.5067,2.5944,2.6809,2.7654,2.6793,2.6336,2.7636,2.7332,2.691,2.6758,2.7382,2.7281,2.5882,2.5893,2.5428,2.3982,2.4135,2.3829,2.2624,2.3201,2.3325,2.2753,2.3924,2.4029,2.2727,2.287,2.311,2.3415,2.1188,2.0542,2.15,2.0273,2.0576,2.2214,2.1761,2.3104,2.5721,2.5287,2.568,2.6624,2.6691,2.6691,2.6623,2.5896,2.5609,2.5592,2.5524,2.4811,2.3918,3.3219,3.3986,3.5005,3.6102,3.6972,3.7549,3.7648,3.809,3.7701,3.5848,3.5694,3.5858,3.5858,3.4806,3.3953,3.358,3.2731,3.1906,3.0983,3.075,3.0833,3.118,3.1053,3.1037,3.1094,3.0336,2.9505,2.8607,2.8733,2.8158,2.7003,2.7696,2.7695,2.7045,2.661,2.694,2.7802,2.722,2.7448,2.814,2.814,2.8271,2.8559,2.9042,2.8645,2.785,2.835,2.7881,2.6969,2.6752,2.6382,2.6045,2.6172,2.5195,2.4014,2.4014,2.3819,2.3595,2.3595,2.3595,2.3595,2.3595,2.3595,2.3595,2.3595,2.3991,2.4552,2.5105,2.6016,2.664,2.6522,2.637,2.6319,2.6471,2.6234,2.5879,2.5423,2.5625,2.5439,2.4408,2.3902,2.3418,2.2733,2.2736,2.2707,2.2546,2.3561,2.3748,2.2644,2.323,2.3626,2.3783,2.2607,2.2338,2.3041,2.1478,2.0613,2.0483,2.0203,2.0701,2.1895,2.2604,2.4228,2.6385,2.6134,2.627,2.6691,2.6691,2.6691,2.6573,2.5389,2.5203,2.5507,2.4611,2.4247,2.4094,3.4818,3.5544,3.6598,3.8269,3.8948,3.9128,3.9021,3.9031,3.8564,3.7317,3.7325,3.7245,3.6626,3.5457,3.4548,3.4181,3.3514,3.27,3.1709,3.1609,3.1529,3.1355,3.1144,3.0881,3.0549,2.9894,2.9071,2.8008,2.7861,2.731,2.6463,2.6325,2.638,2.6525,2.5605,2.6167,2.7661,2.6942,2.7352,2.8511,2.8511,2.8561,2.8788,2.9453,2.8613,2.718,2.8077,2.7219,2.567,2.5735,2.5735,2.5694,2.5285,2.4456,2.3595,2.3595,2.3595,2.3595,2.3595,2.346,2.337,2.355,2.331,2.3173,2.3704,2.4112,2.4579,2.5475,2.6193,2.6471,2.5744,2.6031,2.6133,2.5406,2.527,2.5084,2.456,2.4506,2.432,2.3782,2.3242,2.2716,2.2246,2.2195,2.2297,2.2491,2.3631,2.3718,2.2337,2.2644,2.3082,2.3644,2.2313,2.1869,2.2571,2.1423,2.0579,2.0085,2.0227,2.0967,2.2242,2.395,2.5447,2.6691,2.6691,2.6691,2.6691,2.6691,2.6691,2.659,2.5541,2.5186,2.5186,2.4357,2.3951,2.3739,3.6999,3.7223,3.8175,4.1041,4.1573,4.1497,4.1411,4.1384,4.0905,3.9516,3.8755,3.7579,3.5523,3.4189,3.3445,3.3431,3.2894,3.2607,3.2593,3.2593,3.226,3.1598,3.1933,3.1137,2.914,2.9451,2.8607,2.6617,2.6608,2.5887,2.4447,2.4162,2.4179,2.435,2.4924,2.535,2.5698,2.6327,2.7352,2.8511,2.8511,2.8767,2.9124,2.8565,2.7486,2.631,2.6246,2.5462,2.4405,2.4405,2.4405,2.4405,2.4405,2.4048,2.3595,2.3595,2.3595,2.3595,2.3595,2.3146,2.2832,2.3445,2.2652,2.2199,2.3973,2.4295,2.4664,2.6353,2.6691,2.6471,2.5744,2.5609,2.5372,2.4642,2.4523,2.4523,2.4506,2.4506,2.4506,2.4506,2.4647,2.4214,2.2814,2.3099,2.2998,2.2073,2.2983,2.3056,2.1784,2.2338,2.2398,2.1754,2.171,2.1901,2.2293,2.0606,2.0154,2.0959,2.0516,2.1544,2.3935,2.5816,2.6674,2.6691,2.6691,2.6691,2.6691,2.6691,2.6691,2.6691,2.6674,2.5778,2.4608,2.5321,2.4205,2.2315,3.7599,3.8754,3.9857,4.0746,4.1631,4.1804,4.083,4.0711,4.0397,3.9529,3.8437,3.7496,3.6819,3.6003,3.5507,3.5507,3.4937,3.4259,3.3602,3.3518,3.2959,3.1668,3.1933,3.1401,2.9814,2.9658,2.8816,2.726,2.6637,2.5567,2.4149,2.4572,2.4846,2.5063,2.5783,2.6188,2.6357,2.7016,2.7714,2.8437,2.8376,2.8716,2.9156,2.8876,2.7927,2.6672,2.6358,2.5947,2.5335,2.4225,2.4116,2.4389,2.4389,2.4032,2.3595,2.3595,2.3595,2.3595,2.3595,2.3146,2.2817,2.3445,2.2981,2.2742,2.4081,2.493,2.5549,2.5866,2.6353,2.6471,2.5744,2.5609,2.5372,2.4611,2.4069,2.3562,2.3071,2.3004,2.3004,2.3004,2.2781,2.2421,2.1991,2.226,2.275,2.3474,2.4223,2.3931,2.2155,2.2113,2.2192,2.2236,2.0966,2.0918,2.2278,2.1167,2.0968,2.1761,2.1876,2.303,2.5094,2.6185,2.6691,2.6691,2.6691,2.6691,2.6691,2.6691,2.6691,2.659,2.5575,2.4929,2.4421,2.363,2.271,2.1827,3.8849,3.9875,4.0732,4.1164,4.1729,4.1639,4.0561,4.0397,4.0068,3.9155,3.8093,3.7315,3.709,3.6492,3.6118,3.6118,3.5744,3.5213,3.461,3.4309,3.3607,3.235,3.2254,3.155,2.9959,2.9692,2.8815,2.7203,2.605,2.4773,2.3364,2.4326,2.4909,2.5039,2.5806,2.6148,2.6243,2.6889,2.7473,2.8009,2.8162,2.8428,2.8677,2.8595,2.7704,2.6508,2.6034,2.5683,2.5221,2.3991,2.3964,2.4389,2.4389,2.4307,2.4184,2.4184,2.4015,2.3794,2.3888,2.3228,2.2733,2.3413,2.3088,2.2937,2.4318,2.5477,2.6198,2.6033,2.6387,2.6471,2.5744,2.5609,2.527,2.4239,2.3799,2.3295,2.2412,2.2388,2.25,2.2682,2.2434,2.2192,2.2038,2.2166,2.2619,2.3594,2.4108,2.3951,2.2894,2.3031,2.3043,2.2772,2.1591,2.1568,2.2889,2.2189,2.2231,2.2998,2.3552,2.4441,2.5642,2.6657,2.6962,2.6708,2.6996,2.6962,2.6691,2.6691,2.6691,2.6573,2.5372,2.4666,2.4137,2.2916,2.1996,2.1337,4.0487,4.0602,4.0939,4.2052,4.1728,4.107,4.0367,4.0262,3.9798,3.8497,3.7749,3.712,3.6552,3.5893,3.5504,3.5504,3.5504,3.5504,3.5504,3.4906,3.4233,3.3529,3.2871,3.1614,2.9684,2.9564,2.8542,2.6404,2.4966,2.3605,2.238,2.365,2.4307,2.4443,2.5189,2.5526,2.5586,2.6107,2.6682,2.7256,2.7736,2.7864,2.7772,2.7687,2.7004,2.5961,2.5449,2.491,2.4389,2.3879,2.4032,2.443,2.4511,2.4855,2.5259,2.5221,2.4702,2.4153,2.4342,2.3382,2.2548,2.3375,2.3056,2.3028,2.4652,2.5882,2.6691,2.6691,2.6691,2.6488,2.5812,2.5693,2.522,2.3782,2.3767,2.3588,2.2508,2.2596,2.2882,2.327,2.3359,2.3194,2.271,2.2663,2.2729,2.2878,2.3141,2.3545,2.4133,2.498,2.4777,2.324,2.3192,2.3416,2.3918,2.3466,2.3703,2.4608,2.5321,2.5693,2.5727,2.7114,2.7351,2.6725,2.7435,2.7316,2.6657,2.6657,2.6624,2.6505,2.573,2.4762,2.3737,2.2897,2.1859,2.0781,4.0425,4.0455,4.053,4.0786,4.0726,4.0232,3.9035,3.8856,3.8571,3.7749,3.709,3.6656,3.6507,3.5893,3.5504,3.5504,3.5504,3.5504,3.5504,3.5355,3.4741,3.3544,3.2871,3.1824,3.0313,2.9325,2.7803,2.5673,2.4323,2.3415,2.3046,2.3528,2.4038,2.4497,2.5267,2.5325,2.4896,2.5529,2.6068,2.6494,2.6167,2.6756,2.7687,2.6781,2.6482,2.647,2.5997,2.5449,2.4989,2.4855,2.4617,2.4536,2.5373,2.5689,2.5726,2.5335,2.4702,2.4116,2.4163,2.3539,2.2986,2.3271,2.3967,2.4643,2.5046,2.5971,2.6691,2.6691,2.6691,2.664,2.6471,2.6437,2.6133,2.5236,2.4686,2.4088,2.3241,2.3192,2.3085,2.2615,2.3054,2.3144,2.2454,2.2387,2.3093,2.4805,2.4962,2.5564,2.679,2.7106,2.5969,2.3291,2.3192,2.3416,2.3918,2.3802,2.4265,2.5355,2.6082,2.6437,2.6437,2.6793,2.686,2.6708,2.6877,2.6673,2.6156,2.6156,2.5908,2.5431,2.4197,2.3543,2.3133,2.1859,2.076,1.9939,4.0397,4.0397,4.0397,4.0397,3.9888,3.923,3.8497,3.8138,3.7704,3.706,3.6686,3.6372,3.6073,3.5714,3.5504,3.5504,3.5504,3.537,3.5055,3.4756,3.4128,3.3095,3.2123,3.112,3.0103,2.8749,2.7021,2.4908,2.4176,2.3804,2.3791,2.4265,2.4453,2.4517,2.4944,2.4792,2.4178,2.479,2.5219,2.5424,2.5318,2.5992,2.69,2.627,2.6297,2.6624,2.6156,2.5815,2.554,2.5297,2.492,2.4686,2.5272,2.5375,2.5263,2.4956,2.4853,2.4699,2.4253,2.3871,2.3612,2.3756,2.428,2.487,2.5433,2.6175,2.6691,2.6691,2.6691,2.6691,2.6691,2.6691,2.6521,2.5948,2.5518,2.4987,2.4264,2.4161,2.3938,2.3371,2.3646,2.3748,2.3342,2.3308,2.3934,2.549,2.5913,2.6607,2.7722,2.8163,2.7278,2.4858,2.4809,2.4911,2.5196,2.5497,2.6,2.6623,2.7029,2.7199,2.7199,2.7199,2.691,2.6383,2.6735,2.622,2.5163,2.5163,2.4822,2.42,2.3074,2.2518,2.2232,2.1093,2.0246,1.9666,4.0277,4.0247,4.0247,4.0247,3.9215,3.8362,3.8257,3.7689,3.7045,3.6417,3.6342,3.6133,3.5564,3.5504,3.5504,3.5504,3.5415,3.51,3.4517,3.3858,3.3155,3.2392,3.1165,3.0163,2.9445,2.7977,2.6371,2.4624,2.4222,2.4129,2.4343,2.4864,2.4797,2.4361,2.4428,2.4148,2.3638,2.4074,2.4389,2.4552,2.4934,2.5486,2.6085,2.6049,2.6297,2.6657,2.6262,2.6049,2.5908,2.5447,2.5065,2.4789,2.4759,2.4629,2.4475,2.4413,2.4789,2.5046,2.4204,2.3802,2.3733,2.4214,2.4219,2.4465,2.5745,2.6464,2.6826,2.6708,2.6793,2.6826,2.6708,2.6691,2.6655,2.6458,2.6377,2.6066,2.5438,2.5409,2.5236,2.4645,2.47,2.4717,2.4598,2.4537,2.4797,2.5541,2.6285,2.7012,2.7739,2.8552,2.8332,2.6911,2.686,2.686,2.686,2.7503,2.7805,2.7851,2.7851,2.7732,2.7559,2.7559,2.6961,2.5921,2.643,2.568,2.409,2.3978,2.3542,2.2917,2.2166,2.167,2.1286,2.0489,1.9949,1.953,3.9679,3.9574,3.9574,3.9574,3.8916,3.8197,3.7644,3.703,3.6387,3.5744,3.5654,3.5624,3.5519,3.5504,3.5504,3.5504,3.4966,3.4592,3.4487,3.3858,3.2961,3.1676,3.0926,2.9953,2.8786,2.6754,2.5881,2.6176,2.3825,2.3311,2.4439,2.3531,2.3358,2.3762,2.3761,2.3699,2.3595,2.3681,2.4225,2.5028,2.4657,2.5357,2.6556,2.6156,2.6297,2.6691,2.6624,2.6332,2.595,2.5664,2.5212,2.4776,2.4592,2.4529,2.4444,2.4097,2.3736,2.343,2.3103,2.2233,2.1825,2.3612,2.3965,2.4275,2.5814,2.692,2.7469,2.6826,2.7199,2.7452,2.681,2.6691,2.6894,2.7453,2.7356,2.7016,2.6517,2.7091,2.6908,2.5218,2.5564,2.5685,2.5074,2.4701,2.4797,2.5541,2.6285,2.7012,2.7739,2.8552,2.8569,2.7637,2.7638,2.7638,2.7638,2.7722,2.7878,2.8048,2.8048,2.7486,2.6469,2.6469,2.6028,2.5303,2.4857,2.4222,2.3475,2.2898,2.2355,2.1879,2.1175,2.088,2.073,2.0038,1.9479,1.908,3.899,3.8871,3.8751,3.8392,3.7808,3.7255,3.6956,3.6372,3.5848,3.5549,3.5504,3.5504,3.5504,3.5504,3.5355,3.4981,3.4337,3.3799,3.344,3.2811,3.2003,3.1016,3.0013,2.8687,2.699,2.5964,2.5269,2.4826,2.3993,2.3853,2.4503,2.3987,2.3881,2.4133,2.3759,2.3595,2.3595,2.3595,2.4032,2.4752,2.4511,2.5166,2.6297,2.6085,2.6297,2.664,2.6251,2.5967,2.5715,2.519,2.4587,2.4026,2.3941,2.363,2.3249,2.2775,2.1862,2.0985,2.0951,1.99,1.9522,2.263,2.3911,2.5056,2.745,2.8494,2.886,2.8337,2.8015,2.7841,2.7909,2.7249,2.7131,2.8511,2.774,2.722,2.784,2.7762,2.7356,2.6683,2.6911,2.704,2.6901,2.6716,2.6836,2.7402,2.8112,2.8687,2.9042,2.977,3.0006,2.9651,2.845,2.7789,2.7789,2.8293,2.8616,2.8672,2.8372,2.7711,2.6773,2.6406,2.5465,2.4209,2.3894,2.3079,2.1934,2.1614,2.1145,2.0587,2.0273,2.0168,2.0124,1.9794,1.953,1.9406,3.8257,3.8167,3.8003,3.7494,3.6896,3.6492,3.6492,3.5923,3.5504,3.5504,3.5504,3.5504,3.5504,3.5355,3.5055,3.4517,3.3739,3.3051,3.2542,3.1614,3.0851,3.0313,2.9056,2.7602,2.6032,2.5654,2.5069,2.4114,2.4248,2.4365,2.4496,2.4399,2.4388,2.4373,2.3834,2.3595,2.3595,2.3595,2.3921,2.4389,2.4552,2.5128,2.6013,2.612,2.6401,2.6623,2.6065,2.5761,2.549,2.4729,2.4002,2.3359,2.319,2.2767,2.2163,2.1475,1.996,1.8591,1.8907,1.8318,1.8478,2.2396,2.4517,2.639,2.9331,3.0309,3.0435,2.9847,2.9076,2.8592,2.8943,2.801,2.7742,2.9368,2.8596,2.8161,2.9228,2.874,2.8253,2.8276,2.8287,2.8404,2.8644,2.8682,2.88,2.9123,2.9743,3.0108,3.0108,3.0801,3.1123,3.0954,2.9262,2.8313,2.8313,2.9032,2.9287,2.9026,2.8549,2.7758,2.6661,2.5926,2.4733,2.3225,2.2902,2.198,2.0707,2.0543,2.0168,1.969,1.969,1.969,1.969,1.969,1.969,1.9747,3.7494,3.7479,3.7464,3.7419,3.6896,3.6492,3.6492,3.5923,3.5504,3.5504,3.5504,3.5504,3.5504,3.4936,3.4532,3.4472,3.332,3.2557,3.2512,3.0761,2.9699,2.9654,2.8368,2.759,2.7449,2.6192,2.5756,2.6351,2.4486,2.3905,2.4596,2.3955,2.367,2.367,2.3625,2.3595,2.3595,2.3595,2.3921,2.443,2.495,2.5503,2.6049,2.647,2.6657,2.6691,2.664,2.6184,2.549,2.4729,2.4002,2.3274,2.2598,2.2344,2.2032,2.0701,1.8448,1.6635,1.7668,1.8555,2.011,2.3821,2.6123,2.8192,3.0847,3.1955,3.1968,3.0473,3.0348,3.0196,2.9185,2.889,2.9113,2.9926,3.0612,3.0941,3.0628,3.0872,3.0688,2.9602,2.9458,2.9476,2.9521,2.9497,2.9537,2.9555,2.9892,3.0108,3.0108,3.0801,3.0886,3.0209,3.0023,2.9939,2.9939,3.0002,2.952,2.8447,2.8388,2.7142,2.4807,2.41,2.3423,2.2675,2.1458,2.0835,2.0662,2.0034,1.9735,1.969,1.969,1.969,1.969,1.969,1.969,1.9747,3.6911,3.6836,3.6701,3.6297,3.6028,3.5878,3.5878,3.5669,3.5504,3.5504,3.5504,3.5504,3.5504,3.4891,3.4307,3.3903,3.3036,3.2332,3.1943,3.0447,2.9205,2.8382,2.7895,2.7186,2.6378,2.5853,2.5319,2.4732,2.394,2.3703,2.3984,2.3729,2.3595,2.3595,2.3595,2.3595,2.3595,2.3595,2.3845,2.427,2.493,2.5411,2.5816,2.6455,2.6691,2.664,2.6184,2.5541,2.4797,2.4052,2.3325,2.2682,2.2395,2.231,2.2086,2.0903,1.9542,1.8654,2.003,2.0111,2.0858,2.5246,2.8207,3.0947,3.435,3.4671,3.4002,3.321,3.1948,3.0902,3.0747,2.977,2.9381,3.0581,3.0489,3.048,3.1001,3.1088,3.1,3.075,3.0713,3.0818,3.1064,3.1082,3.1182,3.1368,3.1532,3.1462,3.119,3.1159,3.1072,3.0784,3.0345,3.0108,3.0108,3.0162,2.9609,2.8405,2.8012,2.67,2.4567,2.3924,2.3041,2.2024,2.1111,2.0468,2.0049,1.9794,1.969,1.969,1.969,1.9839,2.0035,1.9782,2.005,2.0532,3.6267,3.6178,3.6028,3.5579,3.5504,3.5504,3.5504,3.5504,3.5504,3.5504,3.5504,3.5429,3.5205,3.4577,3.3903,3.3245,3.2587,3.2018,3.1497,3.0313,2.8891,2.7335,2.726,2.6752,2.563,2.5405,2.4852,2.3924,2.3699,2.3595,2.3595,2.3595,2.3595,2.3595,2.3595,2.3595,2.3595,2.3794,2.3963,2.4261,2.5104,2.5576,2.5799,2.6472,2.6691,2.6623,2.6133,2.5473,2.4763,2.4255,2.3596,2.2953,2.2733,2.217,2.1616,2.1532,2.086,2.0655,2.2553,2.3214,2.4194,2.7745,3.0856,3.3848,3.6947,3.6692,3.5643,3.5102,3.3216,3.1714,3.1794,3.0631,3.0006,3.1038,3.0798,3.0777,3.1568,3.1541,3.151,3.1744,3.177,3.1887,3.2173,3.2303,3.2469,3.2709,3.2583,3.235,3.2039,3.1603,3.1389,3.1389,3.0777,3.0345,3.0108,2.9978,2.9255,2.7955,2.72,2.5892,2.4215,2.317,2.2218,2.135,2.0677,2.0197,1.9874,1.9874,1.998,2.007,1.9945,2.0054,2.0246,1.9839,2.0139,2.0797,3.5504,3.5504,3.5504,3.5504,3.5504,3.5504,3.5504,3.5504,3.5504,3.5504,3.5504,3.5235,3.4547,3.3888,3.323,3.2572,3.1913,3.1482,3.1467,3.0298,2.8682,2.6677,2.6602,2.6288,2.5615,2.4971,2.4582,2.4567,2.3939,2.3595,2.3595,2.3595,2.3595,2.3595,2.3595,2.3595,2.3638,2.4158,2.4389,2.4496,2.5577,2.5997,2.6033,2.6505,2.6691,2.6691,2.6691,2.6234,2.5609,2.5609,2.5101,2.4388,2.363,2.1921,2.0597,2.248,2.2259,2.2032,2.4755,2.7985,3.0695,3.1515,3.4101,3.6777,3.8121,3.7739,3.6788,3.5638,3.4083,3.267,3.1951,3.147,3.119,3.119,3.1914,3.2484,3.2484,3.2557,3.2614,3.2614,3.2614,3.2614,3.2614,3.2964,3.3214,3.3214,3.2777,3.25,3.25,3.2039,3.1771,3.1771,3.1393,3.0818,3.0091,2.9364,2.8367,2.7102,2.5897,2.4639,2.3336,2.1546,2.0722,2.0677,1.9989,1.9945,2.0314,2.0314,2.0583,2.0959,2.0483,2.0314,2.0246,1.9839,1.9965,2.0382,3.5504,3.5504,3.5504,3.5504,3.5504,3.5504,3.5504,3.5504,3.5504,3.5504,3.5504,3.5235,3.4547,3.3888,3.323,3.2572,3.1913,3.115,3.0223,2.937,2.8203,2.6662,2.7036,2.6752,2.563,2.542,2.4852,2.3909,2.3699,2.3595,2.3595,2.3595,2.3595,2.3595,2.3595,2.3595,2.3595,2.3752,2.3963,2.4268,2.5104,2.554,2.5782,2.6472,2.6691,2.6691,2.6691,2.6234,2.5609,2.5609,2.5101,2.4472,2.4222,2.3484,2.2857,2.3912,2.4478,2.5146,2.6846,2.9683,3.2495,3.3756,3.5843,3.8013,3.9641,3.8769,3.7402,3.6791,3.4889,3.3125,3.2398,3.1677,3.119,3.119,3.1914,3.2484,3.2484,3.3056,3.344,3.344,3.344,3.344,3.344,3.3534,3.3387,3.2821,3.1877,3.1309,3.1309,3.06,3.0197,3.0197,2.9276,2.8721,2.8501,2.9347,2.8871,2.7102,2.6738,2.5448,2.339,2.237,2.144,2.0677,1.9989,1.9945,2.0314,2.0314,2.0583,2.1007,2.0862,2.0975,2.1134,2.0382,2.0781,2.1645,3.5504,3.5504,3.5504,3.5504,3.5504,3.5504,3.5504,3.5504,3.54,3.513,3.51,3.4741,3.3799,3.335,3.2841,3.2183,3.1706,3.0986,2.9669,2.9205,2.8382,2.7036,2.7111,2.6572,2.5255,2.4956,2.4418,2.3595,2.3595,2.3595,2.3595,2.3595,2.3595,2.3595,2.3595,2.3595,2.3595,2.3837,2.4157,2.4591,2.525,2.5716,2.6082,2.6522,2.6691,2.6691,2.6691,2.6404,2.6048,2.6048,2.5541,2.4983,2.527,2.4628,2.3998,2.5217,2.6068,2.6957,2.855,3.108,3.3606,3.5005,3.6798,3.8615,3.9958,3.8792,3.7185,3.6247,3.4649,3.3075,3.1991,3.1487,3.1252,3.1411,3.2056,3.255,3.2745,3.3361,3.3678,3.3366,3.3605,3.3678,3.3366,3.333,3.2999,3.2192,3.1454,3.1048,3.1048,3.038,3.0011,3.0011,2.9155,2.8493,2.8032,2.8971,2.8605,2.6928,2.6485,2.5241,2.329,2.2582,2.1621,2.0537,2.0288,2.0431,2.0797,2.0797,2.107,2.1493,2.1323,2.1399,2.1521,2.0846,2.1181,2.1945,3.5504,3.5504,3.5504,3.5504,3.5504,3.5504,3.5504,3.5504,3.525,3.4562,3.4472,3.3978,3.2662,3.2512,3.2243,3.1541,3.1377,3.0851,2.9669,2.9475,2.8846,2.7619,2.6946,2.6033,2.4837,2.4133,2.3714,2.3595,2.3655,2.3655,2.3595,2.3595,2.3595,2.3595,2.3595,2.3595,2.3638,2.4116,2.4632,2.5182,2.5689,2.6227,2.6657,2.6691,2.6691,2.6691,2.6691,2.6691,2.6691,2.6691,2.6201,2.5744,2.6471,2.548,2.4431,2.6339,2.7118,2.7818,2.97,3.1953,3.4056,3.5326,3.693,3.8446,3.9273,3.8116,3.6374,3.4642,3.3691,3.2661,3.1008,3.0905,3.1244,3.1679,3.2179,3.2648,3.3075,3.3522,3.3532,3.2797,3.3293,3.3403,3.2695,3.2518,3.2139,3.1427,3.1274,3.1213,3.1213,3.0812,3.0584,3.0584,3.0226,2.9474,2.836,2.8444,2.7872,2.6691,2.5664,2.4492,2.3245,2.2551,2.1561,2.0382,2.0829,2.1213,2.1582,2.1582,2.1899,2.2254,2.1823,2.1658,2.1628,2.1213,2.1306,2.1642,3.5504,3.5504,3.5504,3.5504,3.5504,3.5504,3.5504,3.5504,3.525,3.4562,3.4472,3.3978,3.2662,3.2512,3.2243,3.1541,3.0597,2.9879,2.9609,2.8644,2.7874,2.7625,2.6946,2.6452,2.6168,2.551,2.4657,2.3595,2.4148,2.4118,2.3595,2.3595,2.3595,2.3595,2.3595,2.3595,2.3595,2.3709,2.4074,2.4632,2.5144,2.5689,2.6191,2.6556,2.6691,2.6691,2.6691,2.6691,2.6691,2.6691,2.6201,2.5744,2.6471,2.6016,2.5428,2.6437,2.7418,2.8373,2.9471,3.151,3.3584,3.4714,3.5609,3.6597,3.8016,3.7467,3.6193,3.4487,3.3115,3.1898,3.0889,3.0495,3.0569,3.1227,3.1986,3.255,3.2648,3.3314,3.3733,3.3568,3.3146,3.2856,3.2919,3.1918,3.1202,3.1033,3.029,2.9829,2.9829,2.9247,2.8917,2.8917,2.918,2.8894,2.8,2.8611,2.8188,2.6691,2.6455,2.5414,2.3753,2.3588,2.2541,2.0862,2.0975,2.1213,2.1582,2.1582,2.1899,2.2282,2.218,2.2152,2.2106,2.1628,2.1764,2.2079,3.5504,3.5504,3.5504,3.5504,3.5504,3.5504,3.5504,3.5504,3.5145,3.4143,3.4008,3.3499,3.2198,3.2048,3.1855,3.1497,3.0612,2.9894,2.9609,2.8622,2.7919,2.7625,2.6946,2.6587,2.6587,2.6258,2.542,2.4088,2.4403,2.4283,2.3595,2.3595,2.3595,2.3595,2.3595,2.3595,2.3595,2.3595,2.3724,2.3989,2.4458,2.479,2.5092,2.5866,2.6184,2.6184,2.6184,2.6017,2.5747,2.5574,2.5471,2.5485,2.5848,2.5909,2.5882,2.625,2.7318,2.8516,2.9071,3.0683,3.2356,3.3068,3.3906,3.4997,3.6694,3.5959,3.4433,3.2851,3.2,3.1087,2.9575,3.004,3.0692,3.0922,3.1847,3.2583,3.2809,3.339,3.3513,3.2742,3.2741,3.2585,3.2056,3.1336,3.0734,3.0356,2.9756,2.9434,2.9551,2.9484,2.9324,2.903,2.9655,2.9454,2.834,2.8737,2.8386,2.7272,2.7083,2.5992,2.4125,2.416,2.3107,2.1306,2.1524,2.1751,2.1928,2.1928,2.2141,2.249,2.2349,2.2388,2.2463,2.2073,2.1871,2.1756,3.5504,3.5504,3.5504,3.5504,3.5504,3.5504,3.5504,3.5504,3.5026,3.3679,3.3499,3.2991,3.1616,3.1482,3.1422,3.1317,3.0731,3.0088,2.946,2.8786,2.8173,2.764,2.7051,2.6752,2.6752,2.6752,2.6063,2.4582,2.4686,2.4388,2.3595,2.3595,2.3595,2.3595,2.349,2.349,2.3595,2.337,2.333,2.3406,2.3792,2.388,2.4001,2.516,2.5524,2.5423,2.5493,2.5079,2.4525,2.4418,2.4675,2.5045,2.516,2.5492,2.5873,2.5957,2.7029,2.8285,2.8776,2.9927,3.1115,3.1511,3.242,3.358,3.504,3.408,3.2485,3.091,3.0637,3.0127,2.8425,2.9644,3.0936,3.0994,3.191,3.2745,3.3154,3.3441,3.3109,3.1751,3.2233,3.2131,3.0864,3.0784,3.0536,2.9803,2.9607,2.9551,2.9696,3.017,3.0207,2.9715,3.0525,3.032,2.8972,2.9052,2.8791,2.8156,2.7549,2.6298,2.4501,2.4397,2.3318,2.1628,2.2106,2.2237,2.218,2.2321,2.2463,2.2625,2.2453,2.249,2.2582,2.2287,2.1748,2.1206,3.5504,3.5504,3.5504,3.5504,3.5504,3.5504,3.5504,3.5504,3.5026,3.3679,3.3499,3.2991,3.1616,3.1482,3.13,3.0702,3.0073,2.943,2.8771,2.8098,2.7664,2.7625,2.7535,2.749,2.749,2.749,2.6512,2.4582,2.5196,2.4837,2.3595,2.3595,2.3595,2.358,2.3041,2.3101,2.3535,2.2413,2.247,2.3312,2.3269,2.3428,2.3869,2.5126,2.5203,2.4681,2.498,2.4385,2.3676,2.4722,2.4683,2.4364,2.4982,2.5219,2.5331,2.5852,2.659,2.7592,2.8953,3.0028,3.0959,3.18,3.22,3.2383,3.2371,3.2474,3.2027,3.0079,2.9237,2.8943,2.928,2.9592,3.0368,3.198,3.2737,3.3124,3.3184,3.2939,3.2687,3.2467,3.1704,3.0901,3.0186,3.0341,3.033,2.9988,2.9939,2.9861,2.9713,2.9792,2.9792,2.9696,3.0488,3.0471,2.9588,3.0087,2.9978,2.9169,2.7846,2.6428,2.4982,2.3977,2.2849,2.1628,2.2106,2.2077,2.1748,2.2395,2.2527,2.236,2.2563,2.2527,2.2304,2.1853,2.1451,2.0959,3.5504,3.5504,3.5504,3.5504,3.5504,3.5504,3.5504,3.5175,3.4577,3.3619,3.317,3.2587,3.1644,3.1482,3.1347,3.1106,3.0477,2.9819,2.919,2.8517,2.7979,2.764,2.7625,2.7625,2.7625,2.7625,2.6782,2.5181,2.5465,2.5121,2.4163,2.3789,2.3595,2.3595,2.331,2.334,2.3565,2.2996,2.2773,2.2771,2.2959,2.2844,2.2665,2.39,2.4171,2.3907,2.3916,2.3449,2.296,2.3979,2.3857,2.3555,2.4979,2.5111,2.4942,2.6054,2.6791,2.7564,2.8971,2.9876,3.0526,3.0976,3.1454,3.1564,3.0713,3.0853,3.0929,3.0086,2.9114,2.8672,2.945,2.9936,3.0591,3.1706,3.2634,3.3214,3.3214,3.2848,3.2373,3.1738,3.1337,3.0887,3.0272,3.0636,3.0652,3.0052,2.978,2.9938,3.056,3.0499,3.0551,3.0806,3.1168,3.0833,2.9713,2.9945,2.979,2.916,2.7414,2.6144,2.5323,2.3933,2.2815,2.2003,2.1928,2.1928,2.2032,2.2354,2.2607,2.2773,2.2554,2.2226,2.1803,2.0999,2.0228,1.9378]},{"header":{"parameterUnit":"m.s-1","parameterCategory":1,"la1":30.6,"la2":28.766,"lo1":-90.7593,"lo2":-88.6598,"dy":0.0162,"dx":0.0183,"nx":116,"ny":114,"refTime":"2023-08-30T18:00:00:Z","depth":0,"parameterNumber":3,"parameterNumberName":"V-component_of_WINDS"},"data":[0.0,0.0,0.0,0.0,0.0,0.0,0.0,0.0,0.0,0.0,0.0,0.0,0.0,0.0,0.0,0.0,0.0,0.0,0.0,0.0,0.0,0.0,0.0,0.0,0.0,0.0,0.0,0.0,0.0,0.0,0.0,0.0,0.0,0.0,0.0,0.0,0.0,0.0,0.0,0.0,0.0,0.0,0.0,0.0,0.0,0.0,0.0,0.0,0.0,0.0,0.0,0.0,0.0,0.0,0.0,0.0,0.0,0.0,0.0,0.0,0.0,0.0,0.0,0.0,0.0,0.0,0.0,0.0,0.0,0.0,0.0,0.0,0.0,0.0,0.0,0.0,0.0,0.0,0.0,0.0,0.0,0.0,0.0,0.0,0.0,0.0,0.0,0.0,0.0,0.0,0.0,0.0,0.0,0.0,0.0,0.0,0.0,0.0,0.0,0.0,0.0,0.0,0.0,0.0,0.0,0.0,0.0,0.0,0.0,0.0,0.0,0.0,0.0,0.0,0.0,0.0,0.0,0.0,0.0,0.0,0.0,0.0,0.0,0.0,0.0,0.0,0.0,0.0,0.0,0.0,0.0,0.0,0.0,0.0,0.0,0.0,0.0,0.0,0.0,0.0,0.0,0.0,0.0,0.0,0.0,0.0,0.0,0.0,0.0,0.0,0.0,0.0,0.0,0.0,0.0,0.0,0.0,0.0,0.0,0.0,0.0,0.0,0.0,0.0,0.0,0.0,0.0,0.0,0.0,0.0,0.0,0.0,0.0,0.0,0.0,0.0,0.0,0.0,0.0,0.0,0.0,0.0,0.0,0.0,0.0,0.0,0.0,0.0,0.0,0.0,0.0,0.0,0.0,0.0,0.0,0.0,0.0,0.0,0.0,0.0,0.0,0.0,0.0,0.0,0.0,0.0,0.0,0.0,0.0,0.0,0.0,0.0,0.0,0.0,0.0,0.0,0.0,0.0,0.0,0.0,0.0,0.0,0.0,0.0,0.0,0.0,0.0,0.0,0.0,0.0,0.0,0.0,0.0,0.0,0.0,0.0,0.0,0.0,0.0,0.0,0.0,0.0,0.0,0.0,0.0,0.0,0.0,0.0,0.0,0.0,0.0,0.0,0.0,0.0,0.0,0.0,0.0,0.0,0.0,0.0,0.0,0.0,0.0,0.0,0.0,0.0,0.0,0.0,0.0,0.0,0.0,0.0,0.0,0.0,0.0,0.0,0.0,0.0,0.0,0.0,0.0,0.0,0.0,0.0,0.0,0.0,0.0,0.0,0.0,0.0,0.0,0.0,0.0,0.0,0.0,0.0,0.0,0.0,0.0,0.0,0.0,0.0,0.0,0.0,0.0,0.0,0.0,0.0,0.0,0.0,0.0,0.0,0.0,0.0,0.0,0.0,0.0,0.0,0.0,0.0,0.0,0.0,0.0,0.0,0.0,0.0,0.0,0.0,0.0,0.0,0.0,0.0,0.0,0.0,0.0,0.0,0.0,0.0,0.0,0.0,0.0,0.0,0.0,0.0,0.0,0.0,0.0,0.0,0.0,0.0,0.0,0.0,0.0,0.0,0.0,0.0,0.0,0.0,0.0,0.0,0.0,0.0,0.0,0.0,0.0,0.0,0.0,0.0,0.0,0.0,0.0,0.0,0.0,0.0,0.0,0.0,0.0,0.0,0.0,0.0,0.0,0.0,0.0,0.0,0.0,0.0,0.0,0.0,0.0,0.0,0.0,0.0,0.0,0.0,0.0,0.0,0.0,0.0,0.0,0.0,0.0,0.0,0.0,0.0,0.0,0.0,0.0,0.0,0.0,0.0,0.0,0.0,0.0,0.0,0.0,0.0,0.0,0.0,0.0,0.0,0.0,0.0,0.0,0.0,0.0,0.0,0.0,0.0,0.0,0.0,0.0,0.0,0.0,0.0,0.0,0.0,0.0,0.0,0.0,0.0,0.0,0.0,0.0,0.0,0.0,0.0,0.0,0.0,0.0,0.0,0.0,0.0,0.0,0.0,0.0,0.0,0.0,0.0,0.0,0.0,0.0,0.0,0.0,0.0,0.0,0.0,0.0,0.0,0.0,0.0,0.0,0.0,0.0,0.0,0.0,0.0,0.0,0.0,0.0,0.0,0.0,0.0,0.0,0.0,0.0,0.0,0.0,0.0,0.0,0.0,0.0,0.0,0.0,0.0,0.0,0.0,0.0,0.0,0.0,0.0,0.0,0.0,0.0,0.0,0.0,0.0,0.0,0.0,0.0,0.0,0.0,0.0,0.0,0.0,0.0,0.0,0.0,0.0,0.0,0.0,0.0,0.0,0.0,0.0,0.0,0.0,0.0,0.0,0.0,0.0,0.0,0.0,0.0,0.0,0.0,0.0,0.0,0.0,0.0,0.0,0.0,0.0,0.0,0.0,0.0,0.0,0.0,0.0,0.0,0.0,0.0,0.0,0.0,0.0,0.0,0.0,0.0,0.0,0.0,0.0,0.0,0.0,0.0,0.0,0.0,0.0,0.0,0.0,0.0,0.0,0.0,0.0,0.0,0.0,0.0,0.0,0.0,0.0,0.0,0.0,0.0,0.0,0.0,0.0,0.0,0.0,0.0,0.0,0.0,0.0,0.0,0.0,0.0,0.0,0.0,0.0,0.0,0.0,0.0,0.0,0.0,0.0,0.0,0.0,0.0,0.0,0.0,0.0,0.0,0.0,0.0,0.0,0.0,0.0,0.0,0.0,0.0,0.0,0.0,0.0,0.0,0.0,0.0,0.0,0.0,0.0,0.0,0.0,0.0,0.0,0.0,0.0,0.0,0.0,0.0,0.0,0.0,0.0,0.0,0.0,0.0,0.0,0.0,0.0,0.0,0.0,0.0,0.0,0.0,0.0,0.0,0.0,0.0,0.0,0.0,0.0,0.0,0.0,0.0,0.0,0.0,0.0,0.0,0.0,0.0,0.0,0.0,0.0,0.0,0.0,0.0,0.0,0.0,0.0,0.0,0.0,0.0,0.0,0.0,0.0,0.0,0.0,0.0,0.0,0.0,0.0,0.0,0.0,0.0,0.0,0.0,0.0,0.0,0.0,0.0,0.0,0.0,0.0,0.0,0.0,0.0,0.0,0.0,0.0,0.0,0.0,0.0,0.0,0.0,0.0,0.0,0.0,0.0,0.0,0.0,0.0,0.0,0.0,0.0,0.0,0.0,0.0,0.0,0.0,0.0,0.0,0.0,0.0,0.0,0.0,0.0,0.0,0.0,0.0,0.0,0.0,0.0,0.0,0.0,0.0,0.0,0.0,0.0,0.0,0.0,0.0,0.0,0.0,0.0,0.0,0.0,0.0,0.0,0.0,0.0,0.0,0.0,0.0,0.0,0.0,0.0,0.0,0.0,0.0,0.0,0.0,0.0,0.0,0.0,0.0,0.0,0.0,0.0,0.0,0.0,0.0,0.0,0.0,0.0,0.0,0.0,0.0,0.0,0.0,0.0,0.0,0.0,0.0,0.0,0.0,0.0,0.0,0.0,0.0,0.0,0.0,0.0,0.0,0.0,0.0,0.0,0.0,0.0,0.0,0.0,0.0,0.0,0.0,0.0,0.0,0.0,0.0,0.0,0.0,0.0,0.0,0.0,0.0,0.0,0.0,0.0,0.0,0.0,0.0,0.0,0.0,0.0,0.0,0.0,0.0,0.0,0.0,0.0,0.0,0.0,0.0,0.0,0.0,0.0,0.0,0.0,0.0,0.0,0.0,0.0,0.0,0.0,0.0,0.0,0.0,0.0,0.0,0.0,0.0,0.0,0.0,0.0,0.0,0.0,0.0,0.0,0.0,0.0,0.0,0.0,0.0,0.0,0.0,0.0,0.0,0.0,0.0,0.0,0.0,0.0,0.0,0.0,0.0,0.0,0.0,0.0,0.0,0.0,0.0,0.0,0.0,0.0,0.0,0.0,0.0,0.0,0.0,0.0,0.0,0.0,0.0,0.0,0.0,0.0,0.0,0.0,0.0,0.0,0.0,0.0,0.0,0.0,0.0,0.0,0.0,0.0,0.0,0.0,0.0,0.0,0.0,0.0,0.0,0.0,0.0,0.0,0.0,0.0,0.0,0.0,0.0,0.0,0.0,0.0,0.0,0.0,0.0,0.0,0.0,0.0,0.0,0.0,0.0,0.0,0.0,0.0,0.0,0.0,0.0,0.0,0.0,0.0,0.0,0.0,0.0,0.0,0.0,0.0,0.0,0.0,0.0,0.0,0.0,0.0,0.0,0.0,0.0,0.0,0.0,0.0,0.0,0.0,0.0,0.0,0.0,0.0,0.0,0.0,0.0,0.0,0.0,0.0,0.0,0.0,0.0,0.0,0.0,0.0,0.0,0.0,0.0,0.0,0.0,0.0,0.0,0.0,0.0,0.0,0.0,0.0,0.0,0.0,0.0,0.0,0.0,0.0,0.0,0.0,0.0,0.0,0.0,0.0,0.0,0.0,0.0,0.0,0.0,0.0,0.0,0.0,0.0,0.0,0.0,0.0,0.0,0.0,0.0,0.0,0.0,0.0,0.0,0.0,0.0,0.0,0.0,0.0,0.0,0.0,0.0,0.0,0.0,0.0,0.0,0.0,0.0,0.0,0.0,0.0,0.0,0.0,0.0,0.0,0.0,0.0,0.0,0.0,0.0,0.0,0.0,0.0,0.0,0.0,0.0,0.0,0.0,0.0,0.0,0.0,0.0,0.0,0.0,0.0,0.0,0.0,0.0,0.0,0.0,0.0,0.0,0.0,0.0,0.0,0.0,0.0,0.0,0.0,0.0,0.0,0.0,0.0,0.0,0.0,0.0,0.0,0.0,0.0,0.0,0.0,0.0,0.0,0.0,0.0,0.0,0.0,0.0,0.0,0.0,0.0,0.0,0.0,0.0,0.0,0.0,0.0,0.0,0.0,0.0,0.0,0.0,0.0,0.0,0.0,0.0,0.0,0.0,0.0,0.0,0.0,0.0,0.0,0.0,0.0,0.0,0.0,0.0,0.0,0.0,0.0,0.0,0.0,0.0,0.0,0.0,0.0,0.0,0.0,0.0,0.0,0.0,0.0,0.0,0.0,0.0,0.0,0.0,0.0,0.0,0.0,0.0,0.0,0.0,0.0,0.0,0.0,0.0,0.0,0.0,0.0,0.0,0.0,0.0,0.0,0.0,0.0,0.0,0.0,0.0,0.0,0.0,0.0,0.0,0.0,0.0,0.0,0.0,0.0,0.0,0.0,0.0,0.0,0.0,0.0,0.0,0.0,0.0,0.0,0.0,0.0,0.0,0.0,0.0,0.0,0.0,0.0,0.0,0.0,0.0,0.0,0.0,0.0,0.0,0.0,0.0,0.0,0.0,0.0,0.0,0.0,0.0,0.0,0.0,0.0,0.0,0.0,0.0,0.0,0.0,0.0,0.0,0.0,0.0,0.0,0.0,0.0,0.0,0.0,0.0,0.0,0.0,0.0,0.0,0.0,0.0,0.0,0.0,0.0,0.0,0.0,0.0,0.0,0.0,0.0,0.0,0.0,0.0,0.0,0.0,0.0,0.0,0.0,0.0,0.0,0.0,0.0,0.0,0.0,0.0,0.0,0.0,0.0,0.0,0.0,0.0,0.0,0.0,0.0,0.0,0.0,0.0,0.0,0.0,0.0,0.0,0.0,0.0,0.0,0.0,0.0,0.0,0.0,0.0,0.0,0.0,0.0,0.0,0.0,0.0,0.0,0.0,0.0,0.0,0.0,0.0,0.0,0.0,0.0,0.0,0.0,0.0,0.0,0.0,0.0,0.0,0.0,0.0,0.0,0.0,0.0,0.0,0.0,0.0,0.0,0.0,0.0,0.0,0.0,0.0,0.0,0.0,0.0,0.0,0.0,0.0,0.0,0.0,0.0,0.0,0.0,0.0,0.0,0.0,0.0,0.0,0.0,0.0,0.0,0.0,0.0,0.0,0.0,0.0,0.0,0.0,0.0,0.0,0.0,0.0,0.0,0.0,0.0,0.0,0.0,0.0,0.0,0.0,0.0,0.0,0.0,0.0,0.0,0.0,0.0,0.0,0.0,0.0,0.0,0.0,0.0,0.0,0.0,0.0,0.0,0.0,0.0,0.0,2.1267,2.0953,0.0,0.0,0.0,0.0,0.0,0.0,0.0,0.0,0.0,0.0,0.0,0.0,0.0,0.0,0.0,0.0,0.0,0.0,0.0,0.0,0.0,0.0,0.0,0.0,0.0,0.0,0.0,0.0,0.0,0.0,0.0,0.0,0.0,0.0,0.0,0.0,0.0,2.1882,2.1619,2.1204,2.0731,2.1204,2.1455,2.1493,0.0,0.0,0.0,0.0,0.0,0.0,0.0,0.0,0.0,0.0,0.0,0.0,0.0,0.0,0.0,0.0,0.0,0.0,0.0,0.0,0.0,0.0,0.0,0.0,0.0,0.0,0.0,0.0,0.0,0.0,0.0,0.0,0.0,0.0,0.0,0.0,0.0,0.0,0.0,0.0,0.0,0.0,0.0,0.0,0.0,0.0,0.0,0.0,0.0,0.0,0.0,0.0,0.0,0.0,0.0,0.0,0.0,0.0,0.0,0.0,0.0,0.0,0.0,0.0,0.0,0.0,0.0,0.0,0.0,0.0,2.2749,2.2121,0.0,0.0,0.0,0.0,0.0,0.0,0.0,0.0,0.0,0.0,0.0,0.0,0.0,0.0,0.0,0.0,0.0,0.0,0.0,0.0,0.0,0.0,0.0,2.3234,2.3929,2.4117,2.4469,2.4682,0.0,0.0,0.0,0.0,0.0,0.0,0.0,2.3201,2.3163,2.2611,2.2046,2.1543,2.1117,2.2033,2.2447,2.2447,2.2447,0.0,0.0,0.0,0.0,0.0,0.0,0.0,0.0,0.0,0.0,0.0,0.0,0.0,0.0,0.0,0.0,0.0,0.0,0.0,0.0,0.0,0.0,0.0,0.0,0.0,0.0,0.0,0.0,0.0,0.0,0.0,0.0,0.0,0.0,0.0,0.0,0.0,0.0,0.0,0.0,0.0,0.0,0.0,0.0,0.0,0.0,0.0,0.0,0.0,0.0,0.0,0.0,0.0,0.0,0.0,0.0,0.0,0.0,0.0,0.0,0.0,0.0,0.0,2.6264,2.6753,2.6753,2.6753,2.649,2.595,2.4594,2.3716,2.3403,2.3941,0.0,0.0,0.0,0.0,0.0,0.0,0.0,0.0,0.0,0.0,0.0,0.0,0.0,0.0,0.0,0.0,0.0,0.0,0.0,0.0,0.0,2.2883,2.364,2.4632,2.4343,2.4104,2.4104,0.0,0.0,0.0,0.0,0.0,2.4494,2.4556,2.433,2.3778,2.3201,2.2874,2.2811,2.2902,2.2965,2.2965,2.2965,2.3002,2.3125,0.0,0.0,0.0,0.0,0.0,0.0,0.0,0.0,0.0,0.0,0.0,0.0,0.0,0.0,0.0,0.0,0.0,0.0,0.0,0.0,0.0,0.0,0.0,0.0,0.0,0.0,0.0,0.0,0.0,0.0,0.0,0.0,0.0,0.0,0.0,0.0,0.0,0.0,0.0,0.0,0.0,2.4607,2.4607,0.0,0.0,0.0,0.0,0.0,0.0,0.0,0.0,0.0,0.0,0.0,0.0,0.0,2.79,2.598,2.7517,2.788,2.6967,2.7595,2.7896,2.7896,2.7896,2.7846,2.7758,2.7544,0.0,2.4607,2.4682,0.0,0.0,0.0,0.0,0.0,0.0,0.0,0.0,0.0,0.0,0.0,0.0,0.0,0.0,0.0,0.0,0.0,0.0,0.0,0.0,0.0,2.3188,2.428,2.4782,2.5172,2.5385,2.5385,2.5297,0.0,0.0,0.0,2.482,2.482,2.482,2.4556,2.4004,2.4343,2.4205,2.3627,2.3941,2.4079,2.4092,2.4393,2.418,2.364,2.3954,0.0,0.0,0.0,0.0,0.0,0.0,0.0,0.0,0.0,0.0,0.0,0.0,0.0,0.0,0.0,0.0,0.0,0.0,0.0,0.0,0.0,0.0,0.0,0.0,0.0,0.0,0.0,0.0,0.0,0.0,0.0,0.0,0.0,0.0,0.0,0.0,0.0,0.0,0.0,2.4757,2.5146,2.4858,2.5084,2.5317,0.0,0.0,0.0,0.0,0.0,0.0,0.0,0.0,0.0,2.98,3.0793,3.0799,2.9657,3.0312,3.0316,2.9567,2.953,2.9352,2.9051,2.9051,2.9051,2.9051,2.9599,2.9132,2.7915,2.7579,2.738,2.7354,0.0,0.0,0.0,0.0,2.7803,2.7533,0.0,0.0,0.0,0.0,0.0,0.0,0.0,0.0,0.0,0.0,0.0,0.0,2.2184,2.351,2.4556,2.4983,2.5649,2.6038,2.6038,2.5762,2.5536,2.541,2.5481,2.5431,2.5234,2.5247,2.5172,2.5046,2.5561,2.541,2.4632,2.4895,2.5096,2.5259,2.5649,2.5285,2.4431,2.4845,2.4456,2.3541,0.0,0.0,0.0,0.0,0.0,0.0,0.0,0.0,0.0,0.0,0.0,0.0,0.0,0.0,0.0,0.0,0.0,0.0,0.0,0.0,0.0,0.0,0.0,0.0,0.0,0.0,0.0,0.0,0.0,0.0,0.0,0.0,0.0,0.0,0.0,0.0,0.0,2.5912,2.6038,2.5511,2.6101,2.6657,0.0,0.0,0.0,0.0,0.0,0.0,3.1528,3.2141,3.2539,3.273,3.3604,3.3705,3.2989,3.3088,3.2725,3.1911,3.128,3.0829,3.0495,3.0292,3.0292,3.057,3.1254,3.1441,3.1284,3.0304,2.9807,2.9742,2.9984,3.0107,3.0073,3.0305,3.0263,3.0035,0.0,0.0,0.0,0.0,0.0,0.0,0.0,0.0,0.0,0.0,0.0,2.2286,2.3958,2.3556,2.3853,2.5423,2.5159,2.4908,2.4908,2.5335,2.5372,2.4883,2.6582,2.7206,2.6445,2.6445,2.6879,2.7896,2.6904,2.6458,2.6395,2.5799,2.585,2.6445,2.6471,2.6088,2.5523,2.5548,2.5247,2.4745,2.477,0.0,0.0,0.0,0.0,0.0,0.0,0.0,0.0,0.0,0.0,0.0,0.0,0.0,0.0,0.0,0.0,0.0,0.0,0.0,0.0,0.0,0.0,0.0,0.0,0.0,0.0,0.0,0.0,0.0,0.0,0.0,0.0,0.0,0.0,0.0,0.0,0.0,0.0,2.7218,2.8446,0.0,0.0,0.0,0.0,3.1638,3.2521,3.3561,3.49,3.5731,3.6389,3.6692,3.7013,3.6631,3.5467,3.5693,3.5023,3.3449,3.2568,3.2198,3.2464,3.1536,3.1609,3.2464,3.2536,3.3017,3.3665,3.1688,3.0904,3.086,3.0304,3.0884,3.1982,3.1377,3.1684,3.2124,0.0,0.0,0.0,0.0,0.0,0.0,0.0,0.0,2.3877,2.371,2.3929,2.4157,2.4288,2.464,2.5101,2.5577,2.5857,2.6052,2.6052,2.6301,2.6823,2.7461,2.7577,2.7634,2.7507,2.7519,2.7708,2.8109,2.8059,2.7871,2.7507,2.7306,2.7318,2.7532,2.7896,2.7733,2.7205,2.7205,2.6477,2.5322,2.5322,2.487,0.0,0.0,0.0,0.0,0.0,0.0,0.0,0.0,0.0,0.0,0.0,0.0,0.0,0.0,0.0,0.0,0.0,0.0,0.0,0.0,0.0,0.0,0.0,0.0,0.0,0.0,0.0,0.0,0.0,0.0,0.0,0.0,0.0,0.0,0.0,0.0,0.0,2.9366,3.0487,0.0,3.2176,3.3346,3.4445,3.5375,3.6501,3.7597,3.8485,3.8847,3.925,3.9816,3.9533,3.9134,3.866,3.7692,3.6458,3.5124,3.4098,3.3279,3.2593,3.2249,3.2321,3.2593,3.3241,3.3671,3.3984,3.3914,3.3886,3.3857,3.3623,3.3877,3.4262,3.4026,3.4159,3.4211,0.0,0.0,0.0,0.0,0.0,0.0,0.0,0.0,2.4566,2.4373,2.5032,2.5449,2.5253,2.5928,2.613,2.5681,2.6168,2.6485,2.6485,2.6612,2.7414,2.8996,2.8544,2.8343,2.8567,2.8419,2.8486,2.8674,2.885,2.8737,2.8386,2.8197,2.821,2.8398,2.8762,2.8837,2.8674,2.8674,2.7708,2.6176,2.6364,2.6013,2.5209,0.0,0.0,0.0,0.0,0.0,0.0,0.0,0.0,0.0,0.0,0.0,0.0,0.0,0.0,0.0,0.0,0.0,0.0,0.0,0.0,0.0,0.0,0.0,0.0,0.0,0.0,0.0,0.0,0.0,0.0,0.0,0.0,0.0,0.0,3.0484,3.1358,3.1611,3.3179,3.4432,3.5119,3.6485,3.7588,3.8336,3.9245,4.0038,4.0696,4.0726,4.1025,4.1698,4.0662,4.0425,4.1055,3.9127,3.7777,3.7155,3.5878,3.4933,3.4228,3.386,3.3833,3.3929,3.4578,3.4733,3.4543,3.5213,3.5504,3.5504,3.5504,3.5504,3.5504,3.5504,3.5504,3.5299,0.0,0.0,0.0,0.0,0.0,0.0,0.0,2.4223,2.4896,2.5585,2.5663,2.6069,2.6986,2.7239,2.6945,2.5826,2.5998,2.6219,2.6219,2.6206,2.7072,2.9045,2.9349,2.9465,2.9447,2.9081,2.9214,2.9792,2.9227,2.895,2.895,2.8411,2.8448,2.895,2.895,2.9264,2.9792,2.9792,2.885,2.7465,2.7968,2.7528,2.6571,0.0,0.0,0.0,0.0,0.0,0.0,0.0,0.0,0.0,0.0,0.0,0.0,0.0,0.0,0.0,0.0,0.0,0.0,0.0,0.0,0.0,0.0,0.0,0.0,0.0,0.0,0.0,0.0,0.0,0.0,0.0,0.0,0.0,3.2319,3.3264,3.4086,3.4166,3.648,3.7895,3.7389,3.8662,3.9783,4.0442,4.0502,4.0786,4.1414,4.1474,4.1773,4.2372,4.0675,4.0567,4.2357,4.0003,3.8964,3.9439,3.7872,3.7214,3.7366,3.6456,3.6274,3.6507,3.6492,3.6133,3.5564,3.5549,3.5534,3.5534,3.5519,3.5504,3.5504,3.5504,3.5504,3.5359,0.0,0.0,0.0,0.0,0.0,0.0,2.4268,2.4911,2.5749,2.6886,2.7452,2.7979,2.8596,2.8694,2.8577,2.813,2.8263,2.8398,2.8398,2.8584,2.8911,2.9504,2.9523,2.9588,2.9668,2.9202,2.9214,2.9792,2.9628,2.9553,2.9553,2.9402,2.9415,2.9553,2.9553,2.9641,2.9792,2.9792,2.9948,3.0064,2.9386,2.893,2.869,0.0,0.0,0.0,0.0,0.0,0.0,0.0,0.0,0.0,0.0,0.0,0.0,0.0,0.0,0.0,0.0,0.0,0.0,0.0,0.0,0.0,0.0,0.0,0.0,0.0,0.0,0.0,0.0,0.0,0.0,0.0,3.5666,3.5656,3.4768,3.5658,3.6733,3.7537,3.8652,3.9717,4.084,4.1353,4.1818,4.2476,4.297,4.3105,4.2806,4.3703,4.3868,4.309,4.255,4.2312,4.2372,4.1275,4.0456,4.0127,3.9698,3.9013,3.8123,3.7883,3.754,3.7135,3.6686,3.6641,3.6851,3.6402,3.6222,3.6178,3.5684,3.5504,3.5504,3.5504,3.5504,3.5439,0.0,0.0,0.0,0.0,0.0,0.0,2.4522,2.542,2.6303,2.7066,2.8233,2.8996,2.8915,2.9464,2.9347,2.8366,2.8647,2.8814,2.8555,2.998,3.0499,2.978,3.0418,3.0388,2.9415,2.934,2.9453,2.9792,2.9792,2.9792,2.9792,2.9792,2.9792,2.9804,3.003,3.0213,3.0457,3.0933,3.1572,3.2226,3.2212,3.1662,3.0767,3.0427,3.0223,2.9862,2.9062,2.8558,2.8221,2.7111,0.0,0.0,0.0,0.0,0.0,0.0,0.0,0.0,0.0,0.0,0.0,0.0,0.0,0.0,0.0,0.0,0.0,0.0,0.0,0.0,0.0,0.0,0.0,0.0,3.8073,3.8716,3.8793,3.8845,3.9249,4.0371,4.1179,4.2172,4.3524,4.3584,4.3748,4.4122,4.4511,4.4556,4.4182,4.4885,4.4945,4.4182,4.3634,4.3323,4.318,4.21,4.137,4.122,4.0935,4.0397,3.9634,3.9364,3.8871,3.8212,3.7569,3.733,3.736,3.6746,3.6492,3.6447,0.0,0.0,0.0,0.0,3.5504,3.5504,0.0,0.0,0.0,0.0,0.0,0.0,2.4776,2.5899,2.6752,2.6916,2.8532,2.9381,2.8611,2.9687,2.9704,2.7661,2.8183,2.845,2.8074,3.0777,3.1725,3.0238,3.1571,3.1374,2.9239,2.9605,2.9792,2.9792,2.9792,2.9792,2.9792,2.9997,3.0099,3.0125,3.076,3.1229,3.1655,3.2718,3.345,3.4022,3.5454,3.474,3.2861,3.2458,3.2207,3.1999,3.1453,3.1219,3.1059,3.0035,0.0,0.0,0.0,0.0,0.0,0.0,0.0,0.0,0.0,0.0,0.0,0.0,0.0,0.0,0.0,0.0,0.0,0.0,0.0,0.0,0.0,0.0,0.0,0.0,4.0457,4.2147,4.3389,4.2269,4.1729,4.2777,4.3803,4.4691,4.5349,4.5334,4.5334,4.5409,4.5409,4.5379,4.5289,4.5439,0.0,0.0,0.0,4.4001,4.4317,4.2685,4.207,4.2462,4.1878,4.1564,4.1474,4.0891,4.0217,3.9499,3.8796,3.8182,3.7584,3.6956,3.6701,3.6671,3.6462,3.6073,3.5609,3.5534,3.5504,3.5504,0.0,0.0,0.0,0.0,0.0,0.0,2.6048,2.6871,2.7769,2.8861,2.9774,3.0257,3.0075,3.0306,3.0127,2.9212,2.9722,3.0476,3.1441,3.1496,3.1763,3.2439,3.1375,3.0811,3.0799,3.0152,2.9792,2.9792,2.9792,2.9792,2.9804,3.1125,3.1703,3.1806,3.319,3.3834,3.3963,3.4197,3.4734,3.5583,3.5856,3.5382,3.4622,3.5336,3.4738,3.3482,3.2987,3.2602,3.211,3.1061,3.0458,2.9913,2.918,2.8834,0.0,0.0,0.0,0.0,0.0,0.0,0.0,0.0,0.0,0.0,0.0,0.0,0.0,0.0,0.0,0.0,0.0,0.0,0.0,4.1294,4.2806,4.4018,4.4811,4.4631,4.4549,4.4718,4.5012,4.5379,4.6052,4.5618,4.5529,4.6082,4.6127,4.5873,4.5334,4.6322,4.6426,4.5334,4.5575,4.5278,4.4332,4.3924,4.3537,4.3135,4.3015,0.0,4.2162,4.2043,4.1324,4.0172,3.9514,3.9155,3.8975,3.8302,3.8018,3.7868,3.6312,3.5938,3.6237,3.5699,3.5504,3.5504,0.0,0.0,0.0,0.0,0.0,0.0,2.6931,2.7649,2.8442,2.9445,3.0118,3.0507,3.0507,3.0223,2.9924,2.9609,2.9864,3.0597,3.1943,3.2537,3.2908,3.3105,3.3171,3.2781,3.1888,3.1271,3.107,3.1206,3.107,3.1213,3.1717,3.2907,3.3403,3.343,3.4548,3.5097,3.5362,3.5939,3.6618,3.7237,3.759,3.7325,3.6693,3.6909,3.6045,3.4758,3.4839,3.4476,3.3873,3.2823,3.2055,3.1361,3.0823,3.0311,2.9865,0.0,0.0,0.0,0.0,0.0,0.0,0.0,0.0,0.0,0.0,0.0,0.0,0.0,0.0,3.7868,3.9185,0.0,4.1833,4.3135,4.4167,4.5035,4.5723,4.5813,4.5813,4.5813,4.5813,4.6067,4.6756,4.6501,4.6441,4.68,4.6815,4.6666,4.6322,4.6935,4.6995,4.6322,4.6636,4.6337,4.5334,4.5319,4.4975,4.4317,4.3988,4.3643,4.3314,4.2656,4.1998,4.1324,4.0337,3.9903,3.9828,3.8811,3.8392,3.8227,3.6626,3.6193,3.6417,3.5744,3.5504,3.5504,0.0,0.0,0.0,0.0,0.0,0.0,0.0,2.8353,2.9026,2.9684,3.0313,3.0657,3.0507,2.9953,2.9579,2.9579,2.9699,3.0432,3.2003,3.3724,3.4451,3.3949,3.5247,3.5125,3.3324,3.2874,3.2739,3.2966,3.2739,3.3043,3.3859,3.4831,3.5255,3.5283,3.6178,3.675,3.7099,3.8072,3.8679,3.9005,3.9439,3.92,3.8542,3.8003,3.7,3.5908,3.6193,3.6028,3.5538,3.4587,3.3756,3.2974,3.2556,3.2011,3.1487,3.1378,3.1912,0.0,0.0,0.0,0.0,0.0,0.0,0.0,0.0,3.6641,3.709,3.8646,3.9619,4.0666,4.2267,4.321,4.3973,4.4601,4.5364,4.6067,4.6621,4.6815,4.689,4.689,4.6785,4.692,4.7444,4.7489,4.7444,4.7309,4.7309,4.7309,4.7309,4.7309,4.7309,4.7309,4.7309,4.6995,4.6337,4.6322,4.5978,4.5289,4.4631,4.4317,4.4272,4.309,4.2476,4.2374,4.0965,4.0397,4.0307,3.9095,3.8586,3.8482,3.7315,3.6851,3.6746,3.5833,3.5504,3.5504,0.0,0.0,0.0,0.0,0.0,0.0,0.0,0.0,2.9699,3.0313,3.1001,3.118,3.0567,2.9953,2.9579,2.9579,3.0088,3.1465,3.3978,3.4921,3.5827,3.688,3.6324,3.5913,3.5626,3.4738,3.4319,3.44,3.4319,3.4422,3.451,3.6678,3.7627,3.7685,3.9768,4.0754,4.0785,4.0934,4.1025,4.0995,4.0502,3.9888,3.929,3.9215,3.8362,3.706,3.5998,3.5953,3.6282,3.5553,3.5072,3.4694,3.4636,3.4995,3.4996,3.3128,3.3762,3.483,3.3529,3.4332,3.5881,3.7749,3.7734,3.7898,0.0,4.0726,4.0786,4.0995,4.2028,4.297,4.318,4.4242,4.5304,4.5992,4.7145,4.7982,4.8057,4.8566,4.894,4.894,4.8416,4.8102,4.8162,4.8177,4.7938,4.7354,4.7309,4.7309,4.7309,4.7309,4.7309,4.7309,4.7309,4.6995,4.6337,4.6322,4.5978,4.5289,4.4631,4.4317,4.4287,4.3554,4.291,4.2374,4.0965,4.0397,4.0337,3.9604,3.9305,3.923,3.8482,3.8182,3.7958,3.6163,3.5504,3.5504,0.0,0.0,0.0,0.0,0.0,0.0,0.0,0.0,0.0,3.0417,3.0447,3.0283,2.9998,2.9729,2.9579,2.9579,3.0866,3.2302,3.3799,3.5609,3.703,3.7943,3.7979,3.778,3.7382,3.6489,3.6084,3.6228,3.6084,3.6456,3.7448,3.8767,3.9623,4.0007,4.0964,4.1384,4.1384,4.1384,4.1384,4.1354,4.1085,4.0576,3.9948,3.9574,3.8826,3.7853,3.6941,3.6552,0.0,3.506,3.4569,3.4416,3.4416,3.4358,3.434,3.4332,3.4935,3.5529,3.5629,3.6669,3.7973,3.8796,3.9649,4.0576,4.1698,4.2237,4.2731,4.3494,4.4721,4.5768,4.6142,4.698,4.7698,4.7997,4.8506,4.885,4.885,4.909,4.9269,4.9269,4.9015,4.885,4.885,4.885,4.8745,4.8476,4.8087,4.7878,4.7878,4.7519,4.7309,4.7309,4.7309,4.7174,4.689,4.689,4.6756,4.6456,4.5798,4.5274,4.487,4.4212,4.3344,4.2312,4.1369,4.0756,4.0352,3.9694,3.9424,3.9349,3.8661,3.8392,3.8197,3.6656,3.6073,3.6028,0.0,0.0,0.0,0.0,0.0,0.0,0.0,0.0,0.0,0.0,2.9864,2.9579,2.9579,2.9579,2.9654,2.9819,3.148,3.2946,3.3978,3.6163,3.7868,3.8901,3.9424,3.9544,3.9215,3.8532,3.8296,3.8497,3.8296,3.8782,3.9978,4.0636,4.1294,4.1923,4.2102,4.2192,4.2192,4.2192,4.2087,4.1908,4.1728,4.125,4.0576,3.9738,3.899,3.8287,3.7449,3.6866,3.6209,3.4394,3.3998,3.4257,3.407,3.3969,3.4172,3.5406,3.5654,3.5789,3.706,3.8257,3.9275,3.9828,4.1309,4.2686,4.2865,4.3554,4.4481,4.5618,4.677,4.7773,4.8431,4.894,4.9269,4.9269,4.9419,4.9538,4.9538,4.9538,4.9538,4.9538,4.9374,4.9269,4.9269,4.9269,4.9269,4.9269,4.8656,4.8282,4.8282,4.7653,4.7309,4.7309,4.7309,4.7309,4.7309,4.7309,4.7309,4.7294,4.6636,4.5963,4.5274,4.4421,4.3524,4.2596,4.1938,4.128,4.0621,3.9963,3.9589,3.9364,3.8871,3.8676,3.8542,3.7419,3.6896,3.6656,0.0,0.0,0.0,0.0,0.0,0.0,0.0,0.0,0.0,0.0,0.0,0.0,0.0,2.9579,2.9819,3.0417,3.1734,3.335,3.531,3.6686,3.8287,4.0247,4.0367,4.0651,4.128,4.128,4.128,4.1265,4.128,4.1294,4.1324,4.1998,4.2641,4.3299,4.3943,4.4227,4.4227,4.4227,4.3853,4.3225,4.2581,4.1938,4.1205,3.9903,3.899,3.8227,3.6971,3.6507,3.6134,3.3966,3.3994,3.4903,3.4365,3.4987,3.6011,3.6327,3.6013,3.5789,3.706,3.7898,3.8886,4.0831,4.2312,4.3464,4.4107,4.5274,4.6426,4.71,4.7788,4.8461,4.9119,4.9254,4.9269,4.9269,4.9793,5.0212,5.0212,5.0212,5.0212,5.0212,4.9658,4.9269,4.9269,4.9269,4.9269,4.9269,4.8656,4.8282,4.8282,4.7653,4.7309,4.7309,4.7309,4.7309,4.7309,4.7309,4.7309,4.7294,4.6636,4.5963,4.5244,4.3958,4.3344,4.3269,4.2611,4.1953,4.1294,4.0651,3.9993,3.9424,3.9394,3.9394,3.9305,3.8601,3.7928,3.73,0.0,0.0,0.0,0.0,0.0,0.0,0.0,0.0,0.0,0.0,0.0,0.0,0.0,0.0,0.0,0.0,3.2003,3.317,3.4726,3.6058,3.7689,3.9664,4.0172,4.0711,4.1369,4.1384,4.1384,4.1384,4.1384,4.1609,4.2043,4.2701,4.3359,4.4003,4.4661,4.496,4.493,4.4496,4.4436,4.4511,4.297,4.2222,4.1833,4.0083,3.8721,3.7569,0.0,3.6118,3.6127,3.3642,3.393,3.5052,3.3604,3.4027,3.5059,3.5141,3.5923,3.6866,3.7285,3.9185,4.1294,4.2402,4.4003,4.5603,4.6696,4.7294,4.7683,4.7908,4.8132,4.8222,4.7997,4.8327,4.876,4.9194,4.9823,5.0242,5.0242,5.0616,5.0406,4.909,4.9134,4.9105,4.8656,4.9015,4.9449,4.9883,4.9314,4.894,4.894,4.8312,4.7758,4.7309,4.7309,4.7309,4.7309,4.7309,4.7309,4.7294,4.6172,4.5529,4.5244,4.3928,4.3329,4.3299,4.2641,4.2237,4.1983,4.1324,4.0666,4.0068,4.0068,3.9798,3.9394,3.9155,3.8931,3.8586,0.0,0.0,0.0,0.0,0.0,0.0,0.0,0.0,0.0,0.0,0.0,0.0,0.0,0.0,0.0,0.0,0.0,3.2976,3.4053,3.5385,3.6911,3.8631,3.9334,3.9993,4.0666,4.0681,4.0681,4.0681,4.092,4.125,4.1683,4.2566,4.3329,4.3988,4.4646,4.4945,4.4915,4.4496,4.4152,4.3793,4.2521,4.1579,4.0771,3.9275,3.8033,0.0,3.5893,3.5774,3.574,3.3029,3.3255,3.4405,3.2936,3.3527,3.4936,3.5385,3.6582,3.7973,3.8916,4.107,4.3284,4.4182,4.5723,4.7249,4.8087,4.8476,4.8641,4.8641,4.8446,4.8162,4.7743,4.7803,4.8072,4.8506,4.891,4.9359,4.9823,4.9853,4.9523,4.873,4.8805,4.8656,4.7997,4.8536,4.9179,4.9838,4.9718,4.9404,4.894,4.8521,4.7982,4.7324,4.7309,4.7309,4.7309,4.7309,4.7309,4.7294,4.6187,4.5529,4.5259,4.4182,4.3554,4.3314,4.2895,4.2581,4.2404,4.1908,4.1205,4.0397,4.0397,3.9993,3.9424,3.9424,3.9424,3.926,0.0,0.0,0.0,0.0,0.0,0.0,0.0,0.0,0.0,0.0,0.0,0.0,0.0,0.0,0.0,0.0,0.0,0.0,3.3395,3.4681,3.5968,3.7255,3.7973,3.8661,3.9349,3.9394,3.9424,3.9424,4.0053,4.0352,4.0382,4.1669,4.2581,4.321,4.3868,4.4167,4.4167,4.4122,4.306,4.1369,4.1265,4.0113,3.8362,3.7644,3.7,3.6402,3.5699,3.5444,3.5016,3.2256,3.2155,3.312,3.2594,3.3906,3.5908,3.718,3.8048,3.9155,4.1713,4.3389,4.4721,4.6007,4.7309,4.8297,4.8327,4.882,4.9254,4.9224,4.8641,4.8117,4.8042,4.7549,4.7174,4.7249,4.7339,4.7863,4.9134,4.8267,4.7938,4.9134,4.8745,4.8132,4.7474,4.7967,4.8596,4.9224,4.9838,4.9643,4.8401,4.8341,4.8012,4.7324,4.7309,4.7309,4.7309,4.7309,4.7309,4.7294,4.6636,4.5978,4.5334,4.4631,4.3973,4.3389,4.3344,4.2985,4.2417,4.2417,4.1654,4.0502,4.0457,4.0053,3.9469,3.9424,3.9424,3.9334,0.0,0.0,0.0,0.0,0.0,0.0,0.0,0.0,0.0,0.0,0.0,0.0,0.0,0.0,0.0,0.0,0.0,0.0,3.2721,3.3544,3.4592,3.5938,3.706,3.7973,3.8631,3.9155,3.9424,3.9424,3.9589,3.9664,3.9694,4.0516,4.098,4.1175,4.1833,4.2132,4.2102,4.1609,4.1399,4.125,3.9753,3.9155,3.8975,3.7345,3.6626,3.6327,3.516,3.4741,3.4584,3.3652,3.3825,3.4698,3.5731,3.6835,3.7913,3.9245,4.0457,4.1609,4.2776,4.4421,4.5888,4.6232,4.7309,4.8416,4.8895,4.9149,4.9134,4.8641,4.7219,4.5768,4.4811,4.4885,4.5409,4.6411,4.7803,4.906,4.9883,5.0122,4.9987,4.9344,4.9553,4.9479,4.8835,4.891,4.909,4.9254,4.9419,4.9374,4.903,4.9015,4.8491,4.7339,4.7309,4.7309,4.7309,4.7309,4.7309,4.7294,4.6636,4.6232,4.6022,4.484,4.4227,4.4032,4.3539,4.324,4.309,4.309,4.2596,4.1818,4.1324,4.0726,4.0083,3.9604,3.9424,3.9394,0.0,0.0,0.0,0.0,0.0,0.0,0.0,0.0,0.0,0.0,0.0,0.0,0.0,0.0,0.0,0.0,0.0,0.0,0.0,3.3125,3.3844,3.4592,3.5878,3.6596,3.6671,3.7345,3.7419,3.6821,3.7419,3.7554,3.7285,3.8512,3.908,3.914,4.0098,4.0516,4.0502,4.0127,3.9843,0.0,0.0,3.7853,3.7584,3.6477,3.6058,3.5953,3.5205,3.5115,3.5379,3.5442,3.5571,3.5933,3.7744,3.8736,3.9589,4.1235,4.2432,4.3494,4.4736,4.6112,4.7189,4.7189,4.7952,4.8581,4.8087,4.8192,4.8057,4.68,4.5424,4.4122,4.312,4.3449,4.4227,4.5274,4.686,4.8401,4.9643,4.9883,4.9868,4.9703,5.0017,4.9972,4.9329,4.9523,4.9583,4.9284,4.9269,4.9134,4.885,4.9105,4.8671,4.7339,4.7593,4.7593,4.7309,4.7309,4.7309,4.7309,4.6935,4.6441,4.5843,4.508,4.4421,4.3868,4.3494,4.3329,4.3329,4.3329,4.294,4.2327,4.1953,4.1414,4.0756,4.0098,3.9843,3.9813,0.0,0.0,0.0,0.0,0.0,0.0,0.0,0.0,0.0,0.0,0.0,0.0,0.0,0.0,0.0,0.0,0.0,0.0,0.0,0.0,3.3529,3.3619,3.4741,3.51,3.4487,3.5055,3.4756,3.3499,3.4666,3.4936,3.4382,3.6088,3.6881,3.6941,3.8108,3.8631,3.8631,3.8631,3.8018,3.703,3.703,3.6417,3.5504,0.0,3.5504,3.5504,3.5504,3.5863,3.6477,3.727,3.73,3.733,3.9215,4.0322,4.1309,4.3329,4.4287,4.5125,4.704,4.7982,4.8401,4.8312,4.8716,4.8641,4.6756,4.6696,4.6501,4.4571,4.3584,4.2865,4.2222,4.2626,4.3344,4.4182,4.5454,4.704,4.9105,4.891,4.9,5.0227,5.0361,5.0107,4.9464,4.9823,4.9868,4.9314,4.9105,4.879,4.8312,4.882,4.8566,4.7339,4.7863,4.7878,4.7309,4.7309,4.7309,4.7309,4.7219,4.6561,4.5424,4.5244,4.4541,4.3464,4.3374,4.3329,4.3329,4.3329,4.3,4.2476,4.2387,4.2013,4.1414,4.0666,4.0397,4.0307,0.0,0.0,0.0,0.0,0.0,0.0,0.0,0.0,0.0,0.0,3.0268,3.0597,0.0,0.0,0.0,0.0,0.0,0.0,0.0,0.0,0.0,3.4277,3.4532,3.4607,3.4472,3.4592,3.4277,3.3499,3.3724,3.3784,3.3679,3.4023,3.4173,3.4188,3.4412,3.4517,3.4517,3.4517,3.4696,3.4981,3.4981,3.519,3.5504,3.5504,0.0,0.0,3.5504,3.5579,3.5938,3.7644,3.8886,3.9978,4.1399,4.2671,4.4032,4.6037,4.6696,4.71,4.8536,4.9015,4.8955,4.8416,4.8371,4.8072,4.6651,4.5978,4.5229,4.3793,4.2551,4.1519,4.0861,4.128,4.2282,4.4032,4.5454,4.7204,4.9718,4.9972,5.0182,5.096,5.105,5.0795,5.0137,4.9688,4.9389,4.9284,4.8252,4.7833,4.8267,4.8401,4.8102,4.7324,4.7414,4.7414,4.7309,4.7309,4.7309,4.7294,4.6756,4.6367,4.6112,4.499,4.4362,4.4122,4.3569,4.3329,4.3329,4.3329,4.3269,4.3105,4.2566,4.2374,4.2043,4.0846,4.0397,4.0307,0.0,0.0,0.0,0.0,0.0,0.0,0.0,2.8891,2.9579,3.0866,3.133,3.1674,3.2003,3.2632,3.329,0.0,0.0,0.0,0.0,0.0,0.0,0.0,3.4292,3.4158,3.3469,3.3784,3.3469,3.2482,0.0,3.2811,3.2482,3.2826,3.2976,3.3006,3.2874,3.2819,3.2819,3.2819,3.3187,3.3853,3.433,3.4891,3.5504,0.0,0.0,0.0,3.5504,3.5729,3.6207,3.7464,3.923,4.1205,4.2865,4.4287,4.5618,4.692,4.7549,4.8027,4.9,4.9508,4.9613,4.8955,4.8536,4.7668,4.5304,4.4257,4.3299,4.1639,4.0801,4.0262,3.9948,4.0711,4.1803,4.309,4.4407,4.6202,4.885,4.9224,4.9718,5.1065,5.1214,5.096,5.0301,4.9957,4.9494,4.8805,4.8177,4.7952,4.8267,4.7967,4.7788,4.7818,4.7489,4.7309,4.7309,4.7309,4.7309,4.7294,4.6636,4.6142,4.5753,4.4766,4.4122,4.3778,4.3464,4.3329,4.3329,4.3329,4.3329,4.3299,4.2985,4.2671,4.2237,4.1265,4.0696,4.0307,0.0,0.0,0.0,0.0,0.0,0.0,0.0,2.925,3.0103,3.1554,3.2317,3.2781,3.2916,3.3395,3.3963,0.0,0.0,0.0,0.0,0.0,0.0,0.0,0.0,0.0,3.2542,0.0,0.0,3.1676,3.2258,0.0,0.0,0.0,0.0,0.0,3.1642,3.1409,3.1599,3.1599,3.2046,0.0,0.0,3.4756,3.5504,0.0,0.0,0.0,0.0,3.5833,3.6387,3.715,3.8901,4.1055,4.2895,4.4781,4.6396,4.677,4.7638,4.8641,4.9299,4.9853,5.0092,4.9434,4.8566,4.707,4.4032,4.2626,4.1459,3.9768,3.9305,3.9245,3.9394,4.0262,4.122,4.2013,4.3135,4.4825,4.7489,4.8117,4.897,5.0795,5.1005,5.075,5.0092,4.9898,4.9344,4.8162,4.8072,4.8072,4.8072,4.7593,4.7534,4.8057,4.7578,4.7309,4.7309,4.7309,4.7309,4.7294,4.6486,4.5813,4.5274,4.4466,4.3823,4.3329,4.3329,4.3329,4.3329,4.3329,4.3329,4.3329,4.318,4.2821,4.2267,4.1474,4.0846,4.0307,0.0,0.0,0.0,0.0,0.0,0.0,0.0,2.9549,3.0268,3.2168,3.2991,3.3634,3.4233,3.4352,3.4666,0.0,0.0,0.0,0.0,0.0,0.0,0.0,0.0,0.0,0.0,0.0,0.0,3.2422,3.2482,0.0,0.0,0.0,0.0,0.0,0.0,2.8951,2.9666,2.9666,0.0,0.0,0.0,0.0,0.0,0.0,0.0,0.0,0.0,3.5549,3.5789,3.7,3.7973,3.8916,4.0322,4.3314,4.6217,4.5648,4.7234,4.9314,4.9972,5.0197,5.0092,4.9434,4.7878,4.5963,4.3853,4.1923,4.0367,3.9574,3.8916,3.8676,3.9305,3.9514,4.0008,4.1265,4.2073,4.3464,4.6142,4.7534,4.879,5.0167,5.0331,5.0077,4.9419,4.882,4.8162,4.7459,4.7399,4.7399,4.7399,4.7339,4.7339,4.7399,4.7339,4.7309,4.7309,4.7309,4.7309,4.7294,4.6007,4.5349,4.5259,4.4003,4.3389,4.3329,4.3329,4.3329,4.3329,4.3329,4.3329,4.3284,4.2686,4.2417,4.2207,4.095,4.0442,4.0307,0.0,0.0,0.0,0.0,0.0,0.0,2.9385,2.9579,3.0432,3.2796,3.3335,3.3903,3.4981,3.51,3.5205,3.5489,0.0,0.0,0.0,0.0,0.0,0.0,0.0,0.0,0.0,0.0,3.2781,3.2512,3.2901,0.0,0.0,0.0,0.0,0.0,0.0,2.8771,2.8577,2.9127,0.0,0.0,0.0,0.0,0.0,0.0,0.0,0.0,0.0,0.0,3.5594,3.6088,3.6941,3.7764,3.7524,3.9888,4.3015,4.4317,4.6307,4.8237,4.888,4.9643,4.9987,4.894,4.7174,4.5289,4.3748,4.1534,3.9738,3.9469,3.8871,3.8601,3.929,3.9424,3.9589,4.0113,4.0427,4.1369,4.3629,4.4721,4.6232,4.876,4.906,4.9119,4.9254,4.8671,4.8012,4.7354,4.7309,4.7309,4.7309,4.7309,4.7309,4.7309,4.7309,4.7309,4.7309,4.7309,4.7309,4.7294,4.5933,4.5289,4.5244,4.3928,4.3329,4.3329,4.3329,4.3329,4.3299,4.291,4.2746,4.2686,4.2028,4.1534,4.1115,4.0591,4.0142,3.9768,0.0,0.0,0.0,0.0,0.0,2.8075,2.9385,2.9579,3.0522,3.3155,3.3499,3.4008,3.5355,3.5504,3.5504,3.5504,3.5055,0.0,0.0,0.0,0.0,0.0,0.0,0.0,0.0,0.0,3.2901,3.3095,3.3559,3.3784,0.0,0.0,3.2102,3.1518,0.0,0.0,0.0,0.0,0.0,0.0,0.0,0.0,0.0,0.0,0.0,0.0,0.0,0.0,0.0,0.0,0.0,3.6686,3.5789,3.7225,3.9723,4.2147,4.4691,4.686,4.7534,4.8656,4.9404,4.8267,4.6486,4.4676,4.3374,4.119,3.9424,3.9424,3.8871,3.8542,3.9035,3.929,3.9349,3.9155,3.9604,4.0487,4.1878,4.3135,4.4781,4.7115,4.7578,4.7967,4.8626,4.8267,4.7803,4.7339,4.7309,4.7309,4.7309,4.7309,4.7309,4.7309,4.7309,4.7309,4.7309,4.7309,4.7309,4.7294,4.5933,4.5289,4.5244,4.3928,4.3329,4.3329,4.3329,4.3329,4.3284,4.2626,4.2357,4.2267,4.1414,4.0816,4.0382,4.0187,3.9813,3.9424,0.0,0.0,0.0,0.0,0.0,0.0,2.9385,2.9579,3.0522,3.3155,3.3499,3.4008,3.5355,3.5504,3.5504,3.5504,3.5489,0.0,0.0,0.0,0.0,0.0,0.0,0.0,0.0,0.0,3.3799,3.4457,3.4472,3.4472,3.4457,3.2908,3.2265,3.2363,0.0,0.0,0.0,0.0,0.0,0.0,0.0,0.0,0.0,0.0,0.0,0.0,0.0,0.0,0.0,0.0,0.0,0.0,0.0,3.5968,3.6911,3.8886,4.2252,4.5469,4.6157,4.7309,4.8147,4.7474,4.5813,4.3988,4.2671,4.0846,3.9424,3.9424,3.8871,3.8392,3.8407,3.896,3.9185,3.8512,4.0068,4.1369,4.1384,4.3629,4.5289,4.5319,4.5933,4.6606,4.7264,4.7309,4.7309,4.7309,4.7309,4.7309,4.7309,4.7309,4.7309,4.7309,4.7309,4.7309,4.7309,4.7309,4.7309,4.7294,4.5933,4.5289,4.5244,4.3928,4.3329,4.3329,4.3329,4.3329,4.3284,4.2626,4.2357,4.2314,4.092,4.0412,4.0322,3.9664,3.9424,3.9424,0.0,0.0,0.0,0.0,0.0,0.0,0.0,2.9295,3.0208,3.1928,3.2542,3.3335,3.4666,3.4801,3.4996,3.5459,3.507,0.0,0.0,0.0,0.0,0.0,0.0,0.0,0.0,0.0,3.3155,3.3799,3.3799,3.4277,3.516,3.3758,3.3077,3.2893,3.1436,3.0453,0.0,0.0,0.0,0.0,0.0,0.0,3.5504,0.0,0.0,0.0,0.0,0.0,0.0,0.0,0.0,0.0,0.0,0.0,0.0,3.7105,3.9888,4.2761,4.3434,4.4257,4.4751,4.4092,4.2432,4.0861,4.0442,3.8826,3.7539,3.7958,3.7539,3.7225,3.7644,3.8257,3.8796,3.905,4.0008,4.0876,4.1324,4.2865,4.4287,4.5185,4.6696,4.7578,4.7324,4.7309,4.7309,4.7309,4.7309,4.7309,4.7309,4.7309,4.7309,4.7309,4.7309,4.7309,4.7309,4.7309,4.7309,4.7294,4.5933,4.5289,4.5244,4.3928,4.3329,4.3329,4.3329,4.309,4.2611,4.1953,4.1429,4.0935,4.0068,3.9723,3.9709,3.9499,3.9125,3.8721,0.0,0.0,0.0,0.0,0.0,0.0,0.0,2.8951,2.9774,3.133,3.1884,3.2736,3.4307,3.4472,3.4756,3.5444,3.5115,0.0,0.0,0.0,0.0,0.0,0.0,0.0,0.0,3.2437,3.2961,3.3858,3.3858,3.4292,3.51,3.4532,3.4055,3.3651,3.2926,3.2243,0.0,0.0,0.0,0.0,0.0,0.0,3.5504,0.0,0.0,0.0,0.0,0.0,0.0,0.0,0.0,0.0,0.0,0.0,0.0,0.0,3.7734,3.9783,4.0935,4.1908,4.2432,4.1788,4.0502,3.9349,3.9095,3.7898,3.6941,3.733,3.7105,3.6941,3.7345,3.7943,3.8527,3.896,3.9798,4.0546,4.095,4.2357,4.3823,4.514,4.6621,4.7384,4.698,4.716,4.7309,4.7309,4.7309,4.7309,4.7309,4.7309,4.7309,4.7309,4.7309,4.7309,4.7309,4.7309,4.7309,4.7294,4.5933,4.5289,4.5244,4.3928,4.3329,4.3329,4.3329,4.297,0.0,4.1654,4.0995,4.0337,3.9679,3.9424,3.9424,3.9424,3.899,3.8392,0.0,0.0,0.0,0.0,0.0,0.0,0.0,2.8637,2.9325,3.1108,3.1422,3.2243,3.4128,3.4382,3.4681,3.537,0.0,0.0,0.0,0.0,0.0,0.0,0.0,0.0,3.332,3.2796,3.314,3.4412,3.4352,3.4382,3.4487,3.504,3.4996,3.4472,3.4427,3.4098,0.0,0.0,0.0,0.0,0.0,0.0,0.0,0.0,0.0,0.0,0.0,0.0,0.0,0.0,0.0,0.0,0.0,0.0,0.0,0.0,0.0,0.0,0.0,4.0068,4.0891,4.0277,3.9634,3.8975,3.8332,3.7704,0.0,3.727,3.727,3.7285,3.7345,3.7883,3.8347,3.8452,3.9559,4.0427,4.0531,4.2237,4.3943,4.5214,4.5978,4.6367,4.6322,4.692,4.7309,4.7309,4.7309,4.7309,4.7309,4.7309,4.7309,4.7309,4.7309,4.7309,4.7309,4.7249,4.7234,4.7219,4.5873,4.5229,4.5185,4.3913,4.3314,4.3269,4.3314,4.291,4.2177,4.1609,4.0965,4.0277,3.9649,3.9424,3.9409,3.9364,3.8916,3.8317,0.0,0.0,0.0,0.0,0.0,0.0,0.0,0.0,0.0,0.0,3.0911,3.1898,3.2871,3.3425,3.3993,0.0,0.0,0.0,0.0,0.0,0.0,0.0,0.0,0.0,3.1988,3.2332,3.2916,3.3724,3.3215,3.3484,3.4457,3.3619,3.3664,3.4457,3.3948,3.3918,0.0,0.0,0.0,0.0,0.0,0.0,0.0,0.0,0.0,0.0,3.5504,3.5504,0.0,0.0,0.0,0.0,0.0,0.0,0.0,0.0,3.5609,3.5833,3.6297,0.0,3.7599,3.7449,3.6911,3.6387,0.0,3.6073,3.5953,3.5953,3.5953,3.6103,3.6611,3.7225,3.7973,3.9005,3.9873,4.0756,4.1758,4.3599,4.514,4.5978,4.6681,4.6875,4.6367,4.692,4.7309,4.7309,4.7309,4.7309,4.7309,4.7309,4.7309,4.7309,4.7309,4.7309,4.7309,4.68,4.6561,4.6531,4.5185,4.4541,4.4526,4.3703,4.306,4.2626,4.312,4.2387,4.0891,4.1235,4.0696,3.9634,3.9484,3.9424,3.9349,3.8826,3.8212,3.7569,0.0,0.0,0.0,0.0,0.0,0.0,0.0,0.0,0.0,0.0,0.0,0.0,0.0,0.0,0.0,0.0,0.0,0.0,0.0,0.0,0.0,0.0,0.0,3.2123,3.2422,3.2198,3.2542,3.3499,3.2841,3.2886,3.3559,3.3155,3.3499,3.4472,3.4442,3.4622,0.0,0.0,0.0,0.0,3.5504,0.0,0.0,0.0,0.0,0.0,3.5504,3.5504,0.0,3.5504,3.5504,3.5504,0.0,0.0,0.0,0.0,3.5504,3.5504,3.5504,3.5759,3.6028,3.6028,3.5774,3.5504,3.5504,3.5504,3.5504,3.5504,3.5504,3.5699,3.6372,3.6985,3.7749,3.8781,3.9768,4.0965,4.2581,4.3988,4.5214,4.6202,4.6636,4.683,4.677,4.71,4.7309,4.7309,4.7309,4.7309,4.7309,4.7309,4.7309,4.7309,4.7309,4.7309,4.7309,4.6651,4.6322,4.6307,4.496,4.4317,4.4287,4.3629,4.297,4.2387,4.3045,4.2222,4.0442,4.1115,4.0606,3.9424,3.9424,3.9424,3.9379,3.899,3.8437,3.7764,0.0,0.0,0.0,0.0,0.0,0.0,0.0,0.0,0.0,0.0,0.0,0.0,0.0,0.0,0.0,0.0,0.0,0.0,0.0,0.0,0.0,0.0,0.0,3.2721,3.3185,3.2198,3.2273,3.3499,3.2841,3.2557,3.2677,3.3125,3.3754,3.4502,3.5085,3.54,0.0,0.0,0.0,0.0,3.5504,0.0,0.0,0.0,0.0,0.0,0.0,0.0,0.0,3.531,3.5355,3.5355,3.5355,0.0,0.0,0.0,0.0,0.0,3.5504,3.5504,3.5504,3.5504,3.5504,3.5504,3.5504,3.5504,3.5504,3.5504,3.5504,3.5729,3.6492,3.7135,3.7808,3.8571,3.9918,4.1504,4.3374,4.4197,4.505,4.6187,4.6411,4.6651,4.7115,4.7249,4.7309,4.7309,4.7219,4.716,4.716,4.7055,4.6995,4.6995,4.6995,4.6995,4.6995,4.6441,4.6112,4.6007,4.4766,4.4107,4.4003,4.3434,4.2776,4.2102,4.2746,4.1983,4.0307,4.0965,4.0457,3.926,3.926,3.92,3.911,3.911,3.8691,3.8003,0.0,0.0,0.0,0.0,0.0,0.0,0.0,0.0,0.0,0.0,0.0,0.0,0.0,0.0,0.0,0.0,0.0,0.0,0.0,0.0,0.0,3.341,3.2811,3.2302,3.1839,3.2183,3.2736,3.3499,3.2841,3.2796,3.3335,3.2886,3.3305,3.4472,3.4592,3.4966,3.5504,0.0,0.0,0.0,3.5504,0.0,0.0,0.0,0.0,0.0,0.0,0.0,0.0,3.4442,3.4637,3.4637,3.4637,0.0,0.0,0.0,0.0,0.0,3.5504,3.5504,3.5504,3.5504,3.5504,3.5504,3.5504,3.5504,3.5504,3.5504,3.5504,3.5863,3.7045,3.7808,3.8646,3.9888,4.1683,4.3419,4.4796,4.5589,4.6097,4.6307,4.6815,4.698,4.6516,4.698,4.7309,4.7309,4.6785,4.6471,4.6471,4.5918,4.5603,4.5603,4.5603,4.5603,4.5603,4.5499,4.517,4.4616,4.3838,4.3195,4.2656,4.2566,4.1848,4.0741,4.1399,4.0876,3.9619,4.0277,3.9753,3.8542,3.8542,3.8212,3.7719,3.7719,3.7315,3.6686,0.0,0.0,0.0,0.0,0.0,0.0,0.0,0.0,0.0,0.0,0.0,0.0,0.0,0.0,0.0,0.0,0.0,0.0,0.0,0.0,3.4517,3.3544,3.32,3.2736,3.2078,3.2018,3.2302,3.2961,3.1545,3.1205,3.1884,3.2317,3.3215,3.4487,3.4861,3.5205,3.5504,3.5504,3.5504,0.0,0.0,0.0,0.0,0.0,0.0,0.0,0.0,0.0,0.0,0.0,3.3948,3.3948,3.3948,0.0,0.0,0.0,0.0,0.0,3.54,3.5504,3.5504,3.5504,3.5504,3.5504,3.5504,3.5504,3.5609,3.5968,3.6028,3.6432,3.7704,3.8781,4.0142,4.2177,4.3284,4.4227,4.517,4.5574,4.5903,4.6277,4.6591,4.68,4.686,4.713,4.716,4.68,4.6486,4.6157,4.5783,4.5469,4.5289,4.5289,4.5289,4.5125,4.4766,4.4766,4.4601,4.4302,4.3643,4.2985,4.2357,4.2357,4.1639,4.0442,4.11,4.0427,3.8916,3.9589,3.908,3.7853,3.7853,3.7674,3.7404,3.7404,3.7015,3.6447,0.0,0.0,0.0,0.0,0.0,0.0,0.0,0.0,0.0,0.0,0.0,0.0,0.0,0.0,0.0,0.0,0.0,0.0,0.0,0.0,3.4113,3.3305,3.341,3.305,3.1975,3.1323,3.1235,3.1691,2.9811,2.945,3.052,3.1634,3.3002,3.4502,3.5026,3.5355,3.5504,3.5504,3.5504,0.0,0.0,0.0,0.0,0.0,0.0,0.0,0.0,0.0,0.0,0.0,0.0,0.0,0.0,0.0,0.0,3.4098,3.4352,3.4592,3.5115,3.5385,3.5504,3.5504,3.5504,3.5549,3.5699,3.5729,3.5968,3.6776,3.6806,3.709,3.8392,3.9858,4.1669,4.4137,4.4691,4.502,4.5663,4.5768,4.5963,4.6486,4.6546,4.6756,4.7249,4.7309,4.704,4.6367,4.6172,4.5783,4.5095,4.4915,4.484,4.484,4.484,4.4601,4.4092,4.4092,4.4092,4.4077,4.3419,4.2761,4.2132,4.1968,4.1265,4.0202,4.0711,4.0053,3.8661,3.9035,3.8482,3.7404,3.724,3.7195,3.718,3.7015,3.6761,3.6492,0.0,0.0,0.0,0.0,0.0,0.0,0.0,0.0,0.0,0.0,0.0,0.0,0.0,0.0,0.0,0.0,0.0,0.0,0.0,0.0,3.3903,3.2647,3.317,3.2568,3.0491,2.987,2.9471,2.9331,2.8042,2.8474,3.0406,3.1043,3.2449,3.4472,3.4532,3.4906,3.5504,3.5504,3.5504,3.5504,0.0,0.0,0.0,0.0,0.0,0.0,0.0,0.0,0.0,0.0,0.0,0.0,0.0,0.0,3.3499,3.3559,3.3993,3.4487,3.4532,3.5026,3.5504,3.5504,3.5504,3.5669,3.6282,3.6417,3.6776,3.8003,3.7764,3.7749,3.9095,4.092,4.288,4.4885,4.5753,4.6411,4.707,4.716,4.7174,4.7234,4.7234,4.7249,4.7309,4.7309,4.704,4.6367,4.5723,4.508,4.4421,4.3808,4.3479,4.3479,4.3479,4.3449,4.3404,4.3404,4.3404,4.3389,4.2746,4.2087,4.1429,4.0816,4.0157,3.9484,3.9544,3.9484,3.9305,3.8706,3.8048,3.7345,3.6776,3.6552,3.6477,3.5863,3.5998,3.6492,0.0,0.0,0.0,0.0,0.0,0.0,0.0,0.0,0.0,0.0,0.0,0.0,0.0,0.0,0.0,0.0,0.0,0.0,0.0,3.2886,3.3036,3.2542,3.2208,3.1257,2.9532,2.9428,2.8954,2.795,2.746,2.8102,2.9718,3.0735,3.2372,3.4502,3.4921,3.4801,3.4307,3.516,3.525,3.4906,3.5325,0.0,0.0,0.0,0.0,0.0,0.0,0.0,0.0,0.0,3.1898,3.1898,3.1898,3.2078,3.2362,3.2766,3.3066,3.335,3.3754,3.4352,3.4861,3.4861,3.519,3.5684,3.6342,3.6791,3.7315,3.8197,3.8856,3.9679,4.101,4.2192,4.3479,4.5035,4.5873,4.6546,4.7219,4.7309,4.7309,4.7309,4.7309,4.7145,4.6741,4.6696,4.6247,4.5155,4.4825,4.4407,4.3733,4.3464,4.3329,4.3329,4.3329,4.3329,4.3329,4.3329,4.3135,4.2731,4.2476,4.2013,4.1354,4.0696,4.0038,3.9424,3.9424,3.8945,3.8153,3.7883,3.7165,3.6207,3.5968,3.5878,3.5848,3.5594,3.5923,3.6492,0.0,0.0,0.0,0.0,0.0,0.0,0.0,0.0,0.0,0.0,0.0,0.0,0.0,0.0,0.0,0.0,0.0,0.0,3.118,3.2033,3.2512,3.2512,3.1699,3.0549,2.9052,2.8568,2.776,2.6519,2.6472,2.7291,2.899,3.0474,3.2106,3.3903,3.4786,3.4562,3.3559,3.4472,3.4592,3.4218,3.4906,3.5175,0.0,0.0,0.0,0.0,0.0,0.0,0.0,0.0,3.1482,3.1482,3.1482,3.1482,3.1556,3.2078,3.2347,3.2617,3.3066,3.3814,3.4472,3.4472,3.5145,3.5983,3.6626,3.727,3.8033,3.911,4.0068,4.0995,4.1893,4.2581,4.3389,4.4496,4.5424,4.6157,4.6606,4.6666,4.6666,4.6666,4.6666,4.6501,4.6037,4.5992,4.5529,4.4392,4.4317,4.4032,4.3374,4.3329,4.3329,4.3329,4.3329,4.324,4.303,4.303,4.2701,4.2058,4.1848,4.1504,4.1055,4.0382,3.9843,3.9424,3.9424,3.8766,3.7704,3.7494,3.6656,3.5504,3.5504,3.5504,3.5504,3.5504,3.5789,3.6207,0.0,0.0,0.0,0.0,0.0,0.0,0.0,0.0,0.0,0.0,0.0,0.0,0.0,0.0,0.0,0.0,0.0,0.0,3.0507,3.1749,3.2497,3.2497,3.1623,3.0534,2.9164,2.7153,2.5673,2.4808,2.482,2.5946,2.8269,3.0151,3.154,3.2557,3.3873,3.4098,3.3469,3.3484,3.3484,3.3544,3.4203,3.4472,3.4412,0.0,0.0,0.0,0.0,0.0,0.0,0.0,3.1482,3.1482,3.1482,3.1482,3.1482,3.1482,3.2003,3.2512,3.2497,3.3455,3.4457,3.4472,3.5474,3.6641,3.727,3.7913,3.896,4.0965,4.1384,4.1384,4.1384,4.1923,4.2581,4.3225,4.4436,4.5289,4.5289,4.5289,4.5289,4.5289,4.5289,4.5289,4.5289,4.5289,4.5005,4.4347,4.4302,4.4018,4.3359,4.3329,4.3329,4.3314,4.3314,4.3,4.2357,4.2434,4.2013,4.1369,4.0711,4.0382,4.0367,3.9709,3.9409,3.9394,3.9409,3.902,3.8317,3.7659,3.6641,3.5504,3.5504,3.5504,3.5504,3.5504,3.5504,3.5609,0.0,0.0,0.0,0.0,0.0,0.0,0.0,0.0,0.0,0.0,0.0,0.0,0.0,0.0,0.0,0.0,0.0,0.0,3.0477,3.0881,3.1315,3.1809,3.0759,2.9998,2.9624,2.7866,2.6347,2.5084,2.4912,2.6509,2.9754,3.0107,3.082,3.1884,3.32,3.2583,3.0689,3.2644,3.2879,3.2003,3.3806,3.4472,3.4457,0.0,0.0,0.0,0.0,0.0,0.0,0.0,0.0,0.0,3.1482,3.1795,3.2138,3.1616,3.2003,3.2422,3.1943,3.2437,3.3215,3.3664,3.4801,3.6088,3.7165,3.7913,3.896,4.0965,4.1384,4.1519,4.1983,4.2314,4.2581,4.3225,4.4047,4.4766,4.5229,4.5289,4.5289,4.5289,4.5289,4.511,4.4646,4.4601,4.4332,4.3673,4.3629,4.3329,4.2686,4.2656,4.2432,4.1983,4.1953,4.1863,4.1669,4.1669,4.1339,4.0681,4.0023,3.9709,3.9709,3.9514,3.8901,3.8033,3.8497,3.8078,3.7,3.6342,3.5848,3.5504,3.5504,3.5504,3.5504,3.5504,3.5804,3.6222,0.0,0.0,0.0,0.0,0.0,0.0,0.0,0.0,0.0,0.0,0.0,0.0,0.0,0.0,0.0,0.0,0.0,0.0,0.0,3.0372,3.0693,3.0999,3.0221,2.9506,2.8784,2.7806,2.7071,2.6532,2.6142,2.7413,3.0134,3.0122,3.0485,3.1108,3.1634,3.1073,2.987,3.1294,3.1646,3.1467,3.3062,3.3694,3.3694,0.0,0.0,0.0,0.0,0.0,0.0,0.0,0.0,0.0,3.1556,3.1809,3.2048,3.1644,3.1824,3.2033,3.1586,3.2198,3.3006,3.3395,3.4891,3.6537,3.7569,3.8721,3.9993,4.1474,4.1564,4.1504,4.1893,4.1758,4.1788,4.2447,4.3105,4.3763,4.4421,4.4511,4.4421,4.4167,4.4137,4.3973,4.3569,4.3539,4.3479,4.3344,4.3329,4.3165,4.2776,4.2506,4.2177,4.1788,4.1519,4.125,4.0995,4.0995,4.0666,4.0008,3.9334,3.8871,3.8616,3.8616,3.8167,3.7419,3.7569,3.7195,3.6432,3.5774,3.5504,3.5439,3.5067,3.5133,3.5439,3.5052,3.5385,3.6088,0.0,0.0,0.0,0.0,0.0,0.0,0.0,0.0,0.0,0.0,0.0,0.0,0.0,0.0,0.0,0.0,0.0,0.0,0.0,0.0,3.0262,3.03,3.0079,2.9215,2.7645,2.7553,2.7844,2.8428,2.796,2.8477,2.9951,3.0116,3.0265,3.0362,2.9752,2.9708,3.0145,2.9651,3.0104,3.1289,3.2004,3.2332,3.2332,3.2407,0.0,0.0,0.0,0.0,0.0,0.0,0.0,0.0,3.1735,3.1556,3.1556,3.1497,3.1511,3.1556,3.1556,3.2497,3.344,3.3559,3.5474,3.7494,3.8153,3.9813,4.1369,4.1968,4.1713,4.1384,4.1384,4.0891,4.0681,4.128,4.1878,4.2476,4.3075,4.3165,4.2925,4.2342,4.2267,4.2267,4.2267,4.2267,4.2521,4.3105,4.3165,4.312,4.306,4.2506,4.2147,4.2087,4.1519,4.092,4.0307,4.0247,3.9918,3.932,3.8571,3.7898,3.733,3.7375,3.7375,3.7285,3.6671,3.6402,3.6357,3.5744,3.5439,3.5279,3.4394,3.4543,3.5279,3.4327,3.4624,3.5504,0.0,0.0,0.0,0.0,0.0,0.0,0.0,0.0,0.0,0.0,0.0,0.0,0.0,0.0,0.0,0.0,0.0,0.0,0.0,0.0,2.8649,3.0286,3.089,3.0785,2.9778,2.9451,2.8887,2.8198,2.7845,2.8804,3.0785,2.9932,2.9608,2.9789,2.961,2.8939,2.8071,2.9123,2.9322,2.9087,3.0431,3.0941,3.1001,3.1539,3.1749,0.0,0.0,0.0,0.0,0.0,0.0,0.0,3.2183,3.2302,3.2198,3.1616,3.1898,3.2302,3.2302,3.2512,3.2976,3.4008,3.5489,3.6851,3.7479,3.8766,3.9888,4.0023,4.0756,4.1384,4.1384,4.1265,4.122,4.1354,4.1504,4.1639,4.1788,4.1803,4.1743,4.1609,4.1594,4.1594,4.1594,4.1594,4.1654,4.1788,4.1803,4.1579,4.1055,4.0891,4.0591,4.0068,3.9918,3.9768,3.9634,3.9095,3.8751,3.8601,3.7449,3.6821,3.6701,3.718,3.715,3.6656,3.5998,3.5714,3.5699,3.5564,3.5052,3.4312,3.4095,3.4095,3.4312,3.4095,3.4624,3.5504,0.0,0.0,0.0,0.0,0.0,0.0,0.0,0.0,0.0,0.0,0.0,0.0,0.0,0.0,0.0,0.0,0.0,0.0,0.0,0.0,2.8584,3.0432,3.0856,3.0623,2.9718,2.9517,2.8963,2.8109,2.8101,2.8665,2.9845,2.9472,2.9145,2.8814,2.8322,2.7739,2.7286,2.7866,2.8165,2.8453,2.9618,3.0238,3.0507,3.0567,3.0791,3.1046,3.1046,0.0,0.0,0.0,0.0,0.0,0.0,0.0,3.1973,3.1571,3.2003,3.2512,3.2512,3.2976,3.3769,3.51,3.5968,3.6656,3.727,3.7958,3.8452,3.8452,3.9768,4.0905,4.0905,4.0651,4.0546,4.0861,4.0905,4.1025,4.1324,4.1384,4.1265,4.095,4.0905,4.0905,4.0905,4.0905,4.104,4.1354,4.1085,4.0905,4.0876,4.0277,3.9768,3.9424,3.9095,3.8781,3.8467,3.8093,3.7913,3.7913,3.6956,3.6327,3.6028,3.6357,3.6327,3.5998,3.5654,3.5504,3.5504,3.5504,3.5213,3.4691,3.4177,3.4312,3.4691,3.4177,3.4624,3.5504,0.0,0.0,0.0,0.0,0.0,0.0,0.0,0.0,0.0,0.0,0.0,0.0,0.0,0.0,0.0,0.0,0.0,0.0,0.0,0.0,0.0,3.0835,3.0726,3.0204,2.941,2.9063,2.8561,2.7821,2.8066,2.8166,2.8237,2.8993,2.8774,2.7837,2.7083,2.6804,2.6862,2.6693,2.7158,2.8134,2.8936,2.9609,3.0103,2.9475,2.9699,3.0328,3.0208,3.0612,3.124,3.1465,0.0,0.0,0.0,0.0,3.1646,3.1646,3.2168,3.2706,3.2826,3.3739,3.4921,3.6043,3.6312,3.6447,3.6971,3.7165,3.724,3.724,3.8736,4.0053,4.0053,3.9604,3.9454,4.0127,4.0038,4.0113,4.0771,4.0771,4.0531,4.0113,4.0053,4.0098,4.0217,4.0232,4.0457,4.0995,4.0427,4.0218,4.0591,3.9651,3.8994,3.8835,3.8441,3.7958,3.7419,3.73,3.724,3.724,3.6611,3.6028,3.5504,3.5504,3.5504,3.5504,3.5504,3.5504,3.5504,3.5504,3.5424,3.5133,3.4312,3.4543,3.5133,3.4312,3.4624,3.5504,0.0,0.0,0.0,0.0,0.0,0.0,0.0,0.0,0.0,0.0,0.0,0.0,0.0,0.0,0.0,0.0,0.0,0.0,2.5395,0.0,0.0,3.1876,3.1664,3.1431,3.1418,2.9766,2.8185,2.6678,2.6728,2.6899,2.7154,2.8601,2.8621,2.7349,2.7998,2.731,2.5744,2.6919,2.7158,2.6808,2.7573,2.8248,2.8786,2.8098,2.8622,2.9624,2.9056,2.928,3.0013,3.115,3.1195,0.0,0.0,0.0,3.2377,3.2377,3.2841,3.3484,3.4068,3.4786,3.5415,3.5594,3.5639,3.5654,3.5744,3.6193,3.6611,3.6611,3.7704,3.8661,3.8661,3.8586,3.8751,3.9439,3.8571,3.8033,3.8706,3.8302,3.8123,3.8601,3.8661,3.8901,3.9499,3.9544,3.9589,3.9679,3.905,3.832,3.7652,3.7641,3.7297,3.646,3.7138,3.7494,3.7404,3.6881,3.6611,3.6596,3.5953,3.5594,3.5504,3.5504,3.5504,3.5504,3.5504,3.5504,3.5504,3.5504,3.4986,3.4177,3.4027,3.4095,3.4177,3.4027,3.4624,3.5504,0.0,0.0,0.0,0.0,0.0,0.0,0.0,0.0,0.0,0.0,0.0,0.0,0.0,0.0,0.0,2.4851,2.5175,2.5716,2.6368,2.8088,2.9652,3.0936,3.1422,3.1103,3.0011,2.8666,2.7344,2.5975,2.5686,2.5747,2.6245,2.8236,2.9063,2.8796,2.8973,2.8026,2.6402,2.7207,2.6881,2.6,2.7137,2.7979,2.8465,2.7402,2.7846,2.8928,2.8243,2.8438,2.9175,3.0118,3.0462,3.0612,3.1195,0.0,0.0,0.0,3.2422,3.317,3.4203,3.4981,3.5504,3.5504,3.5504,3.5504,3.5504,3.5729,3.5938,3.5938,3.6671,3.7434,3.7778,3.7838,3.7943,3.8242,3.7793,3.7509,3.7808,3.7599,3.7524,3.7808,3.7838,3.7958,3.8257,3.8287,3.8061,3.7518,3.6831,3.6257,3.567,3.5883,3.5901,3.5451,3.636,3.6716,3.6342,3.6073,3.5938,3.5938,3.5639,3.5504,3.5504,3.5504,3.5504,3.5504,3.5504,3.5504,3.5504,3.5504,3.5213,3.4839,3.4839,3.4839,3.4839,3.4839,3.5133,3.5504,0.0,0.0,0.0,0.0,0.0,0.0,0.0,0.0,0.0,0.0,0.0,0.0,0.0,0.0,0.0,0.0,2.4838,2.5939,2.7113,2.811,2.9091,3.0119,3.0419,3.0052,2.8906,2.7721,2.6527,2.5398,2.5008,2.5138,2.5779,2.7886,2.9364,3.0211,3.0036,2.8933,2.7188,2.7385,2.6775,2.573,2.6659,2.743,2.7891,2.6687,2.706,2.8231,2.749,2.7715,2.8442,2.9101,2.9639,3.0058,3.0223,3.0851,0.0,0.0,0.0,3.323,3.4203,3.4981,3.5504,3.5504,3.5504,3.5504,3.5504,3.5504,3.5504,3.5504,3.5893,3.6372,3.6836,3.706,3.7225,3.7389,3.7135,3.6903,3.6763,3.688,3.6903,3.6763,3.7014,3.724,3.7404,3.7183,3.6737,3.6057,3.5167,3.4439,3.4046,3.4498,3.4649,3.4425,3.5628,3.5998,3.5504,3.5504,3.5504,3.5504,3.5504,3.5504,3.5504,3.5504,3.5415,3.525,3.5429,3.5504,3.5504,3.5504,3.54,3.525,3.525,3.5145,3.4996,3.4996,3.4996,3.5026,0.0,0.0,0.0,0.0,0.0,0.0,0.0,0.0,0.0,0.0,0.0,0.0,2.4563,2.5034,2.4781,2.3305,2.4553,2.5716,2.6425,2.6989,2.8222,3.0271,2.8766,0.0,2.9886,2.7676,2.5963,2.4858,2.4833,2.5256,2.6136,2.7551,2.9149,3.0768,3.1229,2.9842,2.7284,2.7427,2.7031,2.6313,2.5744,2.5925,2.6468,2.5744,2.6341,2.7483,2.6769,2.7041,2.7724,2.8427,2.8667,2.8801,2.943,3.0507,3.1482,0.0,0.0,0.0,3.4457,3.4981,3.5504,3.5504,3.5504,3.5504,3.5504,3.5504,3.5504,3.5504,3.5534,3.5564,3.5594,3.6118,3.6731,3.7315,3.6402,3.5525,3.5157,3.5392,3.5459,3.5157,3.599,3.6761,3.7345,3.6582,3.6057,3.5985,3.458,3.3312,3.2346,3.3423,3.3644,3.272,3.4534,3.5549,3.5504,3.5504,3.5504,3.5504,3.5504,3.5504,3.5504,3.5504,3.5145,3.4562,3.522,3.5504,3.5504,3.5504,3.5115,3.4532,3.4532,3.4143,3.3604,3.3604,3.3604,3.3679,0.0,0.0,0.0,0.0,0.0,0.0,0.0,0.0,0.0,0.0,0.0,0.0,0.0,2.4047,2.393,2.3884,2.4394,2.5215,2.638,2.6095,2.69,2.9045,2.9136,2.9241,2.9334,2.8399,2.6915,2.482,2.4469,2.4469,2.4782,2.6605,2.7759,2.8365,3.0539,3.03,2.8214,2.9073,2.8154,2.6096,2.6553,2.6568,2.624,2.5633,2.6032,2.6813,2.6597,2.6982,2.7655,2.7859,2.8233,2.8637,2.8876,2.9564,3.0357,3.0746,3.1988,3.3215,3.3215,3.4008,3.4846,3.4846,3.5175,3.5504,3.5504,3.5504,3.5504,3.5504,3.5504,3.5504,3.5504,3.5699,3.5923,3.6148,3.5804,3.5434,3.5363,3.4838,3.4481,3.4398,3.4661,3.4748,3.4382,3.455,3.4186,3.3024,3.2394,3.1646,3.074,3.2241,3.2961,3.2593,3.4491,3.5295,3.4846,3.4846,3.4637,3.4218,3.4218,3.4218,3.4218,3.4218,3.4083,3.3858,3.4113,3.4457,3.4816,3.4382,3.4322,3.4442,3.4008,3.3709,3.3499,3.3499,3.3499,3.3529,0.0,0.0,0.0,0.0,0.0,0.0,0.0,0.0,0.0,2.4949,0.0,0.0,0.0,0.0,2.4105,2.4624,2.4681,2.4951,2.5728,2.5189,2.586,2.794,2.8449,2.8894,2.9242,2.8341,2.6948,2.5084,2.4356,2.4004,2.4017,2.5903,2.668,2.6557,2.9029,2.9596,2.8824,2.912,2.8144,2.6268,2.6321,2.6085,2.5721,2.5409,2.5938,2.6718,2.6791,2.7319,2.7874,2.77,2.7874,2.8248,2.8248,2.8712,2.9385,2.9998,3.0971,3.1825,3.1797,3.2581,3.3376,3.3328,3.3659,3.3995,3.3995,3.3995,3.3995,3.3995,3.3995,3.4054,3.4193,3.453,3.4881,3.5394,3.5213,3.492,3.4558,3.4245,3.3739,3.3171,3.3602,3.3602,3.2678,3.289,3.2522,3.1315,3.118,3.0667,2.958,3.1618,3.2778,3.2908,3.4192,3.4607,3.4158,3.4143,3.3918,3.3499,3.3499,3.3499,3.3499,3.3499,3.338,3.3155,3.3155,3.3544,3.4113,3.3679,3.3619,3.3769,3.3335,3.3036,3.2841,3.2841,3.2841,3.2871,0.0,0.0,0.0,0.0,0.0,0.0,0.0,0.0,2.4236,2.4053,0.0,0.0,0.0,0.0,0.0,2.5481,2.5425,2.5077,2.4408,2.4305,2.5204,2.7214,2.6546,2.7332,2.9793,2.744,2.6035,2.569,2.4544,2.4017,2.4017,2.5374,2.5844,2.5589,2.6748,2.7815,2.8779,2.7538,2.6929,2.6709,2.4885,2.4406,2.4873,2.5105,2.604,2.7187,2.7426,2.7964,2.8502,2.7844,2.7685,2.7685,2.7655,2.8053,2.8727,2.937,2.9928,3.0372,0.0,0.0,0.0,3.0988,3.0971,3.0999,3.0999,3.0999,3.0999,3.0999,3.0999,3.1179,3.1709,3.2567,3.3689,3.5145,3.461,3.3671,3.2749,3.338,3.3241,3.1389,3.282,3.3602,3.2593,3.1742,3.1167,3.1154,3.1154,3.0472,2.9001,3.1571,3.3223,3.3514,3.3499,3.3484,3.3469,3.3469,3.3455,3.344,3.344,3.344,3.344,3.344,3.3095,3.2482,3.2482,3.2841,3.344,3.344,3.308,3.2512,3.2497,3.2093,3.1482,3.1482,3.1482,3.1556,0.0,0.0,0.0,0.0,0.0,0.0,2.4756,2.4313,2.405,0.0,0.0,0.0,2.4827,2.5644,2.6415,2.6871,2.6329,2.5754,2.5147,2.4452,2.5061,2.7242,2.758,2.8636,3.0742,2.9581,2.839,2.7223,2.5486,2.4393,2.4004,2.438,2.4532,2.4443,2.5166,2.5639,2.6077,2.7967,2.8016,2.6966,2.7644,2.7067,2.5769,2.5991,2.6015,2.6049,2.7111,2.7964,2.8652,2.8936,2.9026,2.8936,2.8472,2.8098,2.7831,2.8006,2.8123,2.8165,2.8158,0.0,0.0,0.0,0.0,0.0,3.0999,3.0999,3.0999,3.0999,3.1476,3.173,3.1288,3.24,3.3304,3.2901,3.3522,3.3876,3.3671,3.3241,3.2522,3.1315,3.2249,3.2321,3.0709,3.097,3.1008,3.0513,2.9851,2.968,3.0137,3.1531,3.2742,3.3499,3.3499,3.326,3.2796,3.2781,3.2542,3.2078,3.2078,3.2078,3.2078,3.2078,3.1973,3.1809,3.1809,3.1855,3.2078,3.2078,3.2243,3.2467,3.1988,3.1631,3.1482,3.1482,3.1482,3.1497,0.0,0.0,0.0,0.0,0.0,2.564,2.4771,2.4772,2.4959,0.0,0.0,0.0,2.6048,2.6582,2.7212,2.7818,2.7187,2.6539,2.6157,2.5321,2.5524,2.7101,2.7884,2.9016,3.0567,2.9722,2.878,2.7802,2.555,2.4318,2.3991,2.3753,2.364,2.3653,2.3979,2.4117,2.4267,2.6639,2.7366,2.6966,2.8042,2.8042,2.7282,2.7157,2.7045,2.7034,2.7954,2.8708,2.9319,2.9516,2.9579,2.9451,2.871,2.8196,2.7722,2.713,2.6889,2.6793,2.6453,2.7074,2.7786,2.7648,0.0,0.0,2.8799,2.8746,2.8679,2.8451,2.879,2.9135,2.9107,3.0248,3.1146,3.1198,3.1943,3.2612,3.2778,3.2678,3.2105,3.0758,3.1756,3.1829,3.0011,3.0413,3.0605,3.0204,3.0228,3.0582,3.1318,3.1366,3.1635,3.2258,3.2243,3.1943,3.13,3.1285,3.1091,3.0717,3.0717,3.0717,3.0731,3.0986,3.0971,3.0746,3.13,3.1317,3.1049,3.0732,3.119,3.2063,3.1616,3.1482,3.1437,3.121,3.1106,3.1106,0.0,0.0,2.7842,2.7774,2.6681,2.5861,2.5731,2.6166,2.6601,0.0,2.7305,2.7572,2.7773,2.7782,2.7972,2.8566,2.7965,2.7456,2.7225,2.6478,2.6337,2.7043,2.7796,2.8754,2.997,2.9004,2.8214,2.7868,2.5409,2.4204,2.4067,2.3439,2.3078,2.3078,2.3078,2.3078,2.3223,2.4695,2.59,2.6894,2.7275,2.8061,2.8962,2.8435,2.8457,2.8803,2.9015,2.95,3.0009,2.9743,2.9689,2.956,2.8668,2.8268,2.7826,2.6461,2.5966,2.5738,2.5057,2.5284,2.566,2.5557,2.5937,0.0,2.5799,2.5686,2.5561,2.5096,2.5061,2.5428,2.6345,2.7351,2.8465,2.9829,3.0217,3.0467,3.1088,3.1888,3.1756,2.9998,3.1341,3.1729,2.9845,2.9941,3.0053,3.0138,3.1338,3.2057,3.2139,3.0982,3.0353,3.0417,3.0402,3.0103,2.9475,2.9549,2.9549,2.9475,2.9549,2.9579,2.9609,3.0148,3.0133,2.9744,3.0911,3.1004,3.0324,2.9768,3.0294,3.1467,3.1245,3.123,3.1345,3.0657,3.0447,3.0492,3.0625,2.96,2.8608,2.8094,2.7734,2.7275,2.6751,2.7705,2.8367,2.8023,2.8538,2.9391,3.0528,2.9796,2.9446,3.0015,2.8768,2.7714,2.7221,2.624,2.6362,2.7845,2.8105,2.9124,3.1131,3.0332,2.9515,2.8748,2.6707,2.5316,2.4644,2.3553,2.3078,2.3078,2.3078,2.3078,2.3223,2.5284,2.6318,2.6665,2.8278,2.9129,2.9211,2.8498,2.7931,2.7533,2.7412,2.7803,2.8619,2.9748,3.0234,3.0201,2.9377,2.8024,2.6576,2.5593,2.4583,2.3697,2.353,2.3948,2.4456,2.4833,2.5372,0.0,2.6214,2.6289,2.6264,2.6163,2.6706,2.7024,2.6552,2.7736,2.8568,2.8023,2.8866,2.9992,3.1035,3.1389,3.1044,2.9934,3.0771,3.0847,2.9202,2.9126,2.9391,2.9862,3.0989,3.1117,2.9972,3.0291,3.0235,2.9789,2.9759,2.9445,2.8801,2.931,2.931,2.8801,2.9325,2.9579,2.9579,2.9699,2.9968,3.0342,3.0597,3.0258,2.9638,3.0068,3.0798,3.1304,2.9664,2.969,3.0627,2.9998,3.0073,3.0432,2.9319,2.8852,2.8481,2.8446,2.8585,2.8665,2.8457,2.9414,2.9964,2.9308,2.9927,3.0675,3.1437,3.0642,3.0116,3.0396,2.9667,2.8757,2.7547,2.7373,2.7468,2.7917,2.8071,2.9007,3.0881,2.9772,2.9072,2.9002,2.6638,2.5243,2.4795,2.3603,2.2987,2.2736,2.2952,2.3141,2.3367,2.474,2.6128,2.757,2.9259,2.9954,2.9869,2.8914,2.8353,2.8023,2.7504,2.7803,2.8643,2.9757,2.9979,2.9585,2.8795,2.7824,2.6746,2.5338,2.4493,2.3853,2.3228,2.3552,2.4067,2.4343,2.5008,0.0,0.0,2.585,2.5963,2.5699,2.5726,2.5807,2.5652,2.6323,2.7,2.7233,2.7921,2.8859,3.0289,3.0895,3.0716,2.953,3.0452,3.0598,2.9051,2.9434,2.9816,3.0052,3.0319,3.0134,2.9347,2.9418,2.9208,2.8607,2.8577,2.8113,2.7111,2.744,2.744,2.7111,2.7769,2.8083,2.8113,2.8786,2.9071,2.9071,2.9744,2.9669,2.9013,2.9013,2.9592,3.0436,2.9404,2.9455,2.9968,2.9325,2.928,2.9451,2.8305,2.8122,2.8369,2.9023,2.9573,2.9996,3.0192,3.1011,3.1395,3.0785,3.1279,3.1719,3.1719,3.0986,3.058,3.07,3.0308,2.9666,2.8646,2.8698,2.8625,2.8233,2.8236,2.8703,2.9721,2.8778,2.8284,2.8392,2.6166,2.4936,2.4795,2.3603,2.2899,2.2485,2.3043,2.3502,2.3808,2.4691,2.6284,2.8351,2.9702,3.0455,3.0577,2.9246,2.8876,2.8876,2.7868,2.8051,2.8817,2.9361,2.9339,2.8876,2.7986,2.7578,2.7053,2.5445,2.482,2.4494,2.3678,2.3728,2.4017,2.413,2.4732,2.5209,0.0,0.0,0.0,2.4908,2.4544,2.4443,2.4883,2.4971,2.541,2.6741,2.7055,2.7595,2.8963,3.0018,3.0193,2.9189,3.0005,3.0103,2.8887,2.9623,3.0055,2.9667,2.9454,2.9127,2.874,2.8282,2.7802,2.7193,2.721,2.6617,2.5435,2.5555,2.5555,2.5435,2.6093,2.6467,2.6632,2.7709,2.8053,2.7829,2.8921,2.9032,2.8367,2.791,2.8199,2.9015,2.9015,2.9158,2.931,2.8652,2.8487,2.8472,2.9411,2.8973,2.8929,3.035,3.113,3.1416,3.1082,3.232,3.3004,3.2363,3.2348,3.2407,3.2407,3.127,3.0959,3.2154,2.9987,2.9462,3.1575,2.9463,2.8683,2.9922,2.9485,2.8713,2.7847,2.867,2.8218,2.6228,2.606,2.5534,2.4795,2.3603,2.304,2.3037,2.38,2.4458,2.5116,2.7101,2.7795,2.7703,2.8986,3.025,3.1115,2.8784,2.8298,2.8812,2.7229,2.7162,2.7868,2.7934,2.8417,2.8876,2.7986,2.7024,2.6159,2.5648,2.4833,2.4167,2.4531,2.4318,2.4117,2.4607,2.4456,2.4293,2.472,0.0,2.4895,2.4833,0.0,2.5435,2.5498,0.0,0.0,2.5749,2.6214,2.6684,2.6886,2.7814,2.8773,2.9578,2.8925,2.8407,2.821,2.8542,2.8305,2.737,2.8379,2.8385,2.6816,2.6716,2.6433,2.5749,2.5819,2.548,2.4701,2.5315,2.5315,2.4701,2.5405,2.6019,2.6602,2.6752,2.7425,2.8487,2.8652,2.832,2.7679,2.8246,2.7845,2.6833,2.6833,2.7621,2.8622,2.7934,2.8068,2.8398,2.8544,2.9103,3.0046,3.1359,3.1996,3.2151,3.1861,3.1965,3.2214,3.2269,3.242,3.2662,3.3036,3.2243,3.1857,3.2273,3.1336,3.0947,3.1443,3.0453,3.0287,3.1334,3.0398,2.9793,2.9665,2.8635,2.7561,2.6496,2.5428,2.4695,2.433,2.3514,2.3078,2.3138,2.3943,2.47,2.5458,2.7144,2.8184,2.8719,2.8653,2.95,3.054,2.8175,2.738,2.7484,2.6782,2.6498,2.646,2.646,2.6699,2.6896,2.6219,2.618,2.6178,2.5391,2.5422,2.5651,2.556,2.5107,2.478,2.4965,2.4504,2.4054,2.4293,2.4594,2.4908,2.5209,0.0,0.0,0.0,0.0,0.0,0.0,2.5946,2.6527,2.6553,2.6875,2.7682,2.9114,2.8875,2.853,2.8331,2.8438,2.7947,2.6546,2.7273,2.7166,2.5738,2.539,2.4956,2.4404,2.444,2.412,2.3493,2.3802,2.3938,2.4044,2.4717,2.5181,2.5465,2.5839,2.6333,2.6871,2.648,2.6316,2.6323,2.627,2.5902,2.5342,2.5342,2.6428,2.7979,2.773,2.7754,2.7846,2.767,2.869,3.0064,3.1519,3.1943,3.2068,3.2413,3.2266,3.2247,3.2678,3.2936,3.323,3.3709,3.3021,3.2585,3.2806,3.2433,3.2149,3.2003,3.17,3.162,3.1751,3.1037,3.048,3.0199,2.8194,2.7053,2.6704,2.4873,2.4079,2.4205,2.3477,2.3409,2.393,2.4582,2.5404,2.6301,2.7324,2.821,2.8931,2.7726,2.7844,2.8677,2.7528,2.6867,2.6508,2.6276,2.595,2.5573,2.5435,2.5385,2.5322,2.4946,2.5272,2.5728,2.5242,2.5715,2.64,2.6369,2.5741,2.517,2.517,2.4429,2.3766,2.3766,2.4067,2.4469,2.4845,2.487,0.0,0.0,0.0,2.5001,2.4777,0.0,2.5508,2.6115,2.6139,2.6723,2.8449,2.8699,2.8518,2.8192,2.83,2.7637,2.5853,2.6231,2.5983,2.4632,2.404,2.363,2.3253,2.3155,2.2958,2.2709,2.2694,2.3009,2.361,2.4103,2.4403,2.4597,2.5121,2.5435,2.5553,2.4936,2.4939,2.5207,2.4577,2.4263,2.4263,2.4263,2.5223,2.6541,2.6541,2.6541,2.644,2.7537,2.7516,2.8094,3.0432,3.0659,3.1077,3.2825,3.3824,3.4412,3.4442,3.4427,3.4427,3.4442,3.329,3.3036,3.4322,3.2677,3.2318,3.4244,3.3169,3.187,3.06,3.1138,3.0288,2.766,2.7339,2.6849,2.6096,2.4681,2.4268,2.477,2.3665,2.4119,2.599,2.6239,2.7045,2.8338,2.8352,2.8049,2.742,2.5904,2.5179,2.5165,2.6974,2.7217,2.6389,2.5824,2.5611,2.5523,2.5021,2.4845,2.4845,2.4833,2.4481,2.4355,2.5527,2.5551,2.5428,2.6658,2.6028,2.509,2.509,2.4086,2.3103,2.3103,2.3115,2.3128,2.3153,2.4067,2.4833,2.4845,2.4157,2.3704,2.4172,2.3041,0.0,0.0,2.5028,2.584,2.7851,2.8134,2.7908,2.7402,2.7843,2.7168,2.4983,2.5363,2.4947,2.3251,2.2721,2.2456,2.2417,2.1993,2.2035,2.2694,2.2694,2.3009,2.3595,2.3625,2.3984,2.4582,2.4612,2.5016,2.5553,2.4936,2.4693,2.4659,2.3997,2.3729,2.3729,2.3729,2.3742,2.3821,2.3821,2.3821,2.3719,2.8075,2.8029,2.8376,2.9967,3.0319,3.0698,3.1694,3.2865,3.4098,3.5302,3.5696,3.6133,3.6971,3.6282,3.5774,3.5804,3.4801,3.4442,3.5115,3.4307,3.3814,3.3814,3.3604,3.2496,3.0403,2.9129,2.7755,2.6343,2.5113,2.4644,2.4808,2.4054,2.4502,2.5942,2.5288,2.5748,2.6931,2.7059,2.6933,2.6778,2.6445,2.6129,2.5967,2.6209,2.6384,2.6445,2.5799,2.5372,2.5008,2.4456,2.428,2.4205,2.3828,2.4415,2.5247,2.5358,2.6267,2.7281,2.7723,2.6976,2.6022,2.5969,2.4571,2.3232,2.311,2.2862,2.2799,2.3552,2.3703,2.3729,2.3932,2.3713,2.3264,2.2495,2.251,2.2917,0.0,2.4823,2.5714,2.6493,2.7172,2.7344,2.6791,2.6553,2.5837,2.4393,2.4092,2.3728,2.3103,2.2312,2.1801,2.1801,2.1314,2.1178,2.1417,2.1819,2.2377,2.3009,2.3005,2.3325,2.3924,2.352,2.3273,2.3112,2.2833,2.2491,2.2092,2.185,2.1694,2.1694,2.1694,2.1459,2.1353,2.304,2.3701,2.3543,2.8304,2.8099,2.8155,2.9395,3.0489,3.1397,3.2123,3.363,3.5107,3.6351,3.7104,3.7749,3.8332,3.8003,3.7509,3.6866,3.6432,3.5983,3.5534,3.531,3.4966,3.4472,3.3966,3.2829,3.1016,2.97,2.8311,2.6792,2.6257,2.5882,2.5512,2.4807,2.5192,2.6604,2.5428,2.5567,2.6665,2.6414,2.6031,2.5673,2.5814,2.5755,2.5561,2.5385,2.5799,2.6395,2.5372,2.4808,2.4443,2.3879,2.369,2.3627,2.319,2.3908,2.4892,2.4851,2.6018,2.7314,2.761,2.6942,2.6113,2.605,2.4493,2.3,2.3059,2.2711,2.2523,2.3251,2.3427,2.3281,2.2747,2.2704,2.2376,2.1176,2.1158,2.1734,0.0,2.4342,2.5227,2.4991,2.5849,2.6251,2.5709,2.5499,2.4855,2.3527,2.3238,2.2902,2.2573,2.1681,2.1192,2.1192,2.0652,2.054,2.0809,2.1008,2.15,2.2349,2.2146,2.2352,2.2906,2.2322,2.1955,2.1787,2.1333,2.096,2.0785,2.0227,2.0138,2.0351,2.0073,1.9915,1.9977,2.1703,2.2291,2.2186,2.8239,2.7805,2.7877,2.8999,3.1076,3.2919,3.3876,3.5967,3.7434,3.7494,3.8676,3.9275,3.8616,3.8542,3.8242,3.7524,3.7464,3.6926,3.5684,3.6148,3.5355,3.2826,3.2474,3.1426,2.9564,2.9293,2.8567,2.7391,2.7991,2.7913,2.7059,2.5839,2.623,2.7954,2.6604,2.6481,2.731,2.6383,2.5321,2.4229,2.406,2.4017,2.4092,2.4594,2.5448,2.6163,2.4569,2.4004,2.3916,2.3265,2.3078,2.3078,2.3078,2.3113,2.3259,2.4136,2.4859,2.5558,2.6347,2.5972,2.5329,2.5301,2.3808,2.2372,2.2924,2.2623,2.2234,2.2201,2.304,2.3207,2.1392,2.1198,2.0997,2.0186,1.9332,1.9554,2.1763,2.361,2.4446,2.3501,2.4279,2.4683,2.4232,2.4564,2.4128,2.2489,2.2761,2.2573,2.1543,2.0966,2.0718,2.0718,2.01,2.0105,2.0746,2.0276,2.0533,2.1613,2.1081,2.1111,2.1645,2.1099,2.1111,2.1539,2.0514,2.0268,2.0557,1.9282,1.915,1.9643,1.898,1.915,1.9747,1.9798,1.9798,1.9798,2.958,2.9973,3.0745,3.2387,3.2899,3.3264,3.3887,3.5967,3.7764,3.8766,4.0053,4.0816,4.0636,4.0621,3.9948,3.8287,3.8138,3.7793,3.6971,3.6641,3.6178,3.5489,3.4222,3.2811,3.1184,3.0473,2.9709,2.8946,2.8572,2.8702,2.9145,2.6948,2.6647,2.7865,2.5589,2.5005,2.5684,2.4848,2.4086,2.3416,2.3827,2.4243,2.4582,2.4305,2.4644,2.5134,2.4305,2.4004,2.3916,2.3265,2.3078,2.3078,2.3078,2.3178,2.3467,2.4177,2.4619,2.5041,2.5693,2.5014,2.4134,2.4038,2.291,2.1792,2.1895,2.1481,2.1081,2.09,2.0773,2.0428,1.9452,1.9296,1.9249,1.9003,2.0195,2.1548,2.2773,2.3701,2.3744,2.2547,2.25,2.2858,2.3578,2.2698,2.2283,2.2817,2.192,2.1355,2.1481,2.0966,2.0718,2.0718,2.01,1.9901,2.0055,2.0035,2.0174,2.0427,1.9835,2.0119,2.1094,2.0441,2.026,2.0421,2.0532,1.9847,1.8668,1.9302,1.898,1.8221,1.8555,1.8821,1.9044,1.9592,1.9798,1.9798,3.0579,3.1874,3.3125,3.3865,3.484,3.5477,3.5483,3.6571,3.7898,3.9245,4.0307,4.0846,4.0561,4.0786,4.0382,3.896,3.8556,3.8108,3.7449,3.6836,3.6194,3.5465,3.3887,3.222,3.046,2.992,2.9244,2.8397,2.8612,2.87,2.8638,2.689,2.6342,2.6641,2.5062,2.463,2.503,2.4289,2.3803,2.3514,2.359,2.3803,0.0,2.374,2.3816,2.4042,2.3728,2.3615,2.3503,2.28,2.2823,2.2967,2.2406,2.251,2.2968,2.3138,2.3461,2.3848,2.4235,2.38,2.3234,2.3182,2.2207,2.126,2.1466,2.1066,2.0578,2.0141,1.9972,1.9505,1.7974,1.8197,1.8653,1.8839,2.0293,2.1674,2.2551,2.2902,2.269,2.1508,2.1316,2.1366,2.1853,2.1073,2.1091,2.2326,2.133,2.069,2.074,2.0702,2.0492,1.9962,1.976,1.9559,1.9459,1.917,1.9044,1.9218,1.8609,1.8904,2.0025,1.9421,1.9436,1.9903,1.962,1.9043,1.8246,1.8319,1.807,1.7633,1.807,1.8093,1.8014,1.8434,1.9123,1.9798,3.1648,3.3449,3.4831,3.4278,3.6478,3.8123,3.7734,3.7823,3.8347,3.9529,4.0247,4.0412,3.9753,4.0113,4.0127,3.9484,3.8796,3.8138,3.7584,3.6881,3.5777,3.4171,3.2707,3.0911,2.8862,2.8699,2.8118,2.7167,2.8311,2.832,2.715,2.6436,2.5845,2.534,2.4938,2.4912,2.5027,2.4327,2.3954,2.3841,2.3339,2.3078,2.3078,2.3078,2.3005,2.2944,2.3078,2.3078,2.3005,2.2199,2.2445,2.2857,2.156,2.164,2.2122,2.1811,2.2023,2.2391,2.2528,2.2458,2.234,2.234,2.1469,2.0677,2.1154,2.0903,2.0325,1.9538,1.9728,1.9321,1.6884,1.7438,1.8468,1.912,1.9803,2.059,2.1416,2.1599,2.13,2.0348,2.0281,0.0,1.9733,1.9886,2.0433,2.1325,2.1004,2.0489,1.9836,2.0426,2.0238,1.907,1.923,1.9238,1.9083,1.8123,1.7861,1.8315,1.7555,1.7781,1.8791,1.8322,1.8669,1.961,1.8422,1.8071,1.834,1.7146,1.6978,1.7457,1.7291,1.7103,1.6953,1.6886,1.8066,1.9631,3.3366,3.4309,3.5067,3.5236,3.6507,3.7913,3.8916,3.9993,4.0771,4.101,4.1609,4.1773,4.1115,4.0651,4.0127,3.9484,3.8796,3.8347,3.8227,3.7135,3.5984,3.4874,3.334,3.1469,2.9402,2.8627,2.8248,2.8358,2.8106,2.8231,2.8656,2.6907,2.6268,2.6549,2.5345,2.4822,2.4823,2.4255,2.3715,2.3276,2.3115,2.3078,2.3078,2.3078,2.2702,2.2199,2.2884,2.3078,2.3005,2.2199,2.2445,2.2932,2.2017,2.1701,2.1693,2.2122,2.172,2.1223,2.176,2.1475,2.1112,2.1112,2.0527,1.9974,2.0075,2.0024,1.9571,1.8251,1.8056,1.7688,1.6436,1.6366,1.703,1.8458,1.8595,1.8783,1.9621,2.0034,1.9829,1.858,1.8725,1.8958,1.9213,1.9807,2.0346,2.0786,2.1142,2.0891,1.9861,2.0778,2.0627,1.9033,1.9058,1.927,1.966,1.8186,1.7922,1.8852,1.7359,1.7213,1.8295,1.7804,1.8037,1.8863,1.8172,1.7493,1.6922,1.7246,1.7146,1.661,1.5629,1.5827,1.6539,1.619,1.7303,1.8867,3.559,3.6045,3.6433,3.6918,3.8093,3.917,3.9828,4.1055,4.1773,4.1429,4.107,4.0711,4.0397,4.0083,3.9619,3.8945,3.8272,3.7749,3.7419,3.6507,3.531,3.3832,3.2737,3.1094,2.8795,2.7442,2.7081,2.7575,2.6644,2.6401,2.6863,2.5907,2.5634,2.6003,2.5309,2.5103,2.5146,2.4029,2.3565,2.3552,2.3263,2.3078,2.3065,2.2641,2.2506,2.2445,2.199,2.2189,2.2558,2.1584,2.1552,2.1837,2.0705,2.0696,2.1058,2.1051,2.0682,2.0346,2.067,2.0471,2.0308,2.0308,2.0055,1.9798,1.9798,1.9798,1.9359,1.7895,1.7578,1.7277,1.6277,1.625,1.6845,1.8062,1.8333,1.8558,1.9227,1.9094,1.8624,1.779,1.8123,1.8372,1.835,1.9353,2.017,2.0665,2.0639,2.0263,1.9447,2.0464,2.0439,1.9021,1.9138,1.915,1.8982,1.802,1.7615,1.7668,1.6911,1.6961,1.7777,1.7392,1.7605,1.8258,1.7489,1.6928,1.6492,1.6472,1.6244,1.5881,1.512,1.5127,1.5583,1.5127,1.5719,1.6809,3.7476,3.7734,3.7918,3.8213,3.9328,4.0068,3.977,4.0831,4.1607,4.1459,4.0367,3.9634,3.9634,3.9364,3.8975,3.8437,3.7674,3.7,3.6522,3.5863,3.4706,3.2961,3.2166,3.0672,2.8282,2.6526,2.5711,2.6005,2.5184,2.4759,2.4709,2.5065,2.534,2.5408,2.5422,2.537,2.5165,2.3739,2.3389,2.3778,2.3314,2.3017,2.2823,2.2322,2.2237,2.2262,2.1128,2.0988,2.1223,2.0517,2.0638,2.0831,1.9403,1.9757,2.063,2.0125,1.9899,1.9798,1.9798,1.9798,1.9798,1.9798,1.9798,1.9798,1.9798,1.9695,1.9202,1.7841,1.7357,1.6949,1.6217,1.6201,1.6552,1.7451,1.775,1.8039,1.8452,1.7956,1.7386,1.6884,1.7474,1.7699,1.7158,1.8584,1.9679,1.9955,1.9872,1.9572,1.9008,2.0075,2.0162,1.907,1.9198,1.9077,1.8555,1.7787,1.7255,1.6873,1.6635,1.6785,1.7322,1.7063,1.7208,1.7537,1.6709,1.6285,1.6208,1.5642,1.541,1.5371,1.4951,1.4785,1.4746,1.4404,1.4533,1.5239,3.8302,3.8811,3.8926,3.7968,3.8779,3.9175,3.7637,3.8504,3.9836,4.1216,4.0756,4.0307,4.0307,3.9215,3.8467,3.8392,3.7285,3.6552,3.6492,3.5863,3.4986,3.3891,3.2512,3.0815,2.8699,2.6637,2.5146,2.423,2.4619,2.4657,2.4373,2.5936,2.6502,2.6079,2.6042,2.5327,2.4197,2.3416,2.3103,2.3153,2.3103,2.2628,2.2063,2.2763,2.174,2.0143,2.0838,1.9897,1.8344,1.8994,2.0229,2.1193,1.9597,1.9826,2.0706,2.0655,2.0213,1.9798,1.9798,1.9798,1.9798,1.9798,1.9798,1.9798,1.9798,1.9254,1.8555,1.7797,1.6528,1.5713,1.6047,1.5469,1.5282,1.6117,1.594,1.5694,1.5761,1.6049,1.5989,1.517,1.6023,1.6356,1.55,1.7455,1.845,1.7676,1.8956,1.9572,1.9008,2.0075,2.0162,1.907,1.9021,1.9221,1.9648,1.7622,1.7085,1.8041,1.7011,1.6737,1.7122,1.6622,1.648,1.6623,1.6032,1.566,1.5526,1.541,1.541,1.5371,1.4951,1.4785,1.4775,1.4736,1.4908,1.5311,3.9589,3.9269,3.9048,3.9398,3.896,3.8377,3.7813,3.809,3.8365,3.8275,3.8445,3.8453,3.8453,3.7325,3.641,3.6011,3.5254,3.4819,3.5019,3.4756,3.4394,3.4027,3.2298,3.05,2.8743,2.637,2.4757,2.4004,2.5088,2.5354,2.4853,2.6398,2.6512,2.5553,2.5697,2.5122,2.3956,2.3043,2.2526,2.2384,2.2384,2.2187,2.1815,2.1101,2.0717,2.0514,1.9851,1.8984,1.8276,1.8558,1.908,1.9537,1.9367,1.9684,2.015,2.015,1.9987,1.9798,1.9798,1.9798,1.9798,1.9798,1.9798,1.9798,1.9798,1.9254,1.8501,1.7743,1.6415,1.5381,1.5312,1.5225,1.5195,1.5283,1.5146,1.4941,1.4678,1.4795,1.4687,1.4092,1.5081,1.5647,1.5406,1.7211,1.8388,1.8339,1.9595,2.0283,2.0211,2.0462,2.0811,2.1134,1.9393,1.8744,1.9334,1.7392,1.6692,1.7187,1.636,1.6173,1.6574,1.5901,1.5659,1.5853,1.5625,1.5474,1.541,1.541,1.541,1.5342,1.4658,1.4551,1.4727,1.4209,1.4212,1.4621,4.0408,3.9824,3.9419,3.9802,3.8778,3.7786,3.7192,3.7039,3.6596,3.5413,3.5575,3.5967,3.6626,3.5612,3.4699,3.4181,3.3661,3.3421,3.3561,3.3602,3.3516,3.3331,3.1555,2.9821,2.8239,2.5986,2.4393,2.3502,2.4866,2.5356,2.5003,2.6789,2.6844,2.5503,2.5494,2.4832,2.373,2.2707,2.2149,2.1877,2.1877,2.1522,2.082,1.9867,1.985,2.0204,1.8938,1.8533,1.8565,1.8441,1.8441,1.8497,1.9054,1.9454,1.9798,1.9798,1.9798,1.9798,1.9798,1.9685,1.961,1.9761,1.956,1.9359,1.9453,1.8754,1.794,1.7102,1.613,1.5283,1.4863,1.5029,1.5088,1.4668,1.459,1.4482,1.418,1.4077,1.397,1.373,1.4736,1.5395,1.5218,1.6954,1.8056,1.7971,1.948,2.0347,2.0201,2.0122,2.0511,2.1289,1.9226,1.8269,1.8524,1.7117,1.6296,1.5976,1.5732,1.5728,1.5938,1.5405,1.529,1.541,1.541,1.541,1.541,1.541,1.541,1.5352,1.4746,1.4541,1.4541,1.4062,1.3828,1.3844,4.0377,4.0622,4.0053,3.8439,3.8094,3.7364,3.5057,3.4726,3.4324,3.3305,3.2663,3.3101,3.5214,3.4339,3.3591,3.3578,3.3038,3.2607,3.2593,3.2593,3.2401,3.1875,3.0304,2.8783,2.7173,2.5602,2.4004,2.2334,2.3541,2.4246,2.4553,2.731,2.7815,2.6457,2.5809,2.4695,2.324,2.2585,2.2149,2.1877,2.1877,2.0614,1.8733,1.9541,1.9246,1.8337,1.8463,1.8585,1.8727,1.8727,1.8727,1.8727,1.8727,1.9214,1.9798,1.9798,1.9798,1.9798,1.9798,1.9422,1.9158,1.9673,1.9007,1.83,1.8646,1.7732,1.6558,1.5601,1.541,1.5283,1.4863,1.4785,1.4648,1.4155,1.4087,1.4087,1.4077,1.4077,1.4077,1.4077,1.5178,1.55,1.4534,1.6553,1.7252,1.5672,1.82,1.9346,1.8279,1.8744,1.8794,1.8254,1.8216,1.7894,1.7339,1.6761,1.5888,1.4744,1.532,1.5438,1.5102,1.5282,1.54,1.541,1.541,1.541,1.541,1.541,1.541,1.541,1.54,1.4883,1.4136,1.4619,1.3975,1.3144,3.8765,3.8585,3.8155,3.7665,3.6832,3.5862,3.4413,3.4161,3.3897,3.3169,3.2252,3.1883,3.2574,3.1993,3.1552,3.1552,3.1046,3.0983,3.1609,3.1669,3.169,3.1806,3.0304,2.89,2.7681,2.5781,2.418,2.2874,2.4731,2.6246,2.7296,2.7652,2.7115,2.5728,2.5007,2.3892,2.2611,2.277,2.1946,2.0472,2.0522,1.9736,1.8575,1.7956,1.7706,1.7737,1.82,1.7833,1.7413,1.8927,1.9097,1.8715,1.8715,1.9202,1.9798,1.9798,1.9798,1.9798,1.9798,1.9422,1.9145,1.9673,1.9284,1.8747,1.873,1.7619,1.6276,1.5236,1.5215,1.5283,1.4863,1.4785,1.4648,1.4209,1.3896,1.3603,1.332,1.3281,1.3281,1.3281,1.396,1.4352,1.401,1.537,1.6303,1.6361,1.7599,1.8446,1.8839,1.9307,1.972,2.0109,1.8066,1.709,1.7327,1.595,1.5234,1.5096,1.4895,1.4813,1.4929,1.5271,1.541,1.541,1.541,1.541,1.541,1.541,1.541,1.5352,1.4766,1.4321,1.4029,1.3643,1.3511,1.3573,3.768,3.7511,3.7161,3.674,3.5798,3.4939,3.4035,3.3897,3.3621,3.2855,3.1964,3.1311,3.1122,3.062,3.0306,3.0306,2.9993,3.0075,3.062,3.0488,3.0393,3.0432,2.9298,2.8036,2.6739,2.5472,2.4394,2.3543,2.5488,2.6917,2.7844,2.7375,2.6363,2.5039,2.4276,2.3236,2.202,2.2067,2.1081,1.9521,1.9265,1.855,1.7573,1.676,1.6729,1.7132,1.7809,1.7734,1.7578,1.9254,1.9319,1.8715,1.8715,1.8821,1.898,1.898,1.8847,1.8842,1.9258,1.8893,1.8573,1.9559,1.9033,1.8163,1.7668,1.6783,1.5898,1.5182,1.5234,1.5283,1.4863,1.4785,1.459,1.3994,1.3465,1.3046,1.2939,1.2666,1.2665,1.3096,1.3479,1.38,1.3972,1.4672,1.5329,1.584,1.6647,1.7242,1.7647,1.8484,1.8995,1.9108,1.7251,1.6327,1.6478,1.5609,1.5066,1.4864,1.4646,1.4613,1.4805,1.5391,1.5566,1.542,1.5586,1.5566,1.541,1.541,1.541,1.5342,1.4648,1.4385,1.436,1.3701,1.3745,1.419,3.6937,3.7042,3.67,3.56,3.5014,3.4462,3.3872,3.3784,3.3395,3.2303,3.1675,3.1148,3.067,3.0118,2.9792,2.9792,2.9792,2.9792,2.9792,2.9289,2.8725,2.8134,2.7582,2.6527,2.4908,2.4808,2.4593,2.4408,2.5741,2.6447,2.6553,2.6381,2.5615,2.4336,2.3592,2.2583,2.1375,2.0767,1.9925,1.8996,1.8358,1.7327,1.6115,1.6146,1.6226,1.6539,1.7246,1.8015,1.8715,1.9423,1.9202,1.8661,1.8555,1.8058,1.7523,1.7578,1.7297,1.7228,1.826,1.7942,1.7616,1.9269,1.8422,1.6885,1.6009,1.5628,1.541,1.541,1.541,1.5293,1.4902,1.4834,1.4561,1.373,1.3039,1.2674,1.2929,1.2332,1.2295,1.3367,1.3486,1.373,1.426,1.4299,1.4341,1.4435,1.5463,1.5807,1.5227,1.6613,1.6949,1.6047,1.6014,1.572,1.5091,1.568,1.5319,1.4136,1.4619,1.4834,1.4853,1.5654,1.5791,1.543,1.584,1.5851,1.5468,1.5468,1.5526,1.5535,1.5081,1.5026,1.5122,1.4587,1.4605,1.496,3.4679,3.4704,3.4616,3.4375,3.4173,3.3759,3.2754,3.2604,3.2365,3.1675,3.1122,3.0758,3.0633,3.0118,2.9792,2.9792,2.9792,2.9792,2.9792,2.9666,2.9151,2.8147,2.7582,2.6703,2.5435,2.4607,2.449,2.5119,2.5519,2.5777,2.5821,2.4793,2.3829,2.3045,2.2257,2.1534,2.0891,2.1138,2.0184,1.8552,1.9011,1.7962,1.6146,1.6331,1.607,1.5748,1.6482,1.7246,1.7907,1.8058,1.8382,1.8489,1.7357,1.6922,1.6866,1.7413,1.7297,1.7044,1.7315,1.6945,1.6777,1.8181,1.7979,1.7416,1.7213,1.6229,1.541,1.541,1.541,1.5381,1.5283,1.5264,1.5088,1.457,1.4038,1.3628,1.3418,1.3188,1.3061,1.3057,1.3311,1.3429,1.3293,1.3253,1.3671,1.4612,1.4998,1.5361,1.586,1.6207,1.6306,1.6008,1.6014,1.572,1.5091,1.5237,1.5089,1.4639,1.5059,1.5264,1.5264,1.5469,1.5508,1.542,1.5518,1.579,1.6265,1.6265,1.6585,1.6993,1.6168,1.588,1.5824,1.4953,1.5222,1.6003,3.3897,3.3897,3.3897,3.3897,3.347,3.2918,3.2303,3.2001,3.1637,3.1097,3.0783,3.052,3.0269,2.9967,2.9792,2.9792,2.9792,2.9679,2.9415,2.9164,2.8637,2.777,2.6954,2.6113,2.5259,2.4772,2.4978,2.5906,2.5926,2.5977,2.5963,2.4265,2.3205,2.2564,2.1588,2.0803,2.0288,2.0254,1.9526,1.8472,1.8649,1.7698,1.6323,1.6415,1.6036,1.5526,1.6265,1.6765,1.7146,1.7468,1.7531,1.7286,1.649,1.5856,1.5481,1.5899,1.5986,1.6116,1.6746,1.6714,1.6843,1.8064,1.8213,1.7904,1.7235,1.6197,1.541,1.541,1.541,1.541,1.541,1.541,1.5158,1.4383,1.4072,1.378,1.3312,1.3255,1.3337,1.3426,1.3652,1.3711,1.3477,1.3457,1.3818,1.4717,1.4961,1.5361,1.6086,1.626,1.6148,1.576,1.5729,1.5566,1.5214,1.5472,1.5469,1.5371,1.5605,1.5703,1.5703,1.5703,1.5772,1.5931,1.6143,1.6384,1.6655,1.6655,1.6743,1.6788,1.6081,1.5988,1.6153,1.5395,1.5676,1.6429,3.3796,3.3771,3.3771,3.3771,3.2905,3.219,3.2102,3.1625,3.1085,3.0557,3.0495,3.0319,2.9842,2.9792,2.9792,2.9792,2.9716,2.9453,2.8963,2.8411,2.7821,2.718,2.6151,2.531,2.4707,2.4971,2.5466,2.6176,2.6203,2.6103,2.5877,2.3906,2.2722,2.2128,2.1049,2.0263,1.9747,1.915,1.8715,1.8501,1.795,1.7191,1.6379,1.6436,1.6036,1.5468,1.6093,1.6436,1.6585,1.7003,1.659,1.5869,1.5698,1.4945,1.4131,1.4237,1.4602,1.5198,1.6403,1.7214,1.7965,1.9004,1.9093,1.8519,1.7121,1.6138,1.5488,1.542,1.5469,1.5488,1.542,1.541,1.508,1.4142,1.3877,1.3714,1.3313,1.3157,1.3277,1.3873,1.3974,1.3984,1.3917,1.4024,1.4316,1.4746,1.5176,1.5596,1.6096,1.6484,1.6357,1.5537,1.5508,1.5508,1.5508,1.5879,1.6215,1.6406,1.6406,1.6417,1.6477,1.6477,1.6522,1.6673,1.7001,1.7078,1.6946,1.6868,1.6638,1.6271,1.5811,1.5962,1.6407,1.5936,1.6083,1.668,3.3294,3.3206,3.3206,3.3206,3.2654,3.2051,3.1587,3.1072,3.0532,2.9993,2.9917,2.9892,2.9804,2.9792,2.9792,2.9792,2.934,2.9026,2.8938,2.8411,2.7657,2.6697,2.595,2.5134,2.4155,2.4949,2.5102,2.4624,2.4888,2.4352,2.3192,2.1847,2.0848,2.0205,2.0026,1.9886,1.9798,1.9695,1.8927,1.7852,1.8328,1.7346,1.5642,1.6265,1.6036,1.541,1.5526,1.5979,1.6373,1.5497,1.5526,1.5708,1.4703,1.4233,1.4184,1.4767,1.5341,1.5804,1.6177,1.8656,2.1261,2.1731,2.1017,1.9834,1.8498,1.7068,1.5859,1.5488,1.5703,1.585,1.5478,1.541,1.5449,1.5691,1.4699,1.4214,1.4926,1.3729,1.2907,1.3058,1.345,1.3514,1.3123,1.3692,1.4316,1.4746,1.5176,1.5596,1.6096,1.6484,1.6494,1.6037,1.5957,1.5957,1.5957,1.6086,1.6668,1.7697,1.7697,1.785,1.8107,1.8107,1.7888,1.739,1.7004,1.7198,1.769,1.7255,1.7387,1.7797,1.73,1.7136,1.7165,1.6592,1.671,1.7105,3.2717,3.2616,3.2516,3.2215,3.1725,3.126,3.1009,3.052,3.008,2.9829,2.9792,2.9792,2.9792,2.9792,2.9666,2.9352,2.8812,2.836,2.8059,2.7532,2.6854,2.6025,2.5184,2.4393,2.3669,2.4106,2.4189,2.3974,2.3681,2.3237,2.2551,2.1316,2.0577,2.025,1.9936,1.9798,1.9798,1.9798,1.9202,1.8232,1.8555,1.7622,1.6036,1.6379,1.6036,1.5381,1.5156,1.5296,1.5451,1.469,1.4483,1.4508,1.3962,1.3643,1.3559,1.4231,1.603,1.7923,1.8617,2.1154,2.3266,2.1664,2.0512,1.9226,1.7069,1.5713,1.4944,1.5306,1.577,1.6074,1.6113,1.5732,1.5507,1.5723,1.5219,1.4703,1.4493,1.3917,1.3416,1.3014,1.3125,1.3482,1.3929,1.428,1.4876,1.5741,1.623,1.6562,1.6768,1.7187,1.7324,1.7119,1.6426,1.6125,1.6125,1.7,1.7708,1.8354,1.8779,1.8956,1.8834,1.8576,1.8248,1.7751,1.752,1.747,1.7604,1.7347,1.7276,1.7275,1.7011,1.6923,1.6886,1.6609,1.668,1.6795,3.2102,3.2026,3.1888,3.1461,3.0959,3.062,3.062,3.0143,2.9792,2.9792,2.9792,2.9792,2.9792,2.9666,2.9415,2.8963,2.831,2.7733,2.7306,2.6527,2.5887,2.5435,2.4381,2.3679,2.3337,2.3405,2.3377,2.3389,2.2711,2.2326,2.2153,2.1023,2.0464,2.0451,1.9999,1.9798,1.9798,1.9798,1.9371,1.8715,1.8501,1.7677,1.6492,1.6322,1.5864,1.5371,1.5049,1.4873,1.4717,1.4277,1.3857,1.3486,1.3389,1.3145,1.3055,1.3946,1.7199,2.0738,2.1943,2.398,2.5201,2.2791,2.0032,1.7384,1.535,1.3653,1.3076,1.529,1.5869,1.6177,1.6626,1.6172,1.5776,1.5946,1.5526,1.4974,1.4256,1.3785,1.34,1.2886,1.2816,1.317,1.4204,1.4693,1.5394,1.631,1.6999,1.7383,1.7383,1.7783,1.7969,1.7871,1.6894,1.6429,1.6429,1.7704,1.8478,1.885,1.953,1.9708,1.946,1.901,1.8553,1.8145,1.7893,1.7641,1.7375,1.7237,1.6923,1.6522,1.6522,1.6522,1.6522,1.6522,1.6522,1.6423,3.1461,3.1449,3.1436,3.1399,3.0959,3.062,3.062,3.0143,2.9792,2.9792,2.9792,2.9792,2.9792,2.9315,2.8976,2.8925,2.7959,2.7318,2.7281,2.5812,2.4921,2.4883,2.3803,2.315,2.3135,2.3275,2.3089,2.2407,2.2047,2.1525,2.0822,2.019,1.9861,1.9861,1.9823,1.9798,1.9798,1.9798,1.9371,1.8661,1.7961,1.7202,1.6436,1.5748,1.5468,1.541,1.5381,1.5117,1.4717,1.4277,1.3857,1.3437,1.3047,1.29,1.3238,1.4903,1.9355,2.4092,2.5587,2.6872,2.7806,2.7891,2.106,1.4365,1.4631,1.1394,1.0003,1.5779,1.6392,1.6056,1.6596,1.668,1.6724,1.7191,1.5766,1.4841,1.5606,1.3344,1.178,1.2186,1.2277,1.2285,1.2379,1.4148,1.5294,1.5386,1.6655,1.7383,1.7383,1.7783,1.7832,1.7441,1.7334,1.7285,1.7285,1.7409,1.8178,1.9643,1.9694,1.9993,2.054,1.9955,1.9394,1.8858,1.7847,1.7405,1.7338,1.681,1.6559,1.6522,1.6522,1.6522,1.6522,1.6522,1.6522,1.6423,3.0972,3.0909,3.0796,3.0457,3.0231,3.0105,3.0105,2.993,2.9792,2.9792,2.9792,2.9792,2.9792,2.9277,2.8787,2.8448,2.772,2.713,2.6804,2.5548,2.4506,2.3816,2.3303,2.2811,2.2133,2.2178,2.172,2.0752,2.0628,2.0424,2.0125,1.9911,1.9798,1.9798,1.9798,1.9798,1.9798,1.9798,1.8967,1.7634,1.7619,1.674,1.5435,1.5428,1.541,1.5381,1.5117,1.4746,1.4316,1.3887,1.3467,1.3096,1.293,1.2881,1.36,1.7231,2.114,2.4755,2.6823,2.7055,2.6458,2.5356,1.7883,0.9535,0.4828,0.4642,0.6763,1.1112,1.3561,1.5323,1.6434,1.6672,1.6963,1.7656,1.6211,1.5031,1.512,1.3437,1.2055,1.1727,1.1713,1.1984,1.2788,1.3596,1.4375,1.5215,1.5721,1.6291,1.6847,1.7629,1.7939,1.7773,1.7519,1.7383,1.7383,1.8213,1.8954,1.9705,2.0259,2.058,2.0706,2.0075,1.9334,1.848,1.7714,1.7174,1.6823,1.6609,1.6522,1.6522,1.6522,1.6281,1.6008,1.638,1.602,1.5332,3.0432,3.0357,3.0231,2.9854,2.9792,2.9792,2.9792,2.9792,2.9792,2.9792,2.9792,2.9729,2.9541,2.9013,2.8448,2.7896,2.7344,2.6866,2.6546,2.5435,2.4243,2.2937,2.2874,2.2447,2.1506,2.1317,2.0853,2.0075,1.9886,1.9798,1.9798,1.9798,1.9798,1.9798,1.9798,1.9798,1.9798,1.9527,1.8722,1.7546,1.7335,1.6451,1.5349,1.536,1.541,1.5371,1.5088,1.4707,1.4297,1.4004,1.3623,1.3252,1.3125,1.3387,1.4512,1.8635,2.1886,2.4507,2.6406,2.5669,2.4088,2.2871,1.4883,0.5285,-0.2503,-0.0721,0.3746,0.7702,1.1518,1.462,1.6287,1.6892,1.7324,1.792,1.6462,1.5178,1.4888,1.347,1.2253,1.1632,1.1563,1.1922,1.2755,1.3216,1.3782,1.4649,1.5021,1.5517,1.6149,1.707,1.7579,1.7579,1.759,1.7519,1.7383,1.8102,1.8638,1.8945,1.9581,1.9868,1.9784,1.9271,1.8643,1.7915,1.735,1.6798,1.6238,1.6238,1.6107,1.5964,1.6151,1.5952,1.5676,1.6281,1.5876,1.4971,2.9792,2.9792,2.9792,2.9792,2.9792,2.9792,2.9792,2.9792,2.9792,2.9792,2.9792,2.9566,2.8988,2.8436,2.7883,2.7331,2.6779,2.6533,2.6521,2.5423,2.4067,2.2385,2.2322,2.2058,2.1493,2.0953,2.0718,2.0706,2.0087,1.9798,1.9798,1.9798,1.9798,1.9798,1.9798,1.9798,1.9747,1.9044,1.8715,1.8543,1.709,1.6482,1.6425,1.569,1.541,1.541,1.541,1.5146,1.4785,1.4785,1.4492,1.4009,1.3643,1.4441,1.602,1.8696,2.1402,2.3626,2.4326,2.2763,2.1096,2.1559,1.275,0.2088,-0.5358,-0.38,0.0803,0.6525,1.0828,1.4205,1.6192,1.7354,1.8008,1.8008,1.6437,1.5234,1.5234,1.3319,1.187,1.187,1.187,1.187,1.187,1.2985,1.3673,1.3673,1.4593,1.5155,1.5155,1.6062,1.6627,1.6627,1.7491,1.7793,1.7373,1.6953,1.6877,1.7183,1.7386,1.7656,1.7906,1.7525,1.7388,1.735,1.6773,1.6151,1.5588,1.5588,1.5231,1.4744,1.5365,1.5588,1.5676,1.6281,1.6095,1.5499,2.9792,2.9792,2.9792,2.9792,2.9792,2.9792,2.9792,2.9792,2.9792,2.9792,2.9792,2.9566,2.8988,2.8436,2.7883,2.7331,2.6779,2.6138,2.536,2.4644,2.3665,2.2372,2.2686,2.2447,2.1506,2.133,2.0853,2.0062,1.9886,1.9798,1.9798,1.9798,1.9798,1.9798,1.9798,1.9798,1.9798,1.9579,1.8722,1.747,1.7335,1.6507,1.5339,1.536,1.541,1.541,1.541,1.5146,1.4785,1.4785,1.4492,1.4058,1.3984,1.4533,1.5709,1.7694,1.9646,2.1382,2.2426,2.0978,1.8951,1.8138,1.0958,0.2658,-0.2598,-0.5794,-0.5423,0.2492,0.8618,1.3216,1.528,1.6932,1.8008,1.8008,1.6437,1.5234,1.5234,1.3439,1.2171,1.2171,1.2171,1.2171,1.2171,1.2538,1.2649,1.2435,1.3123,1.3614,1.3614,1.5007,1.5803,1.5803,1.6395,1.6582,1.6455,1.6943,1.7176,1.7183,1.7281,1.749,1.7867,1.7399,1.7284,1.735,1.6773,1.6151,1.5588,1.5588,1.5231,1.4709,1.488,1.4687,1.4457,1.5499,1.496,1.3789,2.9792,2.9792,2.9792,2.9792,2.9792,2.9792,2.9792,2.9792,2.9704,2.9478,2.9453,2.9151,2.836,2.7984,2.7557,2.7005,2.6722,2.6,2.4895,2.4506,2.3816,2.2686,2.2749,2.2297,2.1192,2.0941,2.0489,1.9798,1.9798,1.9798,1.9798,1.9798,1.9798,1.9798,1.9798,1.9798,1.9798,1.9475,1.8536,1.7218,1.7192,1.6304,1.5059,1.5312,1.541,1.541,1.541,1.5244,1.5039,1.5039,1.4746,1.4424,1.459,1.4871,1.551,1.717,1.868,1.9947,2.0648,1.9515,1.7587,1.5494,1.0119,0.4059,-0.0436,-0.4591,-0.5557,0.1266,0.7761,1.2862,1.5088,1.683,1.7862,1.7501,1.6158,1.5092,1.4665,1.331,1.2258,1.2144,1.2231,1.2258,1.2144,1.2131,1.2011,1.1717,1.2074,1.2308,1.2308,1.3685,1.4476,1.4476,1.5097,1.547,1.5619,1.6141,1.6432,1.6502,1.655,1.6786,1.7155,1.6634,1.6515,1.663,1.6066,1.5466,1.4903,1.4903,1.4549,1.4025,1.4247,1.4097,1.3909,1.4869,1.4422,1.3382,2.9792,2.9792,2.9792,2.9792,2.9792,2.9792,2.9792,2.9792,2.9578,2.9001,2.8925,2.8511,2.7406,2.7281,2.7055,2.6584,2.6445,2.5887,2.4895,2.4732,2.4205,2.3175,2.2611,2.1845,2.084,2.025,1.9899,1.9798,1.9849,1.9849,1.9798,1.9798,1.9798,1.9798,1.9798,1.9798,1.9747,1.9097,1.8394,1.7633,1.6922,1.6151,1.5468,1.541,1.541,1.541,1.541,1.541,1.541,1.541,1.5127,1.4863,1.5283,1.5235,1.534,1.678,1.7949,1.8763,1.8921,1.817,1.661,1.3649,1.0155,0.6089,0.1371,-0.0832,-0.0952,0.2422,0.8088,1.3113,1.546,1.7043,1.7677,1.6844,1.5869,1.4879,1.3954,1.2952,1.2204,1.1937,1.2118,1.2158,1.1819,1.1675,1.146,1.1129,1.1152,1.1207,1.1207,1.2215,1.2825,1.2825,1.3695,1.4375,1.4763,1.4728,1.4976,1.541,1.5573,1.5754,1.5902,1.5499,1.538,1.5499,1.4926,1.4376,1.3815,1.3815,1.342,1.2978,1.3505,1.3732,1.3779,1.4376,1.4236,1.3721,2.9792,2.9792,2.9792,2.9792,2.9792,2.9792,2.9792,2.9792,2.9578,2.9001,2.8925,2.8511,2.7406,2.7281,2.7055,2.6584,2.5674,2.5071,2.4845,2.3929,2.3389,2.3078,2.2611,2.2196,2.1958,2.1405,2.069,1.9798,2.0263,2.0238,1.9798,1.9798,1.9798,1.9798,1.9798,1.9798,1.9798,1.9631,1.915,1.8394,1.7688,1.6922,1.6208,1.5642,1.541,1.541,1.541,1.541,1.541,1.541,1.5127,1.4863,1.5283,1.5172,1.4978,1.5651,1.583,1.589,1.6085,1.5369,1.4256,1.2893,1.1313,0.8702,0.3577,0.336,0.4604,0.5617,1.0521,1.4874,1.5739,1.6817,1.756,1.7668,1.6298,1.5092,1.4879,1.3375,1.2278,1.2218,1.2064,1.1716,1.0935,0.9834,0.9094,0.9045,0.9478,0.9764,0.9764,1.1227,1.2052,1.2052,1.3068,1.3551,1.343,1.3647,1.4285,1.541,1.5428,1.5421,1.5278,1.5173,1.5061,1.488,1.4755,1.4376,1.3815,1.3815,1.342,1.2929,1.3065,1.3113,1.3152,1.3779,1.36,1.3006,2.9792,2.9792,2.9792,2.9792,2.9792,2.9792,2.9792,2.9792,2.949,2.8649,2.8536,2.8109,2.7017,2.6892,2.6848,2.6546,2.5686,2.5084,2.4845,2.4017,2.3427,2.3078,2.2611,2.2309,2.2309,2.2033,2.133,2.0213,2.0567,2.0376,1.9798,1.9798,1.9798,1.9798,1.9798,1.9798,1.9798,1.9798,1.9211,1.8242,1.7607,1.6721,1.5756,1.5312,1.5117,1.5117,1.5117,1.5325,1.57,1.598,1.6071,1.6158,1.6388,1.6033,1.5628,1.585,1.5456,1.4844,1.4574,1.3581,1.2501,1.1467,1.0609,0.9296,0.6388,0.7234,0.8985,1.0122,1.2767,1.5078,1.5891,1.691,1.7542,1.7052,1.5965,1.5021,1.4522,1.3237,1.2198,1.1917,1.1514,1.0824,0.9648,0.8838,0.8379,0.8205,0.8885,0.9139,0.8683,0.9937,1.0456,0.9996,1.0574,1.1233,1.1811,1.1977,1.2787,1.4273,1.4628,1.4705,1.4495,1.4588,1.4509,1.4236,1.3978,1.3658,1.3372,1.3372,1.2977,1.2403,1.2774,1.2666,1.2452,1.3132,1.3012,1.2434,2.9792,2.9792,2.9792,2.9792,2.9792,2.9792,2.9792,2.9792,2.939,2.826,2.8109,2.7682,2.6647,2.6533,2.6483,2.6395,2.5787,2.5247,2.472,2.4155,2.364,2.309,2.2698,2.2447,2.2447,2.2447,2.187,2.0718,2.0806,2.0464,1.9798,1.9798,1.9798,1.9798,1.971,1.971,1.9798,1.961,1.8892,1.7879,1.7128,1.6184,1.507,1.4894,1.4736,1.4678,1.4867,1.5519,1.631,1.6782,1.7438,1.803,1.7699,1.7357,1.6963,1.6616,1.5684,1.4568,1.3572,1.2473,1.1248,1.0087,0.945,0.9076,0.8899,1.0176,1.1824,1.3601,1.4205,1.4775,1.5756,1.6857,1.7148,1.5963,1.5306,1.4665,1.3818,1.2837,1.2051,1.1557,1.0707,0.967,0.827,0.7961,0.7826,0.7777,0.842,0.8613,0.8027,0.8794,0.8876,0.8032,0.8179,0.8838,1.0046,1.0288,1.1052,1.2389,1.3288,1.369,1.3651,1.3874,1.3942,1.3779,1.3152,1.2968,1.3065,1.2822,1.2452,1.203,1.251,1.2403,1.207,1.2803,1.2683,1.2059,2.9792,2.9792,2.9792,2.9792,2.9792,2.9792,2.9792,2.9792,2.939,2.826,2.8109,2.7682,2.6647,2.6533,2.6264,2.5762,2.5234,2.4695,2.4142,2.3577,2.3213,2.3078,2.3002,2.2965,2.2965,2.2965,2.2246,2.0718,2.1142,2.084,1.9798,1.9798,1.9798,1.9786,1.9334,1.9384,1.9748,1.8807,1.8277,1.7969,1.6751,1.5877,1.5133,1.4875,1.4551,1.4321,1.5233,1.6448,1.7519,1.7472,1.8684,1.9818,1.815,1.8322,1.8829,1.703,1.5429,1.3907,1.2664,1.1753,1.0812,0.9344,0.9157,0.9439,0.982,1.0787,1.1657,1.2153,1.3556,1.4827,1.5323,1.5569,1.5557,1.5339,1.449,1.389,1.3745,1.2727,1.1897,1.1817,0.9996,0.8208,0.7038,0.6242,0.6102,0.6854,0.6981,0.7307,0.7962,0.8122,0.8122,0.8027,0.8241,0.8379,0.8345,0.9342,0.9813,0.9831,1.1109,1.2184,1.3005,1.3428,1.3661,1.3779,1.3152,1.32,1.3589,1.2414,1.2295,1.2715,1.2187,1.2295,1.2813,1.3457,1.2953,1.1979,2.9792,2.9792,2.9792,2.9792,2.9792,2.9792,2.9792,2.9515,2.9013,2.821,2.7833,2.7344,2.6553,2.6533,2.642,2.6101,2.5573,2.5021,2.4494,2.3929,2.3477,2.309,2.3078,2.3078,2.3078,2.3078,2.2472,2.1129,2.1368,2.1079,2.0275,1.9962,1.9798,1.9798,1.956,1.9585,1.9773,1.9296,1.8524,1.7552,1.6681,1.5554,1.4369,1.4148,1.3955,1.3942,1.5457,1.7037,1.851,1.8734,1.9666,2.0566,1.9958,1.9443,1.8795,1.7326,1.5235,1.3074,1.1558,0.9996,0.8322,0.5951,0.6257,0.7578,0.9025,1.0398,1.1641,1.2848,1.4043,1.4926,1.5249,1.5501,1.5419,1.4869,1.419,1.3673,1.3673,1.2692,1.1384,1.0083,0.8543,0.7131,0.609,0.6163,0.6376,0.6662,0.7632,0.7952,0.7407,0.7817,0.7688,0.6689,0.6767,0.7189,0.7962,0.8516,0.9179,1.004,1.0661,1.1435,1.2283,1.3062,1.3372,1.3286,1.3372,1.3372,1.3238,1.2647,1.2147,1.1792,1.2246,1.2832,1.3426,1.3637,1.3389,1.3009]}]]